[[{"header":{"parameterUnit":"m.s-1","parameterCategory":1,"la1":30.6,"la2":29.2853,"lo1":-89.7004,"lo2":-87.6739,"dx":0.0162,"dy":0.0183,"nx":112,"ny":82,"refTime":"2022-12-06T06:00:00:Z","depth":0,"parameterNumber":2,"parameterNumberName":"U-component_of_WINDS"},"data":[0.0,0.0,0.0,0.0,0.0,0.0,0.0,0.0,0.0,0.0,0.0,0.0,0.0,0.0,0.0,0.0,0.0,0.0,0.0,0.0,0.0,0.0,0.0,0.0,0.0,0.0,0.0,0.0,0.0,0.0,0.0,0.0,0.0,0.0,0.0,0.0,0.0,0.0,0.0,0.0,0.0,0.0,0.0,0.0,0.0,0.0,0.0,0.0,0.0,0.0,0.0,0.0,0.0,0.0,0.0,0.0,0.0,0.0,0.0,0.0,0.0,0.0,0.0,0.0,0.0,0.0,0.0,0.0,0.0,0.0,0.0,0.0,0.0,0.0,0.0,0.0,0.0,0.0,0.0,0.0,0.0,0.0,0.0,0.0,0.0,0.0,0.0,0.0,0.0,0.0,-3.0702,-3.0806,-3.124,-3.1511,-3.1616,-3.2003,-3.1958,-3.1347,0.0,0.0,0.0,0.0,0.0,0.0,0.0,0.0,0.0,0.0,0.0,0.0,0.0,0.0,0.0,0.0,0.0,0.0,0.0,0.0,0.0,0.0,0.0,0.0,0.0,0.0,0.0,0.0,0.0,0.0,0.0,0.0,0.0,0.0,0.0,0.0,0.0,0.0,0.0,0.0,0.0,0.0,0.0,0.0,0.0,0.0,0.0,0.0,0.0,0.0,0.0,0.0,0.0,0.0,0.0,0.0,0.0,0.0,0.0,0.0,0.0,0.0,0.0,0.0,0.0,0.0,0.0,0.0,0.0,0.0,0.0,0.0,0.0,0.0,0.0,0.0,0.0,0.0,0.0,0.0,0.0,0.0,0.0,0.0,0.0,0.0,0.0,0.0,0.0,0.0,0.0,0.0,0.0,0.0,0.0,0.0,0.0,0.0,0.0,0.0,0.0,0.0,0.0,0.0,-3.1599,-3.2153,-3.1809,-3.1764,-3.2317,-3.1405,-3.0761,-3.0672,0.0,0.0,0.0,0.0,0.0,0.0,0.0,0.0,0.0,0.0,0.0,0.0,0.0,0.0,0.0,0.0,0.0,0.0,0.0,0.0,0.0,0.0,0.0,0.0,0.0,0.0,0.0,0.0,0.0,0.0,0.0,0.0,0.0,0.0,0.0,0.0,0.0,0.0,0.0,0.0,0.0,0.0,0.0,0.0,0.0,0.0,0.0,0.0,0.0,0.0,0.0,0.0,0.0,0.0,0.0,0.0,0.0,0.0,0.0,0.0,0.0,0.0,0.0,0.0,0.0,0.0,0.0,0.0,0.0,0.0,0.0,0.0,0.0,0.0,0.0,0.0,0.0,0.0,0.0,0.0,0.0,0.0,0.0,0.0,0.0,0.0,0.0,0.0,0.0,0.0,0.0,0.0,0.0,0.0,0.0,0.0,0.0,0.0,0.0,0.0,0.0,0.0,0.0,-3.0837,-3.1735,-3.2437,-3.2243,-3.2183,-3.2482,-3.2602,-3.2198,-3.112,-3.1309,0.0,0.0,0.0,0.0,0.0,0.0,0.0,0.0,0.0,0.0,0.0,0.0,0.0,0.0,0.0,0.0,0.0,0.0,0.0,0.0,0.0,0.0,0.0,0.0,0.0,0.0,0.0,0.0,0.0,0.0,0.0,0.0,0.0,0.0,0.0,0.0,0.0,0.0,0.0,0.0,0.0,0.0,0.0,0.0,0.0,0.0,0.0,0.0,0.0,0.0,0.0,0.0,0.0,0.0,0.0,0.0,0.0,0.0,0.0,0.0,0.0,0.0,0.0,0.0,0.0,0.0,0.0,0.0,0.0,0.0,0.0,0.0,0.0,0.0,0.0,0.0,0.0,0.0,0.0,0.0,0.0,0.0,0.0,0.0,0.0,0.0,0.0,0.0,0.0,0.0,0.0,0.0,0.0,0.0,0.0,0.0,0.0,0.0,0.0,0.0,0.0,0.0,-3.1616,-3.2018,-3.2677,-3.2602,-3.2572,-3.2736,-3.3664,-3.3469,-3.1644,-3.1241,0.0,0.0,0.0,0.0,0.0,0.0,0.0,0.0,0.0,0.0,0.0,0.0,0.0,0.0,0.0,0.0,0.0,0.0,0.0,0.0,0.0,0.0,0.0,0.0,0.0,0.0,0.0,0.0,0.0,0.0,0.0,0.0,0.0,0.0,0.0,0.0,0.0,0.0,0.0,0.0,0.0,0.0,0.0,0.0,0.0,0.0,0.0,0.0,0.0,0.0,0.0,0.0,0.0,0.0,0.0,0.0,0.0,0.0,0.0,0.0,0.0,0.0,0.0,0.0,0.0,0.0,0.0,0.0,0.0,0.0,0.0,0.0,0.0,0.0,0.0,0.0,0.0,0.0,0.0,0.0,0.0,0.0,0.0,0.0,0.0,0.0,0.0,0.0,0.0,0.0,0.0,0.0,0.0,0.0,0.0,0.0,0.0,0.0,0.0,0.0,0.0,0.0,-3.2063,-3.2706,-3.3365,-3.2886,-3.2766,-3.338,-3.3514,-3.2976,-3.1556,-3.0597,0.0,0.0,0.0,0.0,0.0,0.0,0.0,0.0,0.0,0.0,0.0,0.0,0.0,0.0,0.0,0.0,0.0,0.0,0.0,0.0,0.0,0.0,0.0,0.0,0.0,0.0,0.0,0.0,0.0,0.0,0.0,0.0,0.0,0.0,0.0,0.0,0.0,0.0,0.0,0.0,0.0,0.0,0.0,0.0,0.0,0.0,0.0,0.0,0.0,0.0,0.0,0.0,0.0,0.0,0.0,0.0,0.0,0.0,0.0,0.0,0.0,0.0,0.0,0.0,0.0,0.0,0.0,0.0,0.0,0.0,0.0,0.0,0.0,0.0,0.0,0.0,0.0,0.0,0.0,0.0,0.0,0.0,0.0,0.0,0.0,0.0,0.0,0.0,0.0,0.0,0.0,0.0,0.0,0.0,0.0,0.0,0.0,0.0,0.0,0.0,0.0,0.0,-3.2108,-3.2766,-3.3425,-3.3275,-3.323,-3.3469,-3.4262,-3.3612,-3.0909,0.0,0.0,0.0,0.0,0.0,0.0,0.0,0.0,0.0,0.0,0.0,0.0,0.0,0.0,0.0,0.0,0.0,0.0,0.0,0.0,0.0,0.0,0.0,0.0,0.0,0.0,0.0,0.0,0.0,0.0,0.0,0.0,0.0,0.0,0.0,0.0,0.0,0.0,0.0,0.0,0.0,0.0,0.0,0.0,0.0,0.0,0.0,0.0,0.0,0.0,0.0,0.0,0.0,0.0,0.0,0.0,0.0,0.0,0.0,0.0,0.0,0.0,0.0,0.0,0.0,0.0,0.0,0.0,0.0,0.0,0.0,0.0,0.0,0.0,0.0,0.0,0.0,0.0,0.0,0.0,0.0,0.0,0.0,0.0,0.0,0.0,0.0,0.0,0.0,0.0,0.0,0.0,0.0,0.0,0.0,0.0,0.0,0.0,0.0,0.0,0.0,0.0,-3.1497,-3.2108,-3.2766,-3.3425,-3.3499,-3.3499,-3.3499,-3.4441,-3.3671,-3.0488,0.0,0.0,0.0,0.0,0.0,0.0,0.0,0.0,0.0,0.0,0.0,0.0,0.0,0.0,0.0,0.0,0.0,0.0,0.0,0.0,0.0,0.0,0.0,0.0,0.0,0.0,0.0,0.0,0.0,0.0,0.0,0.0,0.0,0.0,0.0,0.0,0.0,0.0,0.0,0.0,0.0,0.0,0.0,0.0,0.0,0.0,0.0,0.0,0.0,0.0,0.0,0.0,0.0,0.0,0.0,0.0,0.0,0.0,0.0,0.0,0.0,0.0,0.0,0.0,0.0,0.0,0.0,0.0,0.0,0.0,0.0,0.0,0.0,0.0,0.0,0.0,0.0,0.0,0.0,0.0,0.0,0.0,0.0,0.0,0.0,0.0,0.0,0.0,0.0,0.0,0.0,0.0,0.0,0.0,0.0,0.0,0.0,0.0,0.0,0.0,0.0,0.0,-3.1483,-3.2108,-3.2781,-3.3425,-3.3499,-3.3499,-3.3499,-3.3784,-3.2947,0.0,0.0,0.0,0.0,0.0,0.0,0.0,0.0,0.0,0.0,0.0,0.0,0.0,0.0,0.0,0.0,0.0,0.0,0.0,0.0,0.0,0.0,0.0,0.0,0.0,0.0,0.0,0.0,0.0,0.0,0.0,0.0,0.0,0.0,0.0,0.0,0.0,0.0,0.0,0.0,0.0,0.0,0.0,0.0,0.0,0.0,0.0,0.0,0.0,0.0,0.0,0.0,0.0,0.0,0.0,0.0,0.0,0.0,0.0,0.0,0.0,0.0,0.0,0.0,0.0,0.0,0.0,0.0,0.0,0.0,0.0,0.0,0.0,0.0,0.0,0.0,0.0,0.0,0.0,0.0,0.0,0.0,0.0,0.0,0.0,0.0,0.0,0.0,0.0,0.0,0.0,0.0,0.0,0.0,0.0,0.0,0.0,0.0,0.0,0.0,0.0,0.0,0.0,-3.1424,-3.2512,-3.3275,-3.3469,-3.3309,-3.3063,-3.2596,-3.2478,-3.1499,-2.9184,0.0,0.0,0.0,0.0,0.0,0.0,0.0,0.0,0.0,0.0,0.0,0.0,0.0,0.0,0.0,0.0,0.0,0.0,0.0,0.0,0.0,0.0,0.0,0.0,0.0,0.0,0.0,0.0,0.0,0.0,0.0,0.0,0.0,0.0,0.0,0.0,0.0,0.0,0.0,0.0,0.0,0.0,0.0,0.0,0.0,0.0,0.0,0.0,0.0,0.0,0.0,0.0,0.0,0.0,0.0,0.0,0.0,0.0,0.0,0.0,0.0,0.0,0.0,0.0,0.0,0.0,0.0,0.0,0.0,0.0,0.0,0.0,0.0,0.0,0.0,0.0,0.0,0.0,0.0,0.0,0.0,0.0,0.0,0.0,0.0,0.0,0.0,0.0,0.0,0.0,0.0,0.0,0.0,0.0,0.0,0.0,0.0,0.0,0.0,0.0,0.0,0.0,-3.0866,-3.1813,-3.2489,-3.2882,-3.2665,-3.2302,-3.1664,-3.1364,-3.0441,-2.862,0.0,0.0,0.0,0.0,0.0,0.0,0.0,0.0,0.0,0.0,0.0,0.0,0.0,0.0,0.0,0.0,0.0,0.0,0.0,0.0,0.0,0.0,0.0,0.0,0.0,0.0,0.0,0.0,0.0,0.0,0.0,0.0,0.0,0.0,0.0,0.0,0.0,0.0,0.0,0.0,0.0,0.0,0.0,0.0,0.0,0.0,0.0,0.0,0.0,0.0,0.0,0.0,0.0,0.0,0.0,0.0,0.0,0.0,0.0,0.0,0.0,0.0,0.0,0.0,0.0,0.0,0.0,0.0,0.0,0.0,0.0,0.0,0.0,0.0,0.0,0.0,0.0,0.0,0.0,0.0,0.0,0.0,0.0,0.0,0.0,0.0,0.0,0.0,0.0,0.0,0.0,0.0,0.0,0.0,0.0,0.0,0.0,0.0,0.0,0.0,0.0,0.0,-3.0036,-3.0541,-3.1057,-3.1882,-3.1732,-3.1336,-3.0801,-3.0405,-2.9665,-2.8507,0.0,0.0,0.0,0.0,0.0,0.0,0.0,0.0,0.0,0.0,0.0,0.0,0.0,0.0,0.0,0.0,0.0,0.0,0.0,0.0,0.0,0.0,0.0,0.0,0.0,0.0,0.0,0.0,0.0,0.0,0.0,0.0,0.0,0.0,0.0,0.0,0.0,0.0,0.0,0.0,0.0,0.0,0.0,0.0,0.0,0.0,0.0,0.0,0.0,0.0,0.0,0.0,0.0,0.0,0.0,0.0,0.0,0.0,0.0,0.0,-2.4549,-2.3595,0.0,0.0,0.0,0.0,0.0,0.0,0.0,0.0,0.0,0.0,0.0,0.0,0.0,0.0,0.0,0.0,0.0,0.0,0.0,0.0,0.0,0.0,0.0,0.0,0.0,0.0,0.0,0.0,0.0,0.0,0.0,0.0,0.0,0.0,0.0,0.0,0.0,0.0,0.0,0.0,-2.9267,-3.0948,-3.1917,-3.1177,-3.1205,-3.105,-3.0561,-2.93,-2.8451,-2.821,-2.7359,0.0,0.0,0.0,0.0,0.0,0.0,0.0,0.0,0.0,0.0,0.0,0.0,0.0,0.0,0.0,0.0,0.0,0.0,0.0,0.0,0.0,0.0,0.0,0.0,0.0,0.0,0.0,0.0,0.0,0.0,0.0,0.0,0.0,0.0,0.0,0.0,0.0,0.0,0.0,0.0,0.0,0.0,0.0,0.0,0.0,0.0,0.0,0.0,0.0,0.0,0.0,0.0,0.0,0.0,0.0,0.0,0.0,0.0,0.0,-2.5584,-2.4667,0.0,0.0,0.0,0.0,0.0,0.0,0.0,0.0,0.0,0.0,0.0,0.0,0.0,0.0,0.0,0.0,0.0,0.0,0.0,0.0,0.0,0.0,0.0,0.0,0.0,0.0,0.0,0.0,0.0,0.0,0.0,0.0,0.0,0.0,0.0,0.0,0.0,0.0,0.0,0.0,-2.8717,-2.9944,-3.0631,-3.0158,-3.0361,-3.0325,-2.9696,-2.8705,-2.8109,-2.8109,-2.757,0.0,0.0,0.0,0.0,0.0,0.0,0.0,0.0,0.0,0.0,0.0,0.0,0.0,0.0,0.0,0.0,0.0,0.0,0.0,0.0,0.0,0.0,0.0,0.0,0.0,0.0,0.0,0.0,0.0,0.0,0.0,0.0,0.0,0.0,0.0,0.0,0.0,0.0,0.0,0.0,0.0,0.0,0.0,0.0,0.0,0.0,0.0,0.0,0.0,0.0,0.0,0.0,0.0,-2.6808,-2.72,-2.758,-2.7284,-2.7121,-2.7022,-2.7022,-2.6168,-2.4792,-2.4627,0.0,0.0,0.0,0.0,0.0,0.0,0.0,0.0,0.0,0.0,0.0,0.0,0.0,0.0,0.0,0.0,0.0,0.0,0.0,0.0,0.0,0.0,-2.3366,-2.4556,-2.5511,-2.595,-2.5134,0.0,0.0,0.0,0.0,0.0,0.0,0.0,0.0,0.0,0.0,0.0,-2.8108,-2.8571,-2.8997,-2.9177,-2.954,-2.9603,-2.9114,-2.8561,-2.821,-2.8109,-2.8009,-2.8009,0.0,0.0,0.0,0.0,0.0,0.0,0.0,0.0,0.0,0.0,0.0,0.0,0.0,0.0,0.0,0.0,0.0,0.0,0.0,0.0,0.0,0.0,0.0,0.0,0.0,0.0,0.0,0.0,0.0,0.0,0.0,0.0,-2.3119,-2.2643,0.0,0.0,0.0,0.0,0.0,0.0,0.0,0.0,0.0,0.0,0.0,0.0,0.0,-2.6061,-2.56,-2.6654,-2.6941,-2.6539,-2.8172,-2.8714,-2.8276,-2.9306,-2.9544,-2.9115,-2.9115,0.0,-2.5435,-2.4821,0.0,0.0,0.0,0.0,0.0,0.0,0.0,0.0,0.0,0.0,0.0,0.0,0.0,0.0,0.0,0.0,0.0,0.0,0.0,0.0,0.0,0.0,-2.3366,-2.4556,-2.4933,-2.5121,-2.5423,-2.5084,-2.4883,-2.5485,-2.5172,-2.4983,0.0,0.0,0.0,0.0,0.0,0.0,-2.6886,-2.8019,-2.8712,-2.8293,-2.9189,-2.9767,-2.9691,-2.9151,-2.8612,-2.8134,-2.7657,-2.7607,-2.8084,-2.6919,0.0,0.0,0.0,0.0,0.0,0.0,0.0,0.0,0.0,0.0,0.0,0.0,0.0,0.0,0.0,0.0,0.0,0.0,0.0,0.0,0.0,0.0,0.0,0.0,0.0,0.0,0.0,0.0,0.0,-2.2846,-2.3564,-2.3262,-2.38,-2.3922,0.0,0.0,0.0,0.0,0.0,0.0,0.0,0.0,0.0,-2.5664,-2.6562,-2.7114,-2.7159,-2.7758,-2.8215,-2.8651,-2.9459,-3.0112,-3.0593,-3.0435,-3.0459,-3.0605,-2.9853,-2.8882,-2.7769,-2.6722,-2.6063,-2.5659,0.0,0.0,0.0,0.0,-2.4732,-2.4732,-2.4732,-2.4535,-2.4259,-2.3949,0.0,0.0,0.0,0.0,0.0,0.0,0.0,-2.1782,-2.2573,-2.3427,-2.428,-2.5071,-2.5498,-2.5799,-2.6038,-2.5649,-2.5423,-2.5975,-2.5636,-2.5536,-2.6389,-2.6427,0.0,0.0,0.0,-2.7118,-2.6942,-2.7821,-2.8373,-2.8134,-2.9114,-2.9792,-2.9792,-2.9264,-2.8687,-2.8134,-2.7871,-2.7406,-2.6724,-2.638,-2.5791,0.0,0.0,0.0,0.0,0.0,0.0,0.0,0.0,0.0,0.0,0.0,0.0,0.0,0.0,0.0,0.0,0.0,0.0,0.0,0.0,0.0,0.0,0.0,0.0,0.0,0.0,0.0,0.0,-2.3398,-2.4317,-2.391,-2.4462,-2.4612,0.0,0.0,0.0,0.0,0.0,0.0,-2.4881,-2.6075,-2.6743,-2.6743,-2.7711,-2.8342,-2.8666,-2.9191,-2.9858,-3.0573,-3.1123,-3.1615,-3.2067,-3.1507,-3.134,-3.1448,-3.07,-3.0432,-3.0447,-2.8771,-2.7799,-2.7305,-2.6811,-2.6617,-2.6602,-2.6437,-2.6378,-2.6348,-2.6168,-2.6108,-2.606,-2.558,-2.517,-2.4651,-2.338,0.0,0.0,0.0,0.0,-2.2874,-2.3427,-2.4293,-2.5159,-2.5686,-2.6151,-2.6533,-2.6533,-2.6126,-2.5937,-2.6445,-2.5988,-2.5912,-2.6904,-2.649,0.0,-2.7519,-2.7105,-2.6766,-2.703,-2.767,-2.8109,-2.8109,-2.9114,-2.9792,-2.9792,-2.9402,-2.8913,-2.8348,-2.8076,-2.7347,-2.6107,-2.5855,-2.4925,-2.3087,0.0,0.0,0.0,0.0,0.0,0.0,0.0,0.0,0.0,0.0,0.0,0.0,0.0,0.0,0.0,0.0,0.0,0.0,0.0,0.0,0.0,0.0,0.0,0.0,0.0,0.0,0.0,0.0,0.0,-2.4686,-2.5151,0.0,0.0,0.0,0.0,-2.5465,-2.554,-2.5555,-2.5555,-2.678,-2.7441,-2.7441,-2.9194,-2.9886,-2.9358,-3.1165,-3.1859,-3.1358,-3.3369,-3.3345,-3.155,-3.2864,-3.2739,-3.1522,-3.2093,-3.2721,-3.311,-3.0537,-2.946,-2.943,-2.9385,-2.9385,-2.931,-2.8682,-2.8442,-2.8353,-2.7694,-2.752,-2.747,-2.747,-2.65,-2.519,-2.4275,-2.3546,0.0,0.0,-2.3452,-2.4042,-2.4594,-2.5146,-2.5699,-2.6276,-2.6508,-2.6533,-2.6533,-2.6508,-2.6496,-2.6521,-2.5988,-2.5787,-2.6402,0.0,-2.7055,-2.6603,-2.6942,-2.7067,-2.6634,-2.7444,-2.8109,-2.8109,-2.9114,-2.9792,-2.9792,-2.9767,-2.9503,-2.8925,-2.7916,-2.7263,-2.7228,-2.4801,-2.3682,-2.4124,-2.2704,0.0,0.0,0.0,0.0,0.0,0.0,0.0,0.0,0.0,0.0,0.0,0.0,0.0,0.0,0.0,0.0,0.0,0.0,0.0,0.0,0.0,0.0,0.0,0.0,0.0,0.0,0.0,0.0,-2.5899,-2.6093,0.0,-2.533,-2.5255,-2.536,-2.56,-2.6004,-2.6404,-2.6796,-2.8466,-2.9404,-2.9373,-3.0884,-3.1588,-3.132,-3.2073,-3.2527,-3.2689,-3.3912,-3.4113,-3.3469,-3.3976,-3.3975,-3.3429,-3.3261,-3.3275,-3.3455,-3.2946,-3.2228,-3.142,-3.1001,-3.0836,-3.0806,-3.0567,-3.0208,-2.9789,-2.9549,-2.919,-2.8808,-2.8228,-2.6989,-2.5595,-2.4939,-2.4519,-2.4142,-2.3791,-2.4343,-2.5071,-2.5272,-2.5737,-2.6201,-2.6483,-2.6533,-2.6533,-2.6533,-2.6533,-2.6533,-2.6533,-2.6302,-2.6339,-2.6892,-2.6854,-2.6804,-2.6967,-2.6854,-2.6816,-2.6967,-2.7645,-2.8247,-2.8599,-2.9327,-2.993,-3.0294,-2.9635,-2.8967,-2.8421,-2.7334,-2.6219,-2.519,-2.3977,-2.3237,-2.3146,-2.2606,-2.2422,0.0,0.0,0.0,0.0,0.0,0.0,0.0,0.0,0.0,0.0,0.0,0.0,0.0,0.0,0.0,0.0,0.0,0.0,0.0,0.0,0.0,0.0,0.0,0.0,0.0,0.0,-2.6348,-2.6557,-2.6766,-2.6633,-2.5989,-2.6289,-2.6473,-2.6306,-2.6856,-2.742,-2.7814,-2.9515,-3.0569,-3.0723,-3.2072,-3.2779,-3.2752,-3.3029,-3.3383,-3.3795,-3.5047,-3.5265,-3.4543,-3.5326,-3.5282,-3.4484,-3.4301,-3.4173,-3.4203,-3.4637,-3.4307,-3.3484,-3.3036,-3.2871,-3.2841,-3.2617,-3.2243,-3.1779,-3.133,-3.0726,-2.9954,-2.8898,-2.7618,-2.6369,-2.5777,-2.5512,-2.5297,-2.4933,-2.5347,-2.5887,-2.5887,-2.6176,-2.6533,-2.6533,-2.6533,-2.6533,-2.6533,-2.6533,-2.6533,-2.6533,-2.6533,-2.6647,-2.6942,-2.6773,-2.6653,-2.7205,-2.6816,-2.6798,-2.7469,-2.7883,-2.8247,-2.8612,-2.8996,-2.9271,-2.9443,-2.869,-2.8069,-2.7557,-2.6617,-2.5505,-2.4294,-2.3854,-2.3368,-2.2725,-2.2725,-2.2793,-2.293,0.0,0.0,0.0,0.0,0.0,0.0,0.0,0.0,0.0,0.0,0.0,0.0,0.0,0.0,0.0,0.0,0.0,0.0,0.0,0.0,0.0,0.0,0.0,-2.4829,-2.6406,-2.7385,-2.6722,-2.7147,-2.7272,-2.6714,-2.7732,-2.818,-2.77,-2.8189,-2.8511,-2.8511,-2.9784,-3.0814,-3.138,-3.2705,-3.3457,-3.3432,-3.4167,-3.4523,-3.4556,-3.6806,-3.6738,-3.4681,-3.683,-3.6604,-3.4547,-3.522,-3.5504,-3.5504,-3.5504,-3.5504,-3.5504,-3.5504,-3.5504,-3.5429,-3.4756,-3.4502,-3.4292,-3.2976,-3.1911,-3.0936,-2.9498,-2.8427,-2.7537,-2.6714,-2.6533,-2.6533,-2.6533,-2.6533,-2.6533,-2.6533,-2.6533,-2.6533,-2.6533,-2.6533,-2.6533,-2.6533,-2.6533,-2.6533,-2.6533,-2.6533,-2.6533,-2.6533,-2.6533,-2.671,-2.718,-2.6804,0.0,-2.7886,-2.8036,-2.8036,-2.8074,-2.807,-2.7826,-2.7328,-2.7147,-2.6925,-2.6528,-2.5765,-2.5204,-2.4723,-2.4536,-2.3984,-2.3154,-2.3154,-2.2872,-2.2464,0.0,0.0,0.0,0.0,0.0,0.0,0.0,0.0,0.0,0.0,0.0,0.0,0.0,0.0,0.0,0.0,0.0,0.0,0.0,0.0,0.0,0.0,-2.8084,-2.7624,-2.7548,-2.7694,-2.8008,-2.779,-2.7671,-2.7946,-2.8279,-2.8576,-2.8888,-2.9042,-2.9134,-2.9134,-3.0409,-3.1267,-3.1465,-3.3223,-3.4202,-3.4296,-3.4942,-3.5318,-3.5318,-3.6518,-3.6456,-3.5361,-3.6486,-3.6357,-3.5235,-3.5429,-3.5504,-3.5504,-3.5504,-3.5504,-3.5504,-3.5504,-3.5504,-3.5489,-3.5295,-3.4906,-3.4292,-3.2976,-3.1911,-3.0936,-2.9498,-2.8427,-2.7537,-2.6714,-2.6533,-2.6533,-2.6533,-2.6533,-2.6533,-2.6533,-2.6533,-2.6533,-2.6533,-2.6533,-2.6533,-2.6533,-2.6533,-2.6533,-2.6533,-2.6533,-2.6533,-2.6533,-2.6533,-2.6584,-2.6666,-2.6553,-2.6644,-2.6904,-2.6962,-2.6935,-2.6964,-2.7195,-2.7349,-2.7307,-2.6693,-2.6235,-2.583,-2.4825,-2.4018,-2.357,-2.3536,-2.3379,-2.3144,-2.3447,-2.3089,0.0,0.0,0.0,0.0,0.0,0.0,0.0,0.0,0.0,0.0,0.0,0.0,0.0,0.0,0.0,0.0,0.0,0.0,0.0,0.0,0.0,0.0,-2.7334,-2.9445,-2.9071,-2.8667,-2.8546,-2.891,-2.8602,-2.8496,-2.8826,-2.9316,-2.9585,-2.9406,-2.9629,-2.9761,-2.9761,-3.0838,-3.1693,-3.2282,-3.3717,-3.465,-3.5035,-3.5407,-3.5622,-3.5622,-3.6417,-3.637,-3.563,-3.6053,-3.5859,-3.5046,-3.4763,-3.4816,-3.507,-3.507,-3.525,-3.5504,0.0,0.0,0.0,0.0,-3.525,-3.4756,-3.3709,-3.2783,-3.1789,-3.0266,-2.9172,-2.8326,-2.7411,-2.6979,-2.6854,-2.708,-2.6816,-2.6584,-2.6753,-2.6697,-2.6533,-2.6533,-2.6533,-2.6533,-2.6533,-2.671,-2.6804,-2.6804,-2.6992,0.0,-2.7155,-2.6766,-2.6458,-2.6239,-2.6135,-2.6154,-2.6217,-2.6178,-2.6085,-2.6091,-2.6085,-2.6051,-2.595,-2.5455,0.0,0.0,0.0,-2.376,-2.3682,-2.3506,0.0,0.0,0.0,-2.2581,-2.1671,-2.1207,0.0,0.0,-2.1318,-2.039,0.0,0.0,0.0,0.0,0.0,0.0,0.0,0.0,0.0,0.0,0.0,0.0,0.0,0.0,0.0,0.0,-2.8414,-2.9744,-2.9609,-2.9687,-2.9599,-2.9404,-2.9328,-2.9361,-2.9496,-3.0477,-3.0699,-2.9673,-3.0123,-3.0393,-3.0293,-3.0988,0.0,0.0,0.0,-3.4726,-3.5487,-3.5571,-3.5622,-3.5622,-3.6315,-3.631,-3.5613,-3.5667,-3.5229,-3.4454,-3.3864,-3.3875,-3.4367,-3.4367,-3.4726,-3.5295,-3.5444,-3.5504,-3.5504,-3.5504,-3.5504,-3.54,-3.4711,0.0,0.0,-3.1341,-3.0256,-2.9451,-2.8448,-2.7758,-2.7482,-2.7971,-2.7394,-2.6753,-2.7256,-2.7017,-2.6653,-2.6653,-2.6653,-2.6653,-2.6653,-2.703,-2.7369,-2.7369,-2.777,-2.8109,-2.8109,-2.7222,-2.6359,-2.5924,-2.5689,-2.5518,-2.562,-2.548,-2.5422,-2.5315,-2.4924,0.0,-2.3929,-2.3837,-2.3603,-2.3164,-2.3496,-2.3887,-2.4258,-2.3916,-2.3796,-2.4074,-2.2695,-2.1599,-2.0907,-1.9828,-1.9296,-1.916,-1.8604,-1.8258,0.0,0.0,0.0,0.0,0.0,0.0,0.0,0.0,0.0,0.0,0.0,0.0,0.0,0.0,0.0,-2.6428,-2.9167,-3.0791,-2.9729,-3.0015,-2.9904,-2.8804,-2.8684,-2.9058,-3.0038,-3.0351,-3.0576,-3.0838,-3.0975,-3.0797,-3.0351,-3.0874,-3.1415,-3.1779,-3.2975,-3.3981,-3.4709,-3.5318,-3.5622,-3.5622,-3.5774,0.0,-3.5613,-3.5627,-3.5203,-3.4496,-3.4337,-3.4045,-3.3679,-3.3679,-3.3769,-3.3993,-3.5085,-3.5504,-3.5504,-3.5504,-3.5504,-3.54,-3.4711,-3.4409,-3.3878,-3.1541,-3.0663,-3.0269,-2.8579,-2.8034,0.0,-2.8072,-2.7946,-2.7808,-2.7921,-2.7871,-2.7783,-2.7783,-2.7783,-2.7783,-2.7783,-2.7871,-2.7946,-2.7946,-2.8034,-2.8109,-2.8109,-2.7238,-2.6462,-2.6407,-2.5551,-2.4826,-2.4392,-2.4302,-2.4106,-2.3639,-2.3819,-2.383,-2.3308,-2.3575,-2.3603,-2.3164,-2.3213,-2.3301,-2.3379,-2.331,-2.283,-2.1896,-2.1545,-2.0529,-1.8721,-1.8445,-1.8015,-1.7302,-1.8812,-1.9004,0.0,0.0,0.0,0.0,0.0,0.0,0.0,0.0,0.0,0.0,0.0,-2.1202,0.0,0.0,-2.7394,-2.7998,-3.0303,-3.1591,-3.0251,-3.0576,-3.0362,-2.8729,-2.9042,-2.9629,-3.0251,-3.0559,-3.0878,-3.119,-3.119,-3.1055,-3.0757,-3.1015,-3.1561,-3.2386,-3.306,-3.3931,-3.5047,-3.5436,-3.5622,-3.5622,-3.5622,-3.5609,-3.5571,-3.525,-3.4919,-3.4484,-3.3826,-3.3552,-3.3497,-3.3517,-3.3499,-3.3559,-3.4233,-3.4696,-3.504,-3.5385,-3.5504,-3.5379,-3.4522,-3.4259,-3.3922,-3.1736,-3.101,-3.0726,-2.9361,-2.875,-2.8574,-2.8875,-2.8549,-2.8172,-2.8448,-2.831,-2.8109,-2.8109,-2.8109,-2.8109,-2.8109,-2.8323,-2.8511,-2.8511,-2.8262,-2.8118,-2.8118,-2.6764,-2.5644,-2.5704,-2.4981,-2.4108,-2.3378,-2.3442,-2.3398,-2.3115,-2.333,-2.3379,-2.3154,-2.334,-2.3369,-2.3154,-2.3135,-2.288,-2.2447,-2.2457,-2.1989,-2.0864,-2.0395,-1.963,-1.8565,-1.8039,-1.7597,-1.7141,-1.8346,-1.8476,0.0,0.0,0.0,0.0,0.0,0.0,0.0,0.0,-1.8978,-2.1207,-2.2635,-2.3795,-2.4557,-2.6775,-2.8749,-2.9456,-3.1089,-3.1805,-3.0675,-3.0937,-3.0625,-2.8889,-2.9629,-3.0351,-3.0477,-3.0918,-3.119,-3.119,-3.119,-3.119,-3.119,-3.119,-3.1799,-3.3136,-3.3339,-3.4049,-3.5385,-3.5537,-3.5622,-3.5622,-3.5622,-3.5622,-3.5577,-3.5052,-3.464,-3.4333,-3.2986,-3.2675,-3.3126,-3.311,-3.311,-3.3125,-3.3245,-3.3634,-3.4173,-3.4861,-3.5115,-3.4986,-3.4295,-3.4124,-3.3786,-3.2064,-3.1462,-3.1254,-3.0139,-2.9465,-2.9202,-2.9666,-2.9139,-2.8536,-2.8976,-2.8762,-2.8436,-2.8436,-2.8436,-2.8436,-2.8436,-2.8787,-2.9089,-2.9089,-2.8553,-2.8096,-2.8096,-2.6273,-2.487,-2.4919,-2.4349,-2.354,-2.2712,-2.293,-2.3135,-2.3135,-2.3135,-2.3135,-2.3135,-2.3135,-2.3174,-2.3262,-2.2997,-2.2546,-2.1931,-2.1671,-2.1045,-2.0087,-1.9369,-1.8883,-1.8746,-1.8039,-1.7702,-1.7762,-1.8016,-1.7842,-1.0236,0.0,0.0,-1.5119,-1.6644,-1.8048,0.0,0.0,-2.0665,-2.191,-2.2807,-2.3763,-2.508,-2.6961,-2.8623,-2.9456,-3.0218,-3.0673,-3.0495,-3.0494,-3.024,-2.9412,-2.9892,-3.0518,-3.1055,-3.1151,-3.119,-3.119,-3.119,-3.119,-3.119,-3.119,-3.1562,-3.2374,-3.3051,-3.3795,-3.4607,-3.5284,-3.5622,-3.5622,-3.5622,-3.5622,-3.5622,-3.5515,-3.4864,-3.3633,-3.2256,-3.1685,-3.1687,-3.1719,-3.1691,-3.175,-3.2392,-3.2677,-3.2811,-3.3484,-3.3724,-3.3799,-3.4256,-3.4435,-3.4189,-3.2849,-3.2464,-3.2105,-3.0355,-2.9741,-2.9704,-2.9779,-2.9704,-2.9616,-2.9679,-2.9641,-2.9603,-2.9603,-2.9603,-2.9603,-2.9603,-2.9654,-2.9691,-2.9691,-2.8809,-2.8096,-2.8096,-2.6273,-2.484,-2.4819,-2.3861,-2.3153,-2.3066,-2.3105,-2.3135,-2.3135,-2.3135,-2.3135,-2.3135,-2.3135,-2.3301,-2.3691,-2.2609,-2.2041,-2.2335,-2.119,-1.9958,-1.8746,-1.8885,-1.8592,-1.7738,-1.7842,-1.813,-1.839,-1.8424,-1.8263,-1.2797,0.0,0.0,0.0,-1.8522,-1.9918,-2.0696,-2.1672,-2.287,-2.4404,-2.5318,-2.6166,-2.7262,-2.8573,-2.9726,0.0,-3.097,-3.1105,-3.1024,-3.0972,-3.0866,-3.0476,-3.0658,-3.0781,-3.0699,-3.1015,-3.119,-3.119,-3.119,-3.119,-3.119,-3.1596,-3.2171,-3.2916,-3.366,-3.4387,-3.5131,-3.547,-3.5622,-3.5622,-3.5622,-3.5622,-3.5622,-3.5622,-3.4864,-3.3598,-3.2971,-3.2256,-3.1482,-3.1482,-3.1482,-3.1497,-3.1839,-3.1943,-3.2078,-3.311,-3.3499,-3.3468,-3.3191,-3.3089,-3.2846,-3.1268,-3.0962,-3.0956,-2.9643,-2.9528,-2.9792,-2.9792,-2.9792,-2.9792,-2.9792,-2.9792,-2.9792,-2.9792,-2.9792,-2.9792,-2.9792,-2.9792,-2.9792,-2.9792,-2.8858,-2.7924,-2.729,-2.587,-2.4542,-2.3877,-2.3387,-2.3135,-2.3135,-2.3135,-2.3135,-2.3135,-2.3359,-2.3516,-2.3516,-2.374,-2.3955,-2.4141,-2.2927,-2.1967,-2.1556,-2.0303,-1.913,-1.8016,-1.8234,-1.8335,-1.811,-1.841,-1.8711,-1.9005,-1.9005,-1.8938,-1.4296,0.0,0.0,-1.8574,-2.0419,-2.1767,-2.274,-2.389,-2.5019,-2.6246,-2.7088,-2.7854,-2.8839,-2.9504,-3.0269,-3.1351,-3.1402,-3.1306,-3.1388,-3.1225,-3.1141,-3.1202,-3.119,-3.1015,-3.0601,-3.0918,-3.119,-3.119,-3.119,-3.119,-3.119,-3.1884,-3.2628,-3.3389,-3.4117,-3.4861,-3.556,-3.5622,-3.5622,-3.5622,-3.5622,-3.5622,-3.5577,-3.5407,-3.48,-3.3836,-3.3479,-3.2718,-3.1796,-3.1582,-3.1482,-3.1482,-3.1482,-3.1482,-3.1644,-3.2602,-3.2961,-3.2855,-3.2357,-3.2072,-3.1625,-3.0201,-2.987,-2.9869,-2.8971,-2.9101,-2.9553,-2.9553,-2.9666,-2.9792,-2.9792,-2.9792,-2.9792,-2.9792,-2.9792,-2.9792,-2.9792,-2.9792,-2.9752,-2.9564,-2.8575,-2.7533,-2.6517,-2.5433,-2.4415,-2.3575,-2.3496,-2.3447,-2.333,-2.3418,-2.3496,-2.3496,-2.3769,-2.3965,-2.3965,-2.4238,-2.4473,-2.459,-2.3344,-2.2154,-2.1238,-1.9876,-1.8686,-1.7575,-1.7889,-1.8156,-1.837,-1.8744,-1.9032,-1.9245,-1.9332,-1.9366,-1.3558,0.0,-1.6439,-1.9849,-2.206,-2.37,-2.4672,-2.6088,-2.7067,-2.6634,-2.6949,-2.7683,-2.8794,-2.9002,-2.9566,-3.1219,-3.0952,-3.076,-3.1308,-3.0774,-3.0551,-3.1112,-3.119,-3.119,0.0,-3.119,-3.119,-3.119,-3.119,-3.119,-3.119,-3.1884,-3.2628,-3.3389,-3.4117,-3.4861,-3.556,-3.5622,-3.5622,-3.5622,-3.5622,-3.5622,-3.5577,-3.4941,-3.4624,-3.4479,-3.3182,-3.2602,-3.2492,-3.1796,-3.1482,-3.1482,-3.1482,-3.1482,-3.1482,-3.1526,-3.1541,-3.1631,-3.2258,-3.1926,-3.1166,-3.087,-3.0214,-2.935,-2.8401,-2.8511,-2.895,-2.895,-2.9365,-2.9792,-2.9792,-2.9792,-2.9792,-2.9792,-2.9792,-2.9792,-2.9792,-2.9792,-2.9605,-2.8937,-2.7934,-2.6896,-2.6256,-2.5179,-2.4375,-2.4375,-2.4375,-2.4228,-2.3828,-2.4121,-2.4375,-2.4375,-2.4385,-2.4394,-2.4394,-2.4414,-2.46,-2.5019,-2.3762,-2.2556,-2.1719,-2.0318,-1.9005,-1.7582,-1.7889,-1.805,-1.8063,-1.8644,-1.8925,-1.8945,-1.9232,-1.9366,-1.4211,0.0,-1.6859,-1.9883,-2.2115,-2.3677,-2.4386,-2.5949,-2.7231,-2.7042,-2.6553,-2.6499,-2.7516,-2.7773,-2.8535,-3.057,-3.0695,-3.088,-3.1898,-3.1041,-3.0518,-3.1151,-3.119,0.0,0.0,0.0,0.0,-3.119,-3.119,-3.119,-3.119,-3.2357,-3.3136,-3.3406,-3.459,-3.5368,-3.5622,-3.5622,-3.5622,-3.5622,-3.5622,-3.5622,-3.5577,-3.5362,-3.48,-3.3937,-3.3443,-3.2718,-3.1853,-3.1582,-3.1482,-3.1482,-3.1482,-3.1482,-3.1482,-3.1482,-3.1482,-3.1511,-3.1735,-3.1279,-3.0477,-2.9798,-2.928,-2.8664,-2.7817,-2.7946,-2.8386,-2.8386,-2.8524,-2.8762,-2.9126,-2.9214,-2.9315,-2.9691,-3.0068,-3.0082,-2.9302,-2.9419,-2.9367,-2.8236,-2.7745,-2.7206,-2.6262,-2.5754,-2.5412,-2.4898,-2.46,-2.4365,-2.4228,-2.4336,-2.4414,-2.4414,-2.4678,-2.4844,-2.4844,-2.5127,-2.5352,-2.5508,-2.3386,-2.2029,-2.1744,-1.9517,-1.8094,-1.7582,-1.7689,-1.7842,-1.805,-1.8243,-1.8544,-1.8925,-1.9025,-1.9178,-1.4824,-1.6169,-1.7156,-2.0303,-2.2038,-2.3268,-2.458,-2.597,-2.7185,-2.7498,-2.6691,-2.6229,-2.7108,-2.6886,-2.7244,-2.9225,-2.9645,-3.0101,-3.1196,-3.0672,-3.0456,-3.1117,-3.119,-3.119,0.0,0.0,0.0,-3.119,-3.119,-3.119,-3.119,-3.2611,-3.3406,-3.3406,-3.4844,-3.5622,-3.5622,-3.5622,-3.5622,-3.5622,-3.5622,-3.5622,-3.5622,-3.5622,-3.5005,-3.3937,-3.3684,-3.2917,-3.1853,-3.1582,-3.1482,-3.1482,-3.1482,-3.1482,-3.1482,-3.1482,-3.1482,-3.1482,-3.1482,-3.097,-3.0147,-2.9254,-2.8671,-2.8061,-2.7246,-2.7369,-2.7808,-2.7808,-2.7959,-2.8185,-2.8536,-2.8637,-2.8825,-2.9603,-3.0068,-3.0169,-2.9845,-2.9678,-2.9277,-2.824,-2.7646,-2.7097,-2.6126,-2.5982,-2.5805,-2.5359,-2.5068,-2.4883,-2.4883,-2.4883,-2.4883,-2.4883,-2.5137,-2.5303,-2.5303,-2.5566,-2.5528,-2.502,-2.3384,-2.1954,-2.0939,-1.9213,-1.8094,-1.7582,-1.7582,-1.7682,-1.7883,-1.7989,-1.8243,-1.8611,-1.8718,-1.8925,-1.5311,-1.6472,-1.7427,-2.1035,-2.1952,-2.2671,-2.5207,-2.617,-2.689,-2.779,-2.7143,-2.6678,0.0,0.0,-2.5932,-2.7444,-2.8155,-2.8782,-2.9512,-2.998,-3.0463,0.0,0.0,0.0,0.0,0.0,0.0,-3.119,0.0,-3.1207,-3.1241,-3.2628,-3.3423,-3.3457,-3.4861,-3.5622,-3.5622,-3.5622,-3.5622,-3.5622,-3.5622,-3.5622,-3.5622,-3.5622,-3.5253,-3.4576,-3.3937,-3.3235,-3.2547,-3.1853,-3.1524,-3.1482,-3.1482,-3.1482,-3.1482,-3.1482,-3.1482,-3.1482,-3.1482,-3.097,-3.0072,-2.9254,-2.8363,-2.7484,-2.6714,-2.6829,-2.7243,-2.7243,-2.7645,-2.8059,-2.8059,-2.8109,-2.8411,-2.9503,-2.9792,-3.0105,-3.1041,-3.0348,-2.932,-2.8667,-2.7527,-2.6423,-2.5848,-2.5742,-2.5742,-2.5742,-2.5742,-2.5742,-2.5742,-2.5742,-2.5742,-2.5742,-2.5742,-2.5635,-2.5635,-2.5635,-2.502,-2.3692,-2.3484,-2.2366,-1.9731,-1.9524,-1.8916,-1.7582,-1.7582,-1.7582,-1.7582,-1.7883,-1.8029,-1.8056,-1.835,-1.8644,-1.5726,-1.7329,-1.8774,-2.0556,-2.1441,-2.2616,-2.4842,-2.5978,-2.6685,-2.6889,-2.6,-2.5103,0.0,0.0,0.0,-2.8732,-3.0417,0.0,-3.228,-3.2008,0.0,-3.1241,0.0,-3.119,-3.119,-3.119,0.0,0.0,-3.119,-3.1427,-3.1968,-3.2899,-3.366,-3.4201,-3.5131,-3.5622,-3.5622,-3.5622,-3.5622,-3.5622,-3.5622,-3.5622,-3.5622,-3.5622,-3.5253,-3.4576,-3.4431,-3.3684,-3.2602,-3.2382,-3.2007,-3.1482,-3.1482,-3.1482,-3.1482,-3.1482,-3.1482,-3.1482,-3.1482,-3.0524,-2.9317,-2.9066,-2.7986,-2.6782,-2.6589,-2.6634,-2.6666,-2.6666,-2.7067,-2.7494,-2.7494,-2.8109,-2.8787,-2.9076,-2.9792,-3.0219,-2.9622,-2.9168,-2.8511,-2.7393,-2.6525,-2.5875,-2.5713,-2.5742,-2.5742,-2.5742,-2.5742,-2.5742,-2.5742,-2.5742,-2.5742,-2.5742,-2.5742,-2.5323,-2.4304,-2.4196,-2.3692,-2.2257,-2.1253,-2.0341,-1.9627,-1.8603,-1.7996,-1.7582,-1.7582,-1.7582,-1.7582,-1.7662,-1.7822,-1.8056,-1.835,-1.8644,-1.6218,-1.7497,-1.863,-2.0235,-2.1011,-2.1828,-2.3663,-2.4539,-2.505,-2.5629,-2.4669,0.0,0.0,0.0,0.0,0.0,0.0,0.0,-3.1967,-3.1931,-3.171,0.0,-3.1816,0.0,-3.1983,-3.229,-3.2417,0.0,-3.1867,-3.185,-3.2256,-3.3305,-3.4066,-3.4472,-3.5233,-3.5622,-3.5622,-3.5622,-3.5622,-3.5622,-3.5622,-3.5622,-3.5622,-3.5622,-3.5253,-3.4576,-3.4576,-3.3987,-3.3002,-3.2749,-3.2382,-3.1951,-3.164,-3.1482,-3.1482,-3.1482,-3.1482,-3.1482,-3.1482,-3.0644,-2.9504,-2.9129,-2.8117,-2.7011,-2.688,-2.6816,-2.6866,-2.7118,-2.7406,-2.7645,-2.7645,-2.8109,-2.8699,-2.9189,-2.9792,-3.004,-2.9402,-2.874,-2.7876,-2.63,-2.5729,-2.5508,-2.5703,-2.5742,-2.5742,-2.5742,-2.5742,-2.5742,-2.5742,-2.5742,-2.5742,-2.5742,-2.5742,-2.5128,-2.3791,-2.3692,-2.2868,-2.0939,-2.0033,-1.9324,-1.8708,-1.7989,-1.7649,-1.7782,-1.7649,-1.7716,-1.7983,-1.7849,-1.7943,-1.8243,-1.841,-1.8644,-1.6903,-1.7658,-1.8221,-2.0157,-2.0712,-2.111,-2.2396,-2.273,-2.3052,-2.4122,0.0,-2.2419,-2.358,-2.3671,-2.4318,-2.665,0.0,-2.9835,-3.0683,-3.112,-3.1487,-3.1908,-3.2624,-3.3149,-3.3236,-3.39,-3.4068,-3.3556,-3.307,-3.2747,-3.2618,-3.3863,-3.4609,-3.4641,-3.5284,-3.5622,-3.5622,-3.5622,-3.5622,-3.5622,-3.5622,-3.5622,-3.5622,-3.5622,-3.5299,-3.4736,-3.4736,-3.4333,-3.3684,-3.2986,-3.2695,-3.2547,-3.1796,-3.1482,-3.1482,-3.1482,-3.1482,-3.1482,-3.1571,-3.1028,-3.0125,-2.9282,-2.8481,-2.7747,-2.7399,-2.7331,-2.7494,-2.7971,-2.816,-2.8197,-2.8122,-2.821,-2.8561,-2.9465,-2.9741,-2.9795,-2.9794,-2.8738,-2.7272,-2.5341,-2.498,-2.5127,-2.5566,-2.5644,-2.5674,-2.5723,-2.5742,-2.5742,-2.5742,-2.5742,-2.5742,-2.5742,-2.5538,-2.4913,-2.3583,-2.3329,-2.2139,-1.9598,-1.9427,-1.8941,-1.7808,-1.7702,-1.7829,-1.8096,-1.7842,-1.7963,-1.849,-1.823,-1.8237,-1.849,-1.8531,-1.8684,-1.8346,-1.9362,-2.0157,-2.0489,-2.1145,-2.1912,-2.254,-2.296,0.0,0.0,0.0,-2.1078,-2.1418,-2.2352,-2.4365,-2.8405,0.0,0.0,0.0,0.0,-3.231,0.0,0.0,0.0,0.0,-3.4695,0.0,0.0,-3.4871,-3.4979,-3.4143,-3.4785,-3.5256,-3.5402,-3.5554,-3.5622,-3.5622,-3.5622,-3.5622,-3.5622,-3.5622,-3.5622,-3.5622,-3.5622,-3.5532,-3.5424,-3.5424,-3.5052,-3.4382,-3.3684,-3.3093,-3.2547,-3.1796,-3.1482,-3.1482,-3.1482,-3.1482,-3.1556,-3.2153,-3.1246,-2.9794,-2.9154,-2.8673,-2.8232,-2.7513,-2.7607,-2.7984,-2.8084,-2.8436,-2.8687,-2.8222,-2.88,-2.9428,-2.9151,-2.9453,-2.9764,-2.9783,-2.848,-2.6693,-2.4894,-2.4531,-2.4668,-2.5107,-2.5185,-2.5312,-2.5684,-2.5742,-2.5742,-2.5742,-2.5742,-2.5742,-2.5742,-2.4716,-2.3484,-2.2156,-2.1211,-2.0039,-1.8386,-1.8517,-1.855,-1.833,-1.8337,-1.8357,-1.841,-1.8357,-1.8384,-1.849,-1.8437,-1.8437,-1.8497,-1.8738,-1.8878,-1.9464,-2.009,-2.073,-2.1811,-2.2038,-2.2009,-2.2128,0.0,0.0,0.0,0.0,-1.9908,-2.0333,0.0,0.0,-2.745,0.0,0.0,0.0,0.0,0.0,0.0,0.0,0.0,0.0,-3.6217,-3.6257,-3.5814,-3.6282,-3.611,-3.4981,-3.5531,-3.5803,-3.5605,-3.5622,-3.5622,-3.5622,-3.5622,-3.5622,-3.5622,-3.5622,-3.5622,-3.5622,-3.5622,-3.5622,-3.5622,-3.5622,-3.5207,-3.4528,-3.3887,-3.3182,-3.2547,-3.1796,-3.1482,-3.1482,-3.1482,-3.1482,-3.1571,-3.2287,-3.1605,-3.0431,-3.0058,-2.9201,-2.828,-2.8192,-2.8323,-2.8599,-2.89,-2.9176,-2.9315,-2.9051,-2.939,-2.9729,-2.9453,-2.8687,-2.7879,-2.729,-2.6056,-2.4846,-2.4175,-2.4092,-2.4228,-2.4658,-2.4727,-2.4805,-2.5019,-2.5244,-2.5391,-2.5391,-2.4985,-2.4922,-2.5635,-2.4588,-2.3375,-2.2042,-2.0922,-1.9751,-1.8386,-1.841,-1.849,-1.849,-1.849,-1.8564,-1.8718,-1.8564,-1.8637,-1.8945,-1.8791,-1.8798,-1.8951,-1.9085,-1.8679,-2.0698,-2.1044,-2.1435,-2.3062,-2.3073,-2.2462,-2.1678,-2.0673,0.0,0.0,-1.8719,-1.8901,-1.9737,0.0,-2.3747,0.0,-2.8646,-3.0854,0.0,0.0,0.0,0.0,0.0,0.0,0.0,-3.7703,0.0,-3.7396,-3.736,-3.687,-3.5771,-3.6128,-3.6224,-3.5766,-3.565,-3.5622,-3.5622,-3.5622,-3.5622,-3.5622,-3.5622,-3.5622,-3.5622,-3.5622,-3.5622,-3.5622,-3.5622,-3.5207,-3.4528,-3.3887,-3.3182,-3.2547,-3.1796,-3.1482,-3.1497,-3.1631,-3.1676,-3.1854,-3.2662,-3.2138,-3.1183,-3.1193,-3.0011,-2.8568,-2.8862,-2.9013,-2.9202,-2.9666,-2.9792,-2.9792,-2.9792,-2.9792,-2.9714,-2.9456,-2.7959,-2.6224,-2.5041,-2.4135,-2.3485,-2.3673,-2.3652,-2.3789,-2.4209,-2.4277,-2.4316,-2.4404,-2.4707,-2.4922,-2.4922,-2.4035,-2.3877,-2.4975,-2.3989,-2.2825,-2.1796,-2.0703,-1.9761,-1.8689,-1.8644,-1.8677,-1.8677,-1.8677,-1.8784,-1.9011,-1.8798,-1.8905,-1.9366,-1.9132,-1.9017,-1.8887,-1.8887,-1.8046,-2.2431,-2.3209,-2.3283,-2.3441,-2.412,-2.4049,-2.1549,0.0,0.0,-1.8689,-1.785,-1.7962,-1.9603,-2.0387,0.0,0.0,-2.645,-2.7881,0.0,0.0,0.0,0.0,0.0,0.0,0.0,-3.8572,-3.8433,-3.7877,-3.7843,-3.7613,-3.7029,-3.6649,-3.6392,-3.6333,-3.5854,-3.5622,-3.5622,-3.5622,-3.5622,-3.5622,-3.5622,-3.5622,-3.5622,-3.5622,-3.5622,-3.5622,-3.5622,-3.5207,-3.4528,-3.3887,-3.3182,-3.2547,-3.1796,-3.1482,-3.1541,-3.2198,-3.2422,-3.2602,-3.3858,-3.3115,-3.164,-3.2234,-3.1361,-2.9907,-2.9125,-2.9302,-2.9729,-2.9779,-2.9792,-2.9792,-2.9792,-2.9792,-2.9534,-2.8518,-2.7371,-2.6224,-2.5041,-2.4702,-2.4392,-2.3359,-2.3193,-2.334,-2.3769,-2.3848,-2.3975,-2.4365,-2.4453,-2.4473,-2.4473,-2.3458,-2.2849,-2.3211,-2.1587,-2.0438,-2.0332,-1.9519,-1.8991,-1.8885,-1.9138,-1.9285,-1.9285,-1.9285,-1.9299,-1.9325,-1.9299,-1.9312,-1.9366,-1.9339,-1.8622,-1.7202,-1.7202,-1.6374,-2.375,-2.4409,-2.4552,-2.5134,-2.4417,-2.3269,-2.2412,0.0,0.0,-1.8759,-1.8453,-1.8503,-1.9161,-2.0229,-2.1734,-2.4099,-2.5709,-2.7537,-2.9985,0.0,0.0,0.0,0.0,0.0,0.0,0.0,-3.8465,-3.7946,-3.7893,-3.7825,-3.7649,-3.7433,-3.7155,-3.6882,-3.6374,-3.6097,-3.6097,-3.5783,-3.5622,-3.5622,-3.5622,-3.5622,-3.5622,-3.5622,-3.5622,-3.5622,-3.5622,-3.5005,-3.3987,-3.3735,-3.2917,-3.191,-3.164,-3.1482,-3.1556,-3.2273,-3.2512,-3.2706,-3.4023,-3.3223,-3.1736,-3.24,-3.1389,-2.9871,-2.9517,-2.9616,-2.9792,-2.9792,-2.9792,-2.9792,-2.9792,-2.9792,-2.9378,-2.7533,-2.6801,-2.5975,-2.4135,-2.38,-2.3637,-2.3222,-2.3135,-2.3193,-2.3369,-2.3398,-2.3457,-2.3623,-2.3867,-2.376,-2.3009,-2.2066,-2.1109,-2.0484,-2.0215,-2.021,-2.029,-1.9612,-1.9192,-1.9192,-1.9299,-1.9366,-1.9366,-1.9366,-1.9366,-1.9366,-1.9366,-1.9366,-1.9366,-1.8402,-1.7683,-1.6968,-1.602,-1.4718,-2.4405,-2.5211,-2.5545,-2.6102,-2.46,-2.286,0.0,0.0,0.0,-1.8879,-1.891,-1.8991,-1.9251,-2.0335,-2.1708,-2.3151,-2.5053,-2.6966,-2.8735,-3.0206,0.0,0.0,0.0,-3.5652,0.0,-3.8432,-3.8546,-3.8183,-3.815,-3.8065,-3.7893,-3.7893,-3.7755,-3.7433,-3.6764,-3.6374,-3.6374,-3.5854,-3.5622,-3.5622,-3.5622,-3.5622,-3.5622,-3.5622,-3.5622,-3.5622,-3.5622,-3.4958,-3.3887,-3.3684,-3.2933,-3.1796,-3.1582,-3.1482,-3.1556,-3.2273,-3.2647,-3.29,-3.3817,-3.314,-3.1901,-3.2099,-3.1132,-2.9792,-2.9792,-2.9792,-2.9792,-2.9792,-2.9792,-2.9792,-2.9792,-2.93,-2.8462,-2.6894,-2.5975,-2.5062,-2.3474,-2.3135,-2.3135,-2.3135,-2.3135,-2.3135,-2.3135,-2.3135,-2.296,-2.2589,-2.2837,-2.2659,-2.1378,-2.0389,-1.9486,-1.8724,-1.8869,-1.9237,-1.965,-1.9305,-1.9145,-1.9232,-1.9319,-1.9366,-1.9366,-1.9366,-1.9366,-1.9366,-1.9366,-1.9366,-1.9366,-1.8279,-1.7208,-1.6256,-1.5079,-1.3526,-2.4263,-2.5636,-2.6314,-2.5749,-2.4795,-2.3523,0.0,0.0,0.0,-1.9009,-1.8893,-1.9177,-2.0093,-2.0698,-2.1633,-2.3572,-2.4242,-2.5558,-2.8569,-2.9316,0.0,0.0,0.0,-3.3973,-3.6127,-3.7771,-3.8707,-3.8707,-3.8707,-3.8465,-3.7946,-3.7893,-3.7911,-3.7893,-3.6943,-3.6374,-3.6374,-3.5854,-3.5622,-3.5622,-3.5622,-3.5622,-3.5622,-3.5622,-3.5622,-3.5622,-3.5622,-3.5207,-3.4528,-3.3887,-3.3182,-3.2547,-3.1796,-3.1482,-3.1556,-3.2273,-3.2931,-3.3451,-3.318,-3.2885,-3.2451,-3.1523,-3.0558,-2.9792,-2.9792,-2.9792,-2.9792,-2.9792,-2.9792,-2.9792,-2.9792,-2.8211,-2.6565,-2.6483,-2.4808,-2.3135,-2.3144,-2.3135,-2.3135,-2.3135,-2.3135,-2.3135,-2.3135,-2.3135,-2.2677,-2.148,-2.1302,-2.0845,-1.9679,-1.8511,-1.7946,-1.8491,-1.7399,-1.6954,-1.7542,-1.815,-1.8617,-1.8911,-1.9205,-1.9366,-1.9366,-1.9366,-1.9366,-1.9366,-1.9366,-1.9366,-1.9366,-1.9366,-1.7695,-1.4604,-1.4604,-1.2933,-2.2639,-2.3361,-2.3669,-2.3863,-2.275,-2.1643,-2.1458,0.0,-1.9711,-1.9827,-2.0128,-2.0434,-2.0715,-2.1102,-2.1951,-2.3638,-2.4225,-2.52,0.0,0.0,0.0,-3.2438,-3.5178,-3.718,0.0,0.0,-3.8707,-3.8707,-3.835,-3.8234,-3.8433,-3.7791,-3.7433,-3.7433,-3.6764,-3.6374,-3.6374,-3.5854,-3.5622,-3.5622,-3.5622,-3.5622,-3.5622,-3.5622,-3.5622,-3.5577,-3.5098,-3.4544,-3.3887,-3.3182,-3.2477,-3.1853,-3.1582,-3.1809,-3.2273,-3.2946,-3.3604,-3.4262,-3.4599,-3.3815,-3.2522,-3.2249,-3.1057,-2.9792,-2.9792,-2.9792,-2.9792,-2.9792,-2.9792,-2.9792,-2.9792,-2.87,-2.7452,-2.6637,-2.5389,-2.4049,-2.3299,-2.3135,-2.3135,-2.3135,-2.3135,-2.3135,-2.3135,-2.3135,-2.296,-2.2589,-2.1845,-2.0845,-1.967,-1.8411,-1.7391,-1.6745,-1.6292,-1.6593,-1.7796,-1.8076,-1.831,-1.8611,-1.8718,-1.8771,-1.8771,-1.8958,-1.9065,-1.9065,-1.8184,-1.7806,-1.78,-1.5542,-1.3402,-1.1378,-1.1378,-1.0781,-2.147,-2.2256,-2.2604,-2.275,-2.1663,0.0,0.0,0.0,-1.9728,-2.0196,-2.0682,-2.1055,-2.1213,-2.143,-2.2167,-2.3847,-2.4458,-2.5449,0.0,0.0,0.0,-3.2925,0.0,0.0,0.0,-3.834,-3.8707,-3.8707,-3.8382,-3.8267,-3.8382,-3.7632,-3.7114,-3.6921,-3.6563,-3.6374,-3.6374,-3.5854,-3.5622,-3.5622,-3.5622,-3.5622,-3.5622,-3.5622,-3.5622,-3.5577,-3.5161,-3.4592,0.0,-3.352,-3.2819,-3.1955,-3.2195,-3.2377,-3.2587,-3.3245,-3.3716,-3.3991,-3.3995,-3.3196,-3.2033,-3.1696,-3.0784,-2.9792,-2.9792,-2.9792,-2.9792,-2.9792,-2.9792,-2.9702,-2.9275,-2.8359,-2.7197,-2.613,-2.4967,-2.3963,-2.3212,-2.3135,-2.3135,-2.3135,-2.3135,-2.3135,-2.3135,-2.2677,-2.2315,-2.1774,-2.0674,-1.9488,-1.8303,-1.749,-1.6711,-1.6074,-1.5899,-1.6293,-1.7442,-1.7642,-1.7883,-1.8297,-1.843,-1.849,-1.849,-1.8084,-1.7936,-1.7936,-1.6592,-1.5853,-1.5853,-1.3367,-1.1671,-1.066,-1.0061,-0.9822,0.0,-2.201,-2.2682,-2.2228,-2.1328,-2.0554,-2.0584,-2.0103,0.0,-2.0299,-2.0748,-2.1229,-2.1598,-2.1691,-2.2355,-2.4239,-2.4883,-2.6248,0.0,-3.0594,0.0,0.0,-3.555,0.0,-3.6541,-3.7863,-3.8707,-3.8707,-3.8707,-3.8496,-3.798,-3.7506,-3.6999,-3.6457,-3.6416,-3.6374,-3.6333,-3.5854,-3.5622,-3.5622,-3.5622,-3.5622,-3.5622,-3.5622,-3.5622,-3.5622,-3.556,-3.5195,-3.4611,-3.4558,-3.377,-3.2699,-3.3306,-3.3155,-3.2721,-3.3335,-3.3446,-3.3125,-3.2123,-3.1572,-3.1106,-3.0139,-2.9792,-2.9792,-2.9792,-2.9792,-2.9792,-2.9792,-2.9792,-2.9534,-2.8426,-2.7279,-2.6224,-2.5041,-2.3963,-2.3135,-2.3135,-2.3135,-2.3135,-2.3135,-2.3135,-2.3047,-2.296,-2.2031,-2.0935,-1.967,-1.8503,-1.7225,-1.6109,-1.5832,-1.5939,-1.6213,-1.5999,-1.6059,-1.6627,-1.6947,-1.7361,-1.7949,-1.8147,-1.8307,-1.8307,-1.6839,-1.6157,-1.6157,-1.4703,-1.3922,-1.3808,-1.24,-1.1883,-1.1935,-1.0507,-0.9788,-1.9837,0.0,-1.9976,-2.026,-2.0105,-2.0003,0.0,-2.0531,-2.0797,-2.1228,-2.1675,-2.202,-2.2106,-2.2589,-2.3393,-2.4735,-2.549,-2.6946,-2.9753,0.0,0.0,-3.8163,-3.8267,-3.8377,-3.8982,-3.8836,-3.8707,-3.8707,-3.8707,-3.8627,-3.8515,-3.8032,-3.7506,-3.7038,-3.6603,-3.6224,-3.5783,-3.565,-3.5622,-3.5622,-3.5622,-3.5622,-3.5622,-3.5622,-3.5622,-3.5577,-3.5052,-3.4759,-3.4555,-3.3967,-3.3567,-3.3291,-3.3426,-3.3709,-3.4038,-3.4188,-3.4539,-3.4779,-3.3811,-3.2905,-3.196,-3.0355,-2.9792,-2.9792,-2.9792,-2.9792,-2.9792,-2.9792,-2.9792,-2.9534,-2.8426,-2.7279,-2.6224,-2.5041,-2.3963,-2.3135,-2.3135,-2.3135,-2.3135,-2.3135,-2.3135,-2.2775,-2.1845,-2.148,-2.0935,-1.967,-1.8503,-1.7598,-1.7318,-1.6386,-1.5852,-1.5925,-1.5872,-1.5979,-1.6346,-1.664,-1.6967,-1.7335,-1.6549,-1.615,-1.615,-1.4905,-1.4335,-1.4335,-1.3055,-1.1778,-1.052,-1.0218,-1.0026,-1.0065,-0.9717,-0.9486,-1.9603,-1.9479,-1.9332,-1.9631,-1.9708,-1.9818,-2.0227,-2.0649,-2.1118,-2.1521,-2.1957,-2.2412,-2.275,-2.3278,-2.4093,-2.538,-2.6834,0.0,0.0,0.0,-3.5688,-3.7991,-3.7863,-3.8065,0.0,-3.8964,-3.8707,-3.8707,-3.8707,-3.8707,-3.8707,-3.8183,-3.779,-3.7542,-3.6786,-3.6139,-3.5622,-3.5622,-3.5622,-3.5622,-3.5622,-3.5622,-3.5622,-3.5622,-3.5622,-3.5577,-3.5207,-3.5069,-3.5072,-3.4666,-3.4317,-3.4075,-3.4345,-3.4442,-3.4517,-3.4831,-3.4596,-3.4124,-3.3533,-3.2464,-3.1132,-3.0152,-2.9792,-2.9792,-2.9792,-2.9792,-2.9702,-2.9197,-2.9028,-2.8609,-2.7023,-2.6119,-2.5462,-2.4296,-2.3551,-2.3135,-2.3135,-2.3135,-2.3135,-2.3135,-2.3135,-2.2677,-2.148,-2.0845,-2.0034,-1.8864,-1.7584,-1.6857,-1.6857,-1.6204,-1.5832,-1.5832,-1.5832,-1.5892,-1.6052,-1.5731,-1.6066,-1.7121,-1.6669,-1.6068,-1.5417,-1.4136,-1.2893,-1.1475,-1.0803,-1.0111,-0.9276,-0.9276,-0.9313,-0.9381,-0.9381,-0.9381,-1.9782,-1.9969,-2.0074,-1.9827,-1.9782,-1.9909,-2.0382,-2.0813,-2.1245,-2.1777,-2.2199,-2.2699,-2.3498,-2.4035,-2.4798,-2.6155,0.0,0.0,-3.3817,-3.4394,-3.511,-3.667,-3.6743,0.0,-3.8744,-3.8781,-3.8707,-3.8707,-3.8707,-3.8707,-3.8707,-3.8267,-3.798,-3.7893,-3.702,-3.6249,-3.5739,-3.5667,-3.5622,-3.5622,-3.5622,-3.5622,-3.5622,-3.5622,-3.5622,-3.5622,-3.5622,-3.5646,-3.5693,-3.5632,-3.5313,-3.4845,-3.5296,-3.5145,-3.4696,-3.5295,-3.4491,-3.3031,-3.2678,-3.1341,-2.9792,-2.9792,-2.9792,-2.9792,-2.9792,-2.9702,-2.9275,-2.8176,-2.8004,-2.7591,-2.5619,-2.4957,-2.4542,-2.3387,-2.3135,-2.3135,-2.3135,-2.296,-2.2862,-2.2862,-2.2687,-2.2129,-2.0935,-1.9943,-1.8772,-1.7591,-1.648,-1.5832,-1.5832,-1.5832,-1.5832,-1.5832,-1.5635,-1.5534,-1.5534,-1.4607,-1.4754,-1.6356,-1.658,-1.5913,-1.4443,-1.3264,-1.1428,-0.8937,-0.894,-0.8998,-0.912,-0.912,-0.9188,-0.9313,-0.9313,-0.9313,-2.0124,-2.1146,-2.1823,-2.0539,-2.0227,-2.0416,-2.1228,-2.146,-2.184,-2.2895,-2.3194,-2.3561,-2.4637,-2.5398,-2.6142,0.0,0.0,-3.3808,0.0,0.0,-3.8303,-3.9239,0.0,-3.8707,-3.9625,-3.9093,-3.8707,-3.8707,-3.8707,-3.8707,-3.8707,-3.8627,-3.8382,-3.7893,-3.736,-3.6843,-3.6291,-3.5827,-3.5622,-3.5622,-3.5622,-3.5622,-3.5622,-3.5622,-3.5622,-3.5622,-3.5622,-3.5595,-3.562,-3.5623,-3.5474,-3.5398,-3.5494,-3.5444,-3.5355,-3.5474,-3.5294,-3.4854,-3.3185,-3.1341,-2.9792,-2.9792,-2.9792,-2.9792,-2.9792,-2.9118,-2.8108,-2.7046,-2.7371,-2.7844,-2.6543,-2.5546,-2.4542,-2.3387,-2.3135,-2.3135,-2.3135,-2.2325,-2.1596,-2.1578,-2.0755,-1.9679,-1.8503,-1.8141,-1.7591,-1.6292,-1.592,-1.5832,-1.5832,-1.5832,-1.5832,-1.5832,-1.4848,-1.4166,-1.4166,-1.3232,-1.2809,-1.3084,-1.2343,-1.1362,-0.9908,-0.9699,-0.9372,-0.894,-0.894,-0.895,-0.8971,-0.8971,-0.8984,-0.9005,-0.9005,-0.9005,-2.0246,-2.0986,-2.1909,-2.2662,-2.2959,-2.3327,-2.4393,-2.4628,-2.4747,-2.5122,-2.5169,-2.5309,-2.5628,-2.6877,-2.8774,-3.171,0.0,-3.4394,-3.6064,-3.6156,-3.6523,0.0,0.0,-3.7881,-3.9129,-3.8927,-3.8707,-3.8707,-3.8707,-3.8707,-3.8707,-3.8433,-3.8132,-3.7893,-3.7173,-3.6643,-3.6416,-3.5854,-3.5622,-3.5622,-3.5622,-3.5622,-3.5622,-3.5622,-3.5859,-3.6248,-3.578,-3.6075,-3.6707,-3.5894,-3.5747,-3.6054,-3.5683,-3.5504,-3.5424,-3.4905,-3.4341,-3.3754,-3.2321,-3.0908,-2.9792,-2.9792,-2.9792,-2.9792,-2.9792,-2.9443,-2.8779,-2.7695,-2.686,-2.6025,-2.4967,-2.4296,-2.3714,-2.3222,-2.3135,-2.3135,-2.3135,-2.2687,-2.205,-2.1391,-2.0845,-1.9852,-1.8048,-1.7692,-1.7225,-1.6015,-1.5832,-1.5832,-1.5832,-1.5242,-1.4752,-1.4752,-1.359,-1.2813,-1.2813,-1.1742,-1.1554,-1.271,-1.1567,-1.0696,-1.0123,-0.9372,-0.894,-0.894,-0.894,-0.894,-0.894,-0.894,-0.894,-0.894,-0.895,-0.8846,-2.0449,-2.1067,-2.2232,-2.4564,-2.4952,-2.5281,-2.7184,-2.7344,-2.7167,-2.7433,-2.7572,-2.7519,-2.7051,-2.84,0.0,-3.5044,-3.4963,-3.4963,-3.6633,-3.5752,-3.5422,-3.6707,-3.6853,-3.7349,-3.8579,-3.8707,-3.8707,-3.8707,-3.8707,-3.8707,-3.8707,-3.8183,-3.7893,-3.7893,-3.6943,-3.6374,-3.6374,-3.5854,-3.5622,-3.5622,-3.5622,-3.5622,-3.5622,-3.5808,-3.6214,-3.6789,-3.632,-3.6786,-3.7695,-3.6353,-3.6131,-3.6554,-3.5782,-3.5504,-3.5359,-3.4394,-3.338,-3.2464,-3.1536,-3.0558,-2.9792,-2.9792,-2.9792,-2.9792,-2.9792,-2.9456,-2.887,-2.7936,-2.6108,-2.4296,-2.3637,-2.3299,-2.3135,-2.3135,-2.3135,-2.3047,-2.2765,-2.2501,-2.1863,-2.0666,-2.0206,-1.9389,-1.7591,-1.7225,-1.6943,-1.592,-1.554,-1.5343,-1.5343,-1.4268,-1.3392,-1.3392,-1.2237,-1.1361,-1.0974,-1.0096,-1.0196,-1.1803,-1.0983,-1.0465,-1.0498,-0.946,-0.894,-0.894,-0.894,-0.894,-0.894,-0.894,-0.894,-0.894,-0.8846,-0.8856,-2.0829,-2.2297,-2.3984,-2.526,-2.4196,-2.3951,-2.7971,-2.7755,-2.7333,-2.9431,-3.0209,-3.0265,-2.9418,-3.007,-3.1483,-3.3625,-3.5183,-3.6688,-3.8303,0.0,-3.8395,-3.8505,-3.8542,-3.8579,-3.8689,-3.8707,-3.8707,-3.8707,-3.8707,-3.8707,-3.8707,-3.8183,-3.7893,-3.7893,-3.6943,-3.6374,-3.6374,-3.5854,-3.5622,-3.5622,-3.5622,-3.5622,-3.5639,-3.6366,-3.6721,-3.6823,-3.7469,-3.7769,-3.7748,-3.6917,-3.6632,-3.6554,-3.5782,-3.5504,-3.5359,-3.4394,-3.338,-3.2464,-3.1536,-3.0558,-2.9792,-2.9792,-2.9792,-2.9792,-2.9792,-2.8383,-2.673,-2.6648,-2.4978,-2.3474,-2.4457,-2.3877,-2.3135,-2.3135,-2.3135,-2.2775,-2.1658,-2.0576,-1.9405,-1.8234,-1.703,-1.6103,-1.6015,-1.592,-1.5927,-1.5825,-1.4752,-1.407,-1.407,-1.2909,-1.2042,-1.2042,-1.0877,-0.9608,-0.8432,-0.8237,-0.8313,-0.8593,-0.8769,-0.8821,-0.8831,-0.8862,-0.894,-0.894,-0.894,-0.894,-0.894,-0.894,-0.894,-0.894,-0.894,-0.8954,-2.1337,-2.3124,-2.5161,-2.6066,-2.6101,-2.679,-3.0277,-3.0581,-3.0683,-3.2459,-3.2887,-3.2703,-3.1991,0.0,-3.4493,-3.5229,-3.6725,-3.801,-3.8615,-3.8707,-3.8707,-3.8707,-3.8707,-3.8707,-3.8707,-3.8707,-3.8707,-3.8707,-3.8707,-3.8707,-3.8707,-3.7929,-3.747,-3.747,-3.644,-3.5898,-3.5898,-3.5694,-3.5622,-3.5622,-3.5622,-3.5622,-3.5639,-3.6417,-3.7043,-3.7469,-3.7265,-3.7373,-3.7689,-3.644,-3.5966,-3.5894,-3.5619,-3.5504,-3.5359,-3.4394,-3.338,-3.2464,-3.1536,-3.0558,-2.9792,-2.9792,-2.9287,-2.8767,-2.8767,-2.7706,-2.6307,-2.563,-2.4798,-2.4125,-2.38,-2.3377,-2.295,-2.2129,-2.1943,-2.1667,-2.0486,-1.9852,-1.9131,-1.7956,-1.7318,-1.6763,-1.592,-1.5832,-1.5832,-1.5832,-1.5439,-1.4752,-1.3974,-1.2716,-1.1556,-1.0779,-0.9509,-0.8528,-0.8038,-0.8038,-0.8065,-0.8123,-0.8319,-0.852,-0.8703,-0.8767,-0.8842,-0.8937,-0.894,-0.894,-0.894,-0.894,-0.894,-0.894,-0.8856,-0.8876,-2.1892,-2.3393,-2.5253,-2.6691,-2.7435,-2.867,-3.1901,-3.2273,-3.2557,-3.4678,-3.4805,-3.4473,-3.4286,-3.5309,0.0,0.0,-3.7661,-3.8707,-3.8707,-3.8707,-3.8707,-3.8707,-3.8707,-3.8707,-3.8707,-3.8707,-3.8707,-3.8707,-3.8707,-3.8627,-3.8465,-3.7667,-3.7097,-3.696,-3.6097,-3.5622,-3.5622,-3.5622,-3.574,-3.5994,-3.5994,-3.5994,-3.6011,-3.6789,-3.755,-3.8246,-3.7658,-3.7681,-3.8019,-3.6461,-3.5733,-3.5504,-3.5504,-3.5294,-3.492,-3.3891,-3.2961,-3.2033,-3.1119,-3.0343,-2.9792,-2.9792,-2.9028,-2.8096,-2.8096,-2.7105,-2.5797,-2.5041,-2.4542,-2.4049,-2.3299,-2.3135,-2.2862,-2.2031,-2.1569,-2.0935,-1.9761,-1.9222,-1.8588,-1.7311,-1.7131,-1.685,-1.592,-1.5832,-1.5635,-1.5242,-1.4854,-1.4076,-1.2807,-1.1453,-1.0288,-0.9509,-0.8528,-0.8038,-0.8038,-0.8038,-0.8038,-0.8038,-0.814,-0.833,-0.8625,-0.8682,-0.8781,-0.8933,-0.894,-0.8944,-0.895,-0.895,-0.8954,-0.885,-0.888,-0.8897,-2.2516,-2.3059,-2.4154,-2.7046,-2.7823,-2.882,-3.256,-3.2273,-3.2213,-3.5687,-3.585,-3.5533,-3.6188,-3.6164,0.0,-3.6278,-3.7661,-3.8707,-3.8707,-3.8707,-3.8707,-3.8707,-3.8707,-3.8707,-3.8707,-3.8707,-3.8707,-3.8707,-3.8707,-3.8465,-3.7946,-3.747,-3.6943,-3.6416,-3.5898,-3.5622,-3.5622,-3.5622,-3.6011,-3.6772,-3.6772,-3.6772,-3.6823,-3.7567,-3.8311,-3.8973,-3.8894,-3.8908,-3.8745,-3.7247,-3.6165,-3.5504,-3.5504,-3.4905,-3.3876,-3.2961,-3.2033,-3.1031,-3.0139,-2.9792,-2.9792,-2.9792,-2.9028,-2.8084,-2.8084,-2.6521,-2.4787,-2.4787,-2.3963,-2.3135,-2.3057,-2.3047,-2.3047,-2.3047,-2.212,-2.0935,-1.9761,-1.8503,-1.7318,-1.6015,-1.5832,-1.5832,-1.5825,-1.5825,-1.5343,-1.407,-1.2716,-1.1458,-1.0194,-0.8825,-0.8038,-0.8038,-0.8038,-0.8038,-0.8038,-0.8038,-0.8038,-0.8038,-0.8038,-0.8174,-0.8469,-0.8628,-0.8781,-0.8933,-0.894,-0.895,-0.8863,-0.886,-0.8873,-0.8893,-0.8897,-0.8903,-2.2979,-2.524,-2.7402,-2.774,-2.9803,-3.2036,-3.3152,-3.3796,-3.4923,-3.7733,-3.8076,-3.7577,-3.6497,-3.7186,0.0,-3.6476,-3.7661,-3.8707,-3.8707,-3.8707,-3.8707,-3.8707,-3.8707,-3.8707,-3.8707,-3.8707,-3.8707,-3.8707,-3.8707,-3.8465,-3.7946,-3.747,-3.6943,-3.6416,-3.5898,-3.5622,-3.5622,-3.5622,-3.6011,-3.6772,-3.6231,-3.6518,-3.7601,-3.8345,-3.8505,-3.8181,-3.8121,-3.779,-3.7188,-3.6228,-3.5733,-3.5504,-3.5504,-3.4905,-3.3876,-3.2961,-3.2033,-3.1031,-3.0139,-2.9792,-2.9792,-2.9792,-2.8542,-2.6953,-2.6953,-2.5378,-2.3627,-2.3627,-2.3387,-2.2862,-2.2031,-2.1845,-2.1578,-2.0764,-2.0305,-1.9488,-1.739,-1.6662,-1.6292,-1.5825,-1.5832,-1.5534,-1.4657,-1.4459,-1.3974,-1.2716,-1.2139,-1.1458,-1.0194,-0.8825,-0.8038,-0.8038,-0.8038,-0.8038,-0.8038,-0.8038,-0.8038,-0.8038,-0.7955,-0.8191,-0.8469,-0.8526,-0.8679,-0.8846,-0.8853,-0.8863,-0.8886,-0.6831,-0.5817,-0.5822,-0.7985,-0.891,-2.434,-2.6573,-2.8755,-2.9786,-3.1732,-3.3668,-3.4831,-3.5602,-3.6541,-3.8043,-3.869,-3.8578,-3.7189,-3.7981,0.0,-3.7411,-3.8065,-3.8707,-3.8707,-3.8707,-3.8707,-3.8707,-3.8707,-3.8707,-3.8707,-3.8707,-3.8707,-3.8707,-3.8707,-3.8382,-3.7649,-3.736,-3.6882,-3.6097,-3.5783,-3.5622,-3.5622,-3.5622,-3.6163,-3.7229,-3.6755,-3.7155,-3.8305,-3.8154,-3.8134,-3.8192,-3.7598,-3.6859,-3.6117,-3.5668,-3.5504,-3.5504,-3.5504,-3.4905,-3.3876,-3.2961,-3.2033,-3.1031,-3.0139,-2.9792,-2.9754,-2.9528,-2.798,-2.6147,-2.5957,-2.4345,-2.2676,-2.2842,-2.2524,-2.2011,-2.1435,-2.0935,-2.0395,-1.967,-1.9131,-1.8411,-1.685,-1.6204,-1.5832,-1.5832,-1.5439,-1.4752,-1.407,-1.3488,-1.2619,-1.1361,-1.0681,-1.0092,-0.9312,-0.8531,-0.8038,-0.8038,-0.8038,-0.8041,-0.7952,-0.7952,-0.7955,-0.7959,-0.7972,-0.7661,-0.6703,-0.783,-0.8659,-0.887,-0.7733,-0.7741,-0.8903,-0.7075,-0.5041,-0.2796,-0.4485,-0.539,-2.6133,-2.7435,-2.9059,-3.2544,-3.3508,-3.4287,-3.6886,-3.7334,-3.7228,-3.7354,0.0,-3.8776,-3.8106,-3.8524,-3.8914,-3.8737,-3.8707,-3.8707,-3.8707,-3.8707,-3.8707,-3.8707,-3.8707,-3.8707,-3.8707,-3.8707,-3.8707,-3.8707,-3.8658,-3.8201,-3.7248,-3.7135,-3.6684,-3.5605,-3.569,-3.569,-3.5622,-3.5757,-3.6535,-3.7905,-3.7905,-3.8271,-3.8983,-3.7557,-3.762,-3.8745,-3.7247,-3.6228,-3.5619,-3.5504,-3.5504,-3.5504,-3.5504,-3.4839,-3.3739,-3.289,-3.196,-3.097,-2.9999,-2.9716,-2.9616,-2.8875,-2.7341,-2.5587,-2.506,-2.3444,-2.1963,-2.2249,-2.1465,-2.0656,-2.0829,-2.0129,-1.9257,-1.9165,-1.8388,-1.7692,-1.7598,-1.6567,-1.5635,-1.5635,-1.4561,-1.368,-1.3584,-1.2522,-1.1263,-0.9998,-0.8825,-0.8038,-0.8038,-0.8038,-0.8038,-0.8038,-0.8041,-0.7952,-0.7972,-0.7769,-0.7669,-0.7679,-0.7889,-0.692,-0.4439,-0.6741,-0.8347,-0.8873,-0.6262,-0.5931,-0.8112,-0.8112,-0.5278,-0.0,-0.0,-0.0,-2.6404,-2.8958,-3.1664,-3.3051,-3.4286,-3.5382,-3.6429,-3.6965,-3.75,-3.8474,-3.8712,-3.8716,-3.8583,-3.8643,-3.8747,-3.8695,-3.8707,-3.8707,-3.8707,-3.8707,-3.8707,-3.8707,-3.8707,-3.8707,-3.8707,-3.8707,-3.8707,-3.8707,-3.83,-3.7808,-3.721,-3.6803,-3.6249,-3.5622,-3.6214,-3.6231,-3.5622,-3.6806,-3.7584,-3.7905,-3.7905,-3.8552,-3.9833,-3.8877,-3.8286,-3.7978,-3.7024,-3.6492,-3.6337,-3.5718,-3.5504,-3.5504,-3.5504,-3.4409,-3.289,-3.2664,-3.1549,-2.9999,-2.934,-2.9114,-2.8862,-2.7502,-2.6235,-2.4982,-2.4083,-2.2889,-2.1729,-2.0922,-2.051,-1.9915,-1.8169,-1.7691,-1.7447,-1.6472,-1.7035,-1.7412,-1.6386,-1.5235,-1.4268,-1.4268,-1.3204,-1.2037,-1.097,-1.0583,-0.9998,-0.8627,-0.8137,-0.8038,-0.8038,-0.8038,-0.8038,-0.8038,-0.7955,-0.7969,-0.7972,-0.6037,-0.4822,-0.4824,-0.6874,-0.7772,-0.7176,-0.5721,-0.6258,-0.8852,-0.8294,-0.5989,-0.1905,-0.1905,-0.1233,-0.0,-0.0,-0.0,-2.7199,-2.9482,-3.1765,-3.3931,-3.5047,-3.565,-3.5941,-3.6457,-3.7027,-3.7668,-3.8287,-3.8627,-3.8382,-3.8546,-3.8707,-3.8707,-3.8707,-3.8707,-3.8707,-3.8707,-3.8707,-3.8707,-3.8707,-3.8707,-3.8707,-3.8707,-3.8707,-3.8707,-3.8433,-3.7964,-3.7228,-3.6943,-3.6416,-3.5622,-3.6366,-3.6586,-3.618,-3.733,-3.8091,-3.843,-3.8036,-3.8044,-3.8453,-3.8728,-3.8286,-3.7203,-3.6783,-3.6384,-3.6054,-3.5683,-3.5504,-3.5424,-3.4986,-3.4177,-3.3129,-3.1935,-3.0944,-2.9956,-2.8874,-2.8536,-2.8362,-2.7262,-2.5934,-2.4524,-2.3744,-2.247,-2.1209,-2.0813,-1.985,-1.8786,-1.7849,-1.6898,-1.5972,-1.5366,-1.6068,-1.6574,-1.592,-1.4752,-1.3878,-1.3878,-1.2328,-1.0779,-1.0096,-0.9509,-0.8825,-0.8137,-0.8038,-0.8038,-0.8038,-0.8048,-0.7955,-0.7955,-0.7972,-0.7985,-0.7999,-0.6768,-0.4836,-0.2214,-0.577,-0.7975,-0.8047,-0.4198,-0.2925,-0.4598,-0.4604,-0.3091,-0.0,-0.0,-0.0,-0.0,-0.0,-0.0,-2.7554,-2.9414,-3.1309,-3.4759,-3.5622,-3.5622,-3.5622,-3.6011,-3.6374,-3.6374,-3.756,-3.8433,-3.798,-3.835,-3.8707,-3.8707,-3.8707,-3.8707,-3.8707,-3.8707,-3.8707,-3.8707,-3.8707,-3.8707,-3.8707,-3.8707,-3.8707,-3.8707,-3.8546,-3.8101,-3.7248,-3.7161,-3.6713,-3.5825,-3.6688,-3.711,-3.6975,-3.7838,-3.8514,-3.8988,-3.8316,-3.7718,-3.7247,-3.8398,-3.8044,-3.6615,-3.6615,-3.6275,-3.5668,-3.5554,-3.5504,-3.5409,-3.4278,-3.3786,-3.336,-3.1105,-3.0132,-2.9849,-2.8439,-2.7959,-2.7798,-2.6937,-2.555,-2.4052,-2.3268,-2.1897,-2.0644,-2.0767,-1.929,-1.7779,-1.7896,-1.6388,-1.4883,-1.4883,-1.5107,-1.5402,-1.5651,-1.4626,-1.3584,-1.3584,-1.1453,-0.9608,-0.9608,-0.8726,-0.8038,-0.8038,-0.8041,-0.8045,-0.8045,-0.7962,-0.7872,-0.7359,-0.7682,-0.8006,-0.8022,-0.7202,-0.4752,-0.0303,-0.4152,-0.6611,-0.6611,-0.2326,-0.0,-0.0,-0.0,-0.0,-0.0,-0.0,-0.0,-0.0,0.1009,0.1569,-2.593,-2.8958,-3.2577,-3.5013,-3.5622,-3.5622,-3.5622,0.0,-3.6374,0.0,-3.7248,-3.798,-3.7893,-3.835,-3.8707,-3.8707,-3.8707,-3.8707,-3.8707,-3.8707,-3.8707,-3.8707,-3.8707,-3.8707,-3.8707,-3.8707,-3.8707,-3.8707,-3.7895,-3.734,-3.7228,-3.6972,-3.6786,-3.662,-3.7973,-3.8396,-3.777,-3.9106,-3.9512,-3.9005,-3.8814,-3.9056,-3.961,-3.9139,-3.8044,-3.6615,-3.6615,-3.6554,-3.6384,-3.5782,-3.5504,-3.5379,-3.3849,-3.2791,-3.1889,-3.0261,-2.91,-2.828,-2.7654,-2.7394,-2.6996,-2.4737,-2.3835,-2.3309,-2.1548,-2.0789,-2.042,-1.9506,-1.8388,-1.718,-1.6314,-1.5298,-1.4583,-1.4583,-1.4014,-1.3939,-1.5206,-1.3731,-1.2139,-1.2139,-1.0092,-0.8233,-0.8233,-0.8137,-0.8038,-0.8038,-0.7955,-0.7969,-0.7969,-0.7979,-0.7065,-0.4822,-0.6567,-0.8022,-0.8026,-0.3739,-0.0808,-0.0,-0.0707,-0.1111,-0.1111,-0.0404,-0.0,-0.0,-0.0,-0.0,-0.0,-0.0,-0.0,0.0112,0.5278,0.7659,-2.6708,-3.0142,-3.3457,-3.5707,-3.6265,-3.6265,-3.6265,-3.6089,-3.5941,-3.5941,-3.6545,-3.723,-3.779,-3.8099,-3.8267,-3.8267,-3.8496,-3.8596,-3.83,-3.8496,-3.8707,-3.8707,-3.8415,-3.8267,-3.8267,-3.7998,-3.7861,-3.7861,-3.7451,-3.7076,-3.6764,-3.7016,-3.7086,-3.6818,-3.8227,-3.8836,-3.8514,-3.9546,-3.9511,-3.8318,-3.8722,-3.8241,-3.6953,-3.7011,-3.6953,-3.6722,-3.6722,-3.6206,-3.5398,-3.4691,-3.4307,-3.4025,-3.2459,-3.1334,-3.0304,-2.8851,-2.7977,-2.757,-2.7017,-2.6816,-2.6557,-2.4921,-2.3963,-2.322,-2.1821,-2.1011,-2.0401,-1.9283,-1.8149,-1.7009,-1.5944,-1.4993,-1.4282,-1.4282,-1.3605,-1.3106,-1.3764,-1.2258,-1.0545,-0.9878,-0.8825,-0.8038,-0.8038,-0.8038,-0.8045,-0.7955,-0.7965,-0.7459,-0.5934,-0.7071,-0.7594,-0.6364,-0.4645,-0.3536,-0.3536,-0.1313,-0.0,-0.0,-0.0,-0.0,-0.0,-0.0,-0.0,-0.0,-0.0,-0.0,-0.0,-0.0,0.1681,0.5052,0.7656,0.891,-2.6606,-2.9448,-3.1901,-3.5115,-3.5926,-3.6129,-3.6891,0.0,-3.591,0.0,-3.6078,-3.6481,-3.7342,-3.772,-3.7859,-3.7755,-3.815,-3.8318,-3.7808,-3.8083,-3.8318,-3.8318,-3.7964,-3.772,-3.772,-3.7396,-3.719,-3.719,-3.7058,-3.6843,-3.6416,-3.6973,-3.7244,-3.7106,-3.8328,-3.9089,-3.9276,-3.9817,-3.9506,-3.8374,-3.8745,-3.7689,-3.5399,-3.577,-3.5959,-3.6039,-3.5989,-3.5285,-3.4188,-3.3694,-3.3443,-3.3129,-3.1278,-3.0174,-2.9424,-2.7736,-2.708,-2.7017,-2.6382,-2.6094,-2.5873,-2.4636,-2.3745,-2.2925,-2.1962,-2.0991,-2.0001,-1.9204,-1.798,-1.6683,-1.5944,-1.4894,-1.3997,-1.3737,-1.2924,-1.2229,-1.2059,-1.0905,-0.9485,-0.8206,-0.8038,-0.8041,-0.8045,-0.8048,-0.7955,-0.7975,-0.7982,-0.7269,-0.5236,-0.5555,-0.5974,-0.5974,-0.2424,-0.0,-0.0,-0.0,-0.0,-0.0,-0.0,-0.0,-0.0,-0.0,-0.0,-0.0,-0.0,-0.0,-0.0,0.1557,0.4601,0.8913,0.8903,0.8897,-2.3866,-2.4862,-2.6336,-3.2138,-3.3592,-3.4336,0.0,0.0,-3.6721,-3.6721,-3.6129,-3.581,-3.6374,-3.7268,-3.7755,-3.7323,-3.7614,-3.7755,-3.7285,-3.7266,-3.7303,-3.7303,-3.7248,-3.7228,-3.7228,-3.721,-3.719,-3.719,-3.6724,-3.6416,-3.6374,-3.6693,-3.7157,-3.7821,-3.8599,-3.9326,-4.002,-4.0054,-4.007,-3.9969,-3.9262,-3.8492,-3.7781,-3.7067,-3.5681,-3.383,-3.3712,-3.3606,-3.3544,-3.3499,-3.3514,-3.3285,-3.097,-3.0007,-2.9676,-2.742,-2.6571,-2.6421,-2.5453,-2.5075,-2.4779,-2.2776,-2.2103,-2.1886,-2.0934,-1.9923,-1.9036,-1.9036,-1.7415,-1.5779,-1.5696,-1.4894,-1.3822,-1.2681,-1.1563,-1.0539,-1.0037,-0.9888,-0.9485,-0.8206,-0.8038,-0.8045,-0.7969,-0.7972,-0.7975,-0.7985,-0.8009,-0.7922,-0.7815,-0.3435,-0.0404,-0.0404,-0.0202,-0.0,-0.0,-0.0,-0.0,-0.0,-0.0,-0.0,-0.0,-0.0,-0.0,-0.0,-0.0,-0.0,-0.0,0.5684,0.8571,0.8913,0.888,0.8863,-2.297,-2.4475,-2.6065,-2.9668,-3.2357,-3.4387,-3.547,-3.6654,-3.7499,-3.7499,-3.6891,-3.6457,-3.6604,-3.6828,-3.6865,-3.6724,-3.7135,-3.7285,-3.6764,-3.6981,-3.719,-3.719,-3.6882,-3.6684,-3.6684,-3.6374,-3.6165,-3.6165,-3.6028,-3.5898,-3.5898,-3.6486,-3.6907,-3.7178,-3.8362,-3.9343,-4.007,-4.007,-3.9376,-3.8002,-3.8196,-3.6967,-3.4478,-3.4689,-3.3908,-3.2258,-3.224,-3.2482,-3.2826,-3.2407,-3.1836,-3.1147,-2.9875,-2.8673,-2.7637,-2.679,-2.6533,-2.6383,-2.537,-2.5004,-2.4636,-2.2627,-2.2027,-2.1725,-2.006,-1.9283,-1.8709,-1.7245,-1.6347,-1.5538,-1.481,-1.3795,-1.251,-1.0611,-0.9836,-0.9235,-0.8475,-0.8266,-0.8157,-0.7942,-0.7808,-0.7848,-0.7955,-0.6545,-0.6042,-0.7701,-0.8019,-0.679,-0.3334,-0.1212,-0.0,-0.0,-0.0,-0.0,-0.0,-0.0,-0.0,-0.0,-0.0,-0.0,-0.0,-0.0,-0.0,-0.0,-0.0,0.1904,0.5719,0.7895,0.89,0.888,0.8866,0.8853,-2.1278,-2.2598,-2.4086,-2.7097,-2.9685,-3.2104,-3.4353,0.0,-3.7043,-3.8058,-3.7686,-3.7161,-3.7161,-3.7024,-3.6741,-3.6225,-3.6563,-3.6764,-3.6224,-3.6457,-3.6666,-3.6666,-3.6333,-3.6139,-3.6139,-3.5827,-3.5622,-3.5622,-3.5622,0.0,-3.5622,-3.6113,-3.6502,-3.6772,-3.8227,-3.9109,-3.931,-3.9361,-3.8507,-3.6774,-3.7113,-3.5735,-3.2938,-3.3481,-3.29,-3.1482,-3.1482,-3.1779,-3.2153,-3.1661,-3.0966,-3.0017,-2.9281,-2.8117,-2.6837,-2.6589,-2.6314,-2.5873,-2.485,-2.4264,-2.3745,-2.2038,-2.1278,-2.072,-1.9423,-1.847,-1.7568,-1.6108,-1.5455,-1.4977,-1.425,-1.2948,-1.1209,-0.9323,-0.8627,-0.8136,-0.7451,-0.7333,-0.7444,-0.7692,-0.7697,-0.7479,-0.6773,-0.5919,-0.5345,-0.5361,-0.5363,-0.4041,-0.0505,-0.0,-0.0,-0.0,-0.0,-0.0,-0.0,-0.0,-0.0,-0.0,-0.0,-0.0,-0.0,-0.0,0.0808,0.2625,0.2674,0.47,0.8703,0.8798,0.8954,0.8863,0.8853,0.8954,0.0,0.0,0.0,-2.4323,0.0,0.0,-3.3846,0.0,-3.5267,-3.8278,-3.8328,-3.7855,-3.7922,-3.7922,-3.7415,-3.5926,-3.6079,-3.6233,-3.5684,-3.5673,-3.5673,-3.5656,-3.5656,-3.5656,-3.569,-3.5656,-3.5622,-3.5656,-3.5639,-3.5622,-3.5622,-3.5622,-3.5977,-3.6755,-3.8176,-3.8539,-3.7768,-3.7906,-3.7502,-3.671,-3.6021,-3.5006,-3.3659,-3.3659,-3.287,-3.1482,-3.1482,-3.1482,-3.1467,-3.1467,-3.097,-3.0208,-2.9317,-2.8427,-2.7537,-2.6782,-2.5804,-2.4862,-2.3818,-2.285,-2.1886,-2.0934,-1.9844,-1.8957,-1.8957,-1.7407,-1.5696,-1.5703,-1.4894,-1.4004,-1.3997,-1.226,-1.0265,-0.9148,-0.7929,-0.7139,-0.7139,-0.7258,-0.7411,-0.7563,-0.763,-0.6952,-0.4499,-0.6189,-0.5974,-0.0808,-0.0,-0.0,-0.0,-0.0,-0.0,-0.0,-0.0,-0.0,-0.0,-0.0,-0.0,-0.0,-0.0,-0.0,-0.0,-0.0,0.2524,0.7922,0.7958,0.8117,0.8289,0.8721,0.8842,0.8853,0.8947,0.894,-1.8065,0.0,0.0,0.0,0.0,0.0,0.0,0.0,0.0,-3.6045,-3.64,-3.6755,-3.8396,-3.8261,-3.777,-3.7347,-3.7403,-3.7245,-3.6581,-3.6941,-3.7077,-3.6518,-3.6451,-3.6671,-3.7229,-3.6265,-3.5859,0.0,-3.5943,-3.5622,-3.5622,-3.5622,-3.5977,-3.6755,-3.6683,-3.6754,-3.7081,-3.6629,-3.578,-3.4572,-3.4384,-3.3501,-3.211,-3.211,-3.192,-3.1482,-3.1482,-3.1161,-3.0644,-3.0644,-3.0133,-2.9254,-2.8427,-2.7537,-2.6714,-2.5791,-2.5229,-2.4719,-2.2999,-2.2253,-2.1886,-2.0934,-1.9844,-1.8877,-1.7989,-1.6764,-1.5538,-1.4734,-1.3711,-1.2419,-1.0794,-0.984,-0.9056,-0.7837,-0.7316,-0.7139,-0.7139,-0.7187,-0.7275,-0.7431,-0.7318,-0.7174,-0.6976,-0.429,-0.1716,-0.0202,-0.0,-0.0,-0.0,-0.0,-0.0,-0.0,-0.0,-0.0,-0.0,-0.0,-0.0,-0.0,-0.0,-0.0,-0.0,-0.0,0.2524,0.7922,0.7965,0.8119,0.8289,0.8384,0.8545,0.8784,0.8889,0.894,-1.7811,-1.8115,-1.8504,-1.8826,0.0,0.0,-2.637,-2.9025,0.0,0.0,-3.6806,-3.7432,-3.8751,-3.8903,-3.8819,-3.8819,-3.8819,-3.8447,-3.7398,-3.7635,-3.7736,-3.7297,-3.6959,-3.7079,-3.7824,-3.676,-3.6377,-3.7212,-3.6535,-3.5807,-3.5224,-3.4911,-3.4967,-3.5446,-3.5332,-3.5354,-3.5412,-3.5068,-3.4344,-3.3211,-3.292,-3.2315,-3.1482,-3.1482,-3.1482,-3.1467,-3.1161,-3.0718,-3.0269,-2.9504,-2.8939,-2.8427,-2.792,-2.7229,-2.6383,-2.537,-2.4707,-2.412,-2.2553,-2.1735,-2.1221,-2.0226,-1.9195,-1.8069,-1.7009,-1.5869,-1.4894,-1.425,-1.3203,-1.1809,-0.9492,-0.889,-0.8627,-0.7404,-0.7139,-0.7143,-0.7064,-0.7081,-0.7118,-0.7292,-0.7227,-0.7222,-0.7598,-0.3374,-0.0,-0.0,-0.0,-0.0,-0.0,-0.0,-0.0,-0.0,-0.0,-0.0,-0.0,-0.0,-0.0,-0.0,-0.0,0.101,0.3232,0.3334,0.4849,0.7902,0.8002,0.8029,0.8184,0.8237,0.8381,0.8621,0.8835,0.8906,-1.7896,-1.7811,-1.7963,-1.8606,-1.8843,0.0,-2.6488,-2.8029,-2.9719,0.0,-3.7127,-3.7719,-3.7993,-3.8584,-3.9023,-3.8974,-3.9126,-3.8958,-3.7997,-3.8043,-3.806,-3.7814,-3.7236,-3.7084,-3.7817,-3.7102,-3.6918,-3.77,-3.7023,-3.5997,-3.4692,-3.3969,-3.3582,-3.3582,-3.4154,-3.4099,-3.3382,-3.3454,-3.3104,-3.2392,-3.175,-3.1482,-3.1482,-3.1482,-3.1467,-3.1351,-3.0584,-3.0208,-2.9889,-2.8363,-2.767,-2.767,-2.7604,-2.7095,-2.6233,-2.5217,-2.4192,-2.322,-2.2178,-2.1298,-2.0401,-1.9362,-1.823,-1.709,-1.6026,-1.4977,-1.4082,-1.3737,-1.2857,-1.1381,-0.9231,-0.8715,-0.8452,-0.7312,-0.7143,-0.7061,-0.7081,-0.7094,-0.7101,-0.7091,-0.6685,-0.6309,-0.632,-0.2754,-0.0,-0.0,-0.0,-0.0,-0.0,-0.0,-0.0,-0.0,-0.0,-0.0,-0.0,-0.0,-0.0,-0.0,0.0606,0.303,0.7818,0.8022,0.8006,0.7972,0.7972,0.7959,0.8038,0.8204,0.8353,0.8489,0.8777,0.8849,-1.8471,-1.7811,-1.7845,-1.798,0.0,0.0,-2.0568,-2.1847,-2.3714,0.0,0.0,-2.9745,-3.1759,-3.2267,-3.228,-3.194,-3.3252,-3.5103,-3.748,-3.8891,0.0,0.0,0.0,0.0,-3.7809,-3.6603,-3.6114,-3.6896,-3.5732,-3.4888,-3.4587,-3.3938,-3.3582,-3.3582,-3.3219,-3.2936,-3.2772,-3.219,-3.182,-3.1719,-3.1541,-3.1482,-3.1482,-3.1482,-3.1161,-3.0524,-3.0389,-2.9504,-2.8182,-2.7868,-2.767,-2.767,-2.6973,-2.6139,-2.5146,-2.4181,-2.3147,-2.2178,-2.1231,-2.0789,-2.0401,-1.9362,-1.823,-1.709,-1.6026,-1.4977,-1.3737,-1.1826,-1.0443,-0.9231,-0.7837,-0.7489,-0.7404,-0.7139,-0.7064,-0.7081,-0.7084,-0.7108,-0.7128,-0.7125,-0.403,-0.1403,-0.1426,-0.0583,-0.0,-0.0,-0.0,-0.0,-0.0,-0.0,-0.0,-0.0,-0.0,-0.0,-0.0,-0.0,-0.0,-0.0,0.4043,0.6894,0.7922,0.8009,0.7992,0.7972,0.7955,0.8045,0.8038,0.8197,0.8347,0.8486,0.8669,0.8804,0.0,0.0,0.0,-1.7811,0.0,0.0,0.0,0.0,0.0,0.0,0.0,0.0,-2.89,-2.9428,-2.9748,-2.9897,-3.1589,0.0,0.0,0.0,0.0,0.0,0.0,0.0,-3.7774,-3.6764,-3.6295,-3.6694,-3.5704,-3.4769,-3.4077,-3.3403,-3.2912,-3.2571,-3.2216,-3.2064,-3.2064,-3.1682,-3.1482,-3.1482,-3.1482,-3.1482,-3.1482,-3.1087,-3.0703,-3.0269,-2.938,-2.8492,-2.767,-2.7297,-2.6812,-2.6308,-2.5931,-2.5441,-2.4791,-2.3294,-2.2403,-2.1886,-2.0934,-2.0566,-2.0323,-1.8709,-1.7747,-1.7017,-1.5387,-1.4489,-1.3652,-1.1305,-1.0183,-0.9318,-0.7577,-0.7139,-0.7139,-0.7139,-0.7068,-0.6811,-0.5636,-0.6293,-0.7138,-0.7062,-0.3264,-0.0,-0.0,-0.0,-0.0,-0.0,-0.0,-0.0,-0.0,-0.0,-0.0,-0.0,-0.0,-0.0,-0.0,0.2424,0.394,0.394,0.5249,0.6567,0.7899,0.7989,0.7972,0.7955,0.8045,0.8038,0.8038,0.8116,0.8191,0.8265,0.8492,0.8601,0.0,0.0,0.0,0.0,0.0,-1.8454,0.0,0.0,0.0,0.0,0.0,0.0,0.0,0.0,0.0,0.0,0.0,0.0,0.0,0.0,0.0,0.0,0.0,0.0,-3.6374,-3.5807,-3.5749,-3.6443,-3.5357,-3.4281,-3.3525,-3.2838,-3.2213,-3.1497,-3.1482,-3.1482,-3.1482,-3.1482,-3.1482,-3.1482,-3.1482,-3.1409,-3.1219,-3.0584,-3.0133,-2.969,-2.8298,-2.7604,-2.7417,-2.6564,-2.5734,-2.5004,-2.5004,-2.4779,-2.4264,-2.2627,-2.1886,-2.1593,-2.0857,-2.0566,-2.0245,-1.798,-1.7017,-1.6363,-1.4657,-1.3737,-1.3039,-1.1128,-1.0265,-0.9483,-0.7573,-0.7139,-0.7143,-0.7058,-0.7074,-0.6545,-0.4652,-0.5027,-0.5771,-0.5697,-0.2611,-0.0,-0.0,-0.0,-0.0,-0.0,-0.0,-0.0,-0.0,-0.0,-0.0,-0.0,-0.0,-0.0,-0.0,0.4958,0.8029,0.8026,0.5949,0.5734,0.7872,0.7969,0.7959,0.8038,0.8038,0.8038,0.8038,0.8038,0.8055,0.8089,0.833,0.8394,0.0,0.0,0.0,0.0,-1.7811,0.0,0.0,0.0,0.0,-1.9164,0.0,0.0,0.0,0.0,0.0,0.0,0.0,0.0,0.0,0.0,0.0,0.0,0.0,0.0,0.0,-3.1322,-3.2492,-3.5446,-3.2835,-3.1826,-3.3427,-3.2886,-3.2213,-3.1497,-3.1482,-3.1482,-3.1482,-3.1482,-3.1482,-3.1482,-3.1482,-3.1146,-3.045,-3.0329,-2.9442,-2.7986,-2.7802,-2.7284,-2.6577,-2.5581,-2.5075,-2.5004,-2.5004,-2.3891,-2.2328,-2.2103,-2.1441,-2.0712,-2.0644,-2.0566,-2.0245,-1.798,-1.6041,-1.4412,-1.4173,-1.2693,-1.0956,-1.0697,-0.9139,-0.7401,-0.7139,-0.7139,-0.7058,-0.7078,-0.7091,-0.7015,-0.6761,-0.3593,-0.0809,-0.0809,-0.036,-0.0,-0.0,-0.0,-0.0,-0.0,-0.0,-0.0,-0.0,-0.0,-0.0,-0.0,-0.0,-0.0,-0.0,0.4865,0.8046,0.8026,0.7695,0.7675,0.7972,0.7955,0.8041,0.8038,0.8038,0.8038,0.8038,0.8038,0.8109,0.8245,0.8279,0.8353,0.0,0.0,0.0,0.0,0.0,0.0,-1.8115,0.0,-1.7759,0.0,0.0,0.0,0.0,0.0,0.0,0.0,-1.9585,0.0,0.0,0.0,0.0,0.0,0.0,0.0,0.0,0.0,0.0,0.0,-3.222,-3.1454,-3.3425,-3.2871,-3.2213,-3.1497,-3.1482,-3.1482,-3.1482,-3.1482,-3.1482,-3.1482,-3.1029,-3.0644,-3.0269,-2.9254,-2.8363,-2.767,-2.7229,-2.6483,-2.5594,-2.5146,-2.4337,-2.3294,-2.3294,-2.2776,-2.1962,-2.1375,-2.0934,-2.0566,-2.0566,-2.0566,-2.0245,-1.798,-1.5876,-1.4088,-1.4088,-1.3392,-1.2345,-1.0956,-0.9918,-0.879,-0.7489,-0.7139,-0.7058,-0.7081,-0.6088,-0.5466,-0.6764,-0.3326,-0.0,-0.0,-0.0,-0.0,-0.0,-0.0,-0.0,-0.0,-0.0,-0.0,-0.0,-0.0,-0.0,-0.0,-0.0,0.0606,0.2224,0.4343,0.5653,0.5648,0.7153,0.7959,0.7955,0.8045,0.8038,0.8038,0.8038,0.8038,0.8038,0.8038,0.8072,0.8136,0.8136,0.817,-2.2361,0.0,0.0,0.0,0.0,0.0,0.0,0.0,0.0,0.0,0.0,0.0,0.0,0.0,0.0,0.0,0.0,0.0,0.0,0.0,0.0,0.0,0.0,0.0,0.0,0.0,0.0,0.0,0.0,-3.0335,-3.2639,-3.2402,-3.1812,-3.1176,-3.1161,-3.1161,-3.1161,-3.1161,-3.1029,-3.0837,-3.0208,-2.9827,-2.9566,-2.8298,-2.7604,-2.7351,-2.6496,-2.5664,-2.4933,-2.442,-2.3294,-2.1952,-2.1735,-2.1593,-2.1517,-2.0857,-2.0566,-2.0566,-2.0566,-2.0235,-1.9353,-1.7496,-1.5636,-1.4088,-1.4088,-1.3652,-1.2778,-1.1042,-1.0178,-0.9226,-0.7577,-0.7058,-0.7064,-0.7084,-0.5822,-0.4659,-0.5039,-0.2426,-0.0,-0.0,-0.0,-0.0,-0.0,-0.0,-0.0,-0.0,-0.0,-0.0,-0.0,-0.0,-0.0,-0.0,-0.0,0.1415,0.4764,0.5048,0.5131,0.5127,0.6933,0.8038,0.8038,0.8038,0.8038,0.8038,0.8038,0.8038,0.8038,0.8038,0.8038,0.8038,0.8038,0.8038,0.0,0.0,0.0,-2.0694,0.0,0.0,0.0,0.0,-1.7612,0.0,0.0,0.0,0.0,0.0,0.0,0.0,0.0,0.0,0.0,0.0,0.0,0.0,0.0,0.0,0.0,0.0,0.0,0.0,0.0,0.0,-3.0671,-3.1112,-3.0949,-3.0358,-3.0329,-3.0329,-3.0329,-3.0329,-2.995,-2.9066,-2.9066,-2.862,-2.7802,-2.7736,-2.7297,-2.6452,-2.5511,-2.5016,-2.4862,-2.2925,-2.2027,-2.1876,-2.1001,-2.0644,-2.0644,-2.0644,-2.0566,-2.0566,-2.0566,-1.9195,-1.7253,-1.6108,-1.4977,-1.4088,-1.4088,-1.2516,-1.0697,-1.0611,-0.8965,-0.7228,-0.7139,-0.7068,-0.7088,-0.7098,-0.7029,-0.5765,-0.1168,-0.009,-0.0,-0.0,-0.0,-0.0,-0.0,-0.0,-0.0,-0.0,-0.0,-0.0,-0.0,-0.0,-0.0,-0.0,-0.0,0.2123,0.7437,0.7831,0.7905,0.7872,0.7952,0.8038,0.8038,0.8038,0.8038,0.8038,0.8038,0.8038,0.8038,0.8038,0.8038,0.8038,0.8038,0.8038,-2.8202,-2.818,-2.7977,-2.3968,0.0,0.0,0.0,0.0,0.0,0.0,0.0,0.0,0.0,0.0,0.0,0.0,0.0,0.0,0.0,0.0,0.0,0.0,0.0,0.0,0.0,0.0,0.0,0.0,0.0,0.0,0.0,-2.9945,-2.9652,-2.9456,-2.9442,-2.9442,-2.9442,-2.9442,-2.9317,-2.9002,-2.8427,-2.7986,-2.767,-2.7162,-2.6414,-2.5511,-2.5158,-2.4264,-2.2925,-2.2253,-2.1659,-2.1001,-2.0712,-2.0566,-2.0566,-2.0566,-2.0566,-2.0489,-1.9766,-1.855,-1.709,-1.6026,-1.4977,-1.4088,-1.4088,-1.2948,-1.1558,-1.0783,-0.9488,-0.8105,-0.7316,-0.7068,-0.6723,-0.5188,-0.593,-0.5768,-0.0988,-0.0,-0.0,-0.0,-0.0,-0.0,-0.0,-0.0,-0.0,-0.0,-0.0,-0.0,-0.0,-0.0,-0.0,-0.0,-0.0,0.1415,0.5071,0.6992,0.7985,0.7952,0.8045,0.8038,0.8038,0.8038,0.8038,0.8038,0.8038,0.8038,0.8038,0.8038,0.8038,0.8038,0.8038,0.8038,-3.0859,-3.0989,-3.07,-2.703,-2.659,0.0,-2.2446,0.0,-2.0187,0.0,0.0,0.0,0.0,0.0,0.0,0.0,0.0,0.0,0.0,0.0,0.0,0.0,0.0,0.0,0.0,0.0,0.0,0.0,0.0,0.0,0.0,0.0,-2.8339,-2.8542,-2.8556,-2.8556,-2.8556,-2.8556,-2.8363,-2.8117,-2.7537,-2.7297,-2.7297,-2.6714,-2.5943,-2.5004,-2.4636,-2.3514,-2.1952,-2.1669,-2.1155,-2.0566,-2.0566,-2.0566,-2.0566,-2.0566,-2.0323,-1.9844,-1.8798,-1.7658,-1.6519,-1.5462,-1.465,-1.4088,-1.4088,-1.2948,-1.1552,-1.0783,-0.9488,-0.8105,-0.7326,-0.7078,-0.6729,-0.5196,-0.4667,-0.3774,-0.0629,-0.0,-0.0,-0.0,-0.0,-0.0,-0.0,-0.0,-0.0,-0.0,-0.0,-0.0,-0.0,-0.0,-0.0,-0.0,-0.0,0.111,0.3736,0.6464,0.7975,0.8041,0.8038,0.8038,0.8038,0.8038,0.8038,0.8038,0.8038,0.8038,0.8038,0.8038,0.8038,0.8038,0.8038,0.8038]},{"header":{"parameterUnit":"m.s-1","parameterCategory":1,"la1":30.6,"la2":29.2853,"lo1":-89.7004,"lo2":-87.6739,"dx":0.0162,"dy":0.0183,"nx":112,"ny":82,"refTime":"2022-12-06T06:00:00:Z","depth":0,"parameterNumber":3,"parameterNumberName":"V-component_of_WINDS"},"data":[0.0,0.0,0.0,0.0,0.0,0.0,0.0,0.0,0.0,0.0,0.0,0.0,0.0,0.0,0.0,0.0,0.0,0.0,0.0,0.0,0.0,0.0,0.0,0.0,0.0,0.0,0.0,0.0,0.0,0.0,0.0,0.0,0.0,0.0,0.0,0.0,0.0,0.0,0.0,0.0,0.0,0.0,0.0,0.0,0.0,0.0,0.0,0.0,0.0,0.0,0.0,0.0,0.0,0.0,0.0,0.0,0.0,0.0,0.0,0.0,0.0,0.0,0.0,0.0,0.0,0.0,0.0,0.0,0.0,0.0,0.0,0.0,0.0,0.0,0.0,0.0,0.0,0.0,0.0,0.0,0.0,0.0,0.0,0.0,0.0,0.0,0.0,0.0,0.0,0.0,-2.5762,-2.585,-2.6214,-2.6559,-2.6647,-2.6854,-2.6816,-2.642,0.0,0.0,0.0,0.0,0.0,0.0,0.0,0.0,0.0,0.0,0.0,0.0,0.0,0.0,0.0,0.0,0.0,0.0,0.0,0.0,0.0,0.0,0.0,0.0,0.0,0.0,0.0,0.0,0.0,0.0,0.0,0.0,0.0,0.0,0.0,0.0,0.0,0.0,0.0,0.0,0.0,0.0,0.0,0.0,0.0,0.0,0.0,0.0,0.0,0.0,0.0,0.0,0.0,0.0,0.0,0.0,0.0,0.0,0.0,0.0,0.0,0.0,0.0,0.0,0.0,0.0,0.0,0.0,0.0,0.0,0.0,0.0,0.0,0.0,0.0,0.0,0.0,0.0,0.0,0.0,0.0,0.0,0.0,0.0,0.0,0.0,0.0,0.0,0.0,0.0,0.0,0.0,0.0,0.0,0.0,0.0,0.0,0.0,0.0,0.0,0.0,0.0,0.0,0.0,-2.6515,-2.6979,-2.6691,-2.6653,-2.7118,-2.6352,-2.5812,-2.5737,0.0,0.0,0.0,0.0,0.0,0.0,0.0,0.0,0.0,0.0,0.0,0.0,0.0,0.0,0.0,0.0,0.0,0.0,0.0,0.0,0.0,0.0,0.0,0.0,0.0,0.0,0.0,0.0,0.0,0.0,0.0,0.0,0.0,0.0,0.0,0.0,0.0,0.0,0.0,0.0,0.0,0.0,0.0,0.0,0.0,0.0,0.0,0.0,0.0,0.0,0.0,0.0,0.0,0.0,0.0,0.0,0.0,0.0,0.0,0.0,0.0,0.0,0.0,0.0,0.0,0.0,0.0,0.0,0.0,0.0,0.0,0.0,0.0,0.0,0.0,0.0,0.0,0.0,0.0,0.0,0.0,0.0,0.0,0.0,0.0,0.0,0.0,0.0,0.0,0.0,0.0,0.0,0.0,0.0,0.0,0.0,0.0,0.0,0.0,0.0,0.0,0.0,0.0,-2.6806,-2.6747,-2.7218,-2.7055,-2.7005,-2.7256,-2.7356,-2.7017,-2.6113,-2.6977,0.0,0.0,0.0,0.0,0.0,0.0,0.0,0.0,0.0,0.0,0.0,0.0,0.0,0.0,0.0,0.0,0.0,0.0,0.0,0.0,0.0,0.0,0.0,0.0,0.0,0.0,0.0,0.0,0.0,0.0,0.0,0.0,0.0,0.0,0.0,0.0,0.0,0.0,0.0,0.0,0.0,0.0,0.0,0.0,0.0,0.0,0.0,0.0,0.0,0.0,0.0,0.0,0.0,0.0,0.0,0.0,0.0,0.0,0.0,0.0,0.0,0.0,0.0,0.0,0.0,0.0,0.0,0.0,0.0,0.0,0.0,0.0,0.0,0.0,0.0,0.0,0.0,0.0,0.0,0.0,0.0,0.0,0.0,0.0,0.0,0.0,0.0,0.0,0.0,0.0,0.0,0.0,0.0,0.0,0.0,0.0,0.0,0.0,0.0,0.0,0.0,0.0,-2.6647,-2.6866,-2.7419,-2.7356,-2.7331,-2.7469,-2.8247,-2.8084,-2.6553,-2.7884,0.0,0.0,0.0,0.0,0.0,0.0,0.0,0.0,0.0,0.0,0.0,0.0,0.0,0.0,0.0,0.0,0.0,0.0,0.0,0.0,0.0,0.0,0.0,0.0,0.0,0.0,0.0,0.0,0.0,0.0,0.0,0.0,0.0,0.0,0.0,0.0,0.0,0.0,0.0,0.0,0.0,0.0,0.0,0.0,0.0,0.0,0.0,0.0,0.0,0.0,0.0,0.0,0.0,0.0,0.0,0.0,0.0,0.0,0.0,0.0,0.0,0.0,0.0,0.0,0.0,0.0,0.0,0.0,0.0,0.0,0.0,0.0,0.0,0.0,0.0,0.0,0.0,0.0,0.0,0.0,0.0,0.0,0.0,0.0,0.0,0.0,0.0,0.0,0.0,0.0,0.0,0.0,0.0,0.0,0.0,0.0,0.0,0.0,0.0,0.0,0.0,0.0,-2.6904,-2.7444,-2.7996,-2.7595,-2.7494,-2.8009,-2.8122,-2.767,-2.6596,-2.8532,0.0,0.0,0.0,0.0,0.0,0.0,0.0,0.0,0.0,0.0,0.0,0.0,0.0,0.0,0.0,0.0,0.0,0.0,0.0,0.0,0.0,0.0,0.0,0.0,0.0,0.0,0.0,0.0,0.0,0.0,0.0,0.0,0.0,0.0,0.0,0.0,0.0,0.0,0.0,0.0,0.0,0.0,0.0,0.0,0.0,0.0,0.0,0.0,0.0,0.0,0.0,0.0,0.0,0.0,0.0,0.0,0.0,0.0,0.0,0.0,0.0,0.0,0.0,0.0,0.0,0.0,0.0,0.0,0.0,0.0,0.0,0.0,0.0,0.0,0.0,0.0,0.0,0.0,0.0,0.0,0.0,0.0,0.0,0.0,0.0,0.0,0.0,0.0,0.0,0.0,0.0,0.0,0.0,0.0,0.0,0.0,0.0,0.0,0.0,0.0,0.0,0.0,-2.6942,-2.7494,-2.8047,-2.7921,-2.7883,-2.8084,-2.875,-2.8581,-2.7346,0.0,0.0,0.0,0.0,0.0,0.0,0.0,0.0,0.0,0.0,0.0,0.0,0.0,0.0,0.0,0.0,0.0,0.0,0.0,0.0,0.0,0.0,0.0,0.0,0.0,0.0,0.0,0.0,0.0,0.0,0.0,0.0,0.0,0.0,0.0,0.0,0.0,0.0,0.0,0.0,0.0,0.0,0.0,0.0,0.0,0.0,0.0,0.0,0.0,0.0,0.0,0.0,0.0,0.0,0.0,0.0,0.0,0.0,0.0,0.0,0.0,0.0,0.0,0.0,0.0,0.0,0.0,0.0,0.0,0.0,0.0,0.0,0.0,0.0,0.0,0.0,0.0,0.0,0.0,0.0,0.0,0.0,0.0,0.0,0.0,0.0,0.0,0.0,0.0,0.0,0.0,0.0,0.0,0.0,0.0,0.0,0.0,0.0,0.0,0.0,0.0,0.0,-2.6546,-2.6942,-2.7494,-2.8047,-2.8109,-2.8109,-2.8109,-2.9415,-2.9529,-2.7815,0.0,0.0,0.0,0.0,0.0,0.0,0.0,0.0,0.0,0.0,0.0,0.0,0.0,0.0,0.0,0.0,0.0,0.0,0.0,0.0,0.0,0.0,0.0,0.0,0.0,0.0,0.0,0.0,0.0,0.0,0.0,0.0,0.0,0.0,0.0,0.0,0.0,0.0,0.0,0.0,0.0,0.0,0.0,0.0,0.0,0.0,0.0,0.0,0.0,0.0,0.0,0.0,0.0,0.0,0.0,0.0,0.0,0.0,0.0,0.0,0.0,0.0,0.0,0.0,0.0,0.0,0.0,0.0,0.0,0.0,0.0,0.0,0.0,0.0,0.0,0.0,0.0,0.0,0.0,0.0,0.0,0.0,0.0,0.0,0.0,0.0,0.0,0.0,0.0,0.0,0.0,0.0,0.0,0.0,0.0,0.0,0.0,0.0,0.0,0.0,0.0,0.0,-2.6653,-2.6942,-2.7507,-2.8047,-2.8109,-2.8109,-2.8109,-3.0021,-3.019,0.0,0.0,0.0,0.0,0.0,0.0,0.0,0.0,0.0,0.0,0.0,0.0,0.0,0.0,0.0,0.0,0.0,0.0,0.0,0.0,0.0,0.0,0.0,0.0,0.0,0.0,0.0,0.0,0.0,0.0,0.0,0.0,0.0,0.0,0.0,0.0,0.0,0.0,0.0,0.0,0.0,0.0,0.0,0.0,0.0,0.0,0.0,0.0,0.0,0.0,0.0,0.0,0.0,0.0,0.0,0.0,0.0,0.0,0.0,0.0,0.0,0.0,0.0,0.0,0.0,0.0,0.0,0.0,0.0,0.0,0.0,0.0,0.0,0.0,0.0,0.0,0.0,0.0,0.0,0.0,0.0,0.0,0.0,0.0,0.0,0.0,0.0,0.0,0.0,0.0,0.0,0.0,0.0,0.0,0.0,0.0,0.0,0.0,0.0,0.0,0.0,0.0,0.0,-2.6602,-2.7281,-2.7921,-2.8084,-2.9083,-2.9509,-2.9093,-3.0552,-3.1089,-3.0221,0.0,0.0,0.0,0.0,0.0,0.0,0.0,0.0,0.0,0.0,0.0,0.0,0.0,0.0,0.0,0.0,0.0,0.0,0.0,0.0,0.0,0.0,0.0,0.0,0.0,0.0,0.0,0.0,0.0,0.0,0.0,0.0,0.0,0.0,0.0,0.0,0.0,0.0,0.0,0.0,0.0,0.0,0.0,0.0,0.0,0.0,0.0,0.0,0.0,0.0,0.0,0.0,0.0,0.0,0.0,0.0,0.0,0.0,0.0,0.0,0.0,0.0,0.0,0.0,0.0,0.0,0.0,0.0,0.0,0.0,0.0,0.0,0.0,0.0,0.0,0.0,0.0,0.0,0.0,0.0,0.0,0.0,0.0,0.0,0.0,0.0,0.0,0.0,0.0,0.0,0.0,0.0,0.0,0.0,0.0,0.0,0.0,0.0,0.0,0.0,0.0,0.0,-2.7188,-2.827,-2.9125,-2.871,-3.0064,-3.0653,-3.0048,-3.1364,-3.1938,-3.1233,0.0,0.0,0.0,0.0,0.0,0.0,0.0,0.0,0.0,0.0,0.0,0.0,0.0,0.0,0.0,0.0,0.0,0.0,0.0,0.0,0.0,0.0,0.0,0.0,0.0,0.0,0.0,0.0,0.0,0.0,0.0,0.0,0.0,0.0,0.0,0.0,0.0,0.0,0.0,0.0,0.0,0.0,0.0,0.0,0.0,0.0,0.0,0.0,0.0,0.0,0.0,0.0,0.0,0.0,0.0,0.0,0.0,0.0,0.0,0.0,0.0,0.0,0.0,0.0,0.0,0.0,0.0,0.0,0.0,0.0,0.0,0.0,0.0,0.0,0.0,0.0,0.0,0.0,0.0,0.0,0.0,0.0,0.0,0.0,0.0,0.0,0.0,0.0,0.0,0.0,0.0,0.0,0.0,0.0,0.0,0.0,0.0,0.0,0.0,0.0,0.0,0.0,-2.8131,-2.9751,-3.0787,-2.9731,-3.1047,-3.1749,-3.1071,-3.2321,-3.2659,-3.1521,0.0,0.0,0.0,0.0,0.0,0.0,0.0,0.0,0.0,0.0,0.0,0.0,0.0,0.0,0.0,0.0,0.0,0.0,0.0,0.0,0.0,0.0,0.0,0.0,0.0,0.0,0.0,0.0,0.0,0.0,0.0,0.0,0.0,0.0,0.0,0.0,0.0,0.0,0.0,0.0,0.0,0.0,0.0,0.0,0.0,0.0,0.0,0.0,0.0,0.0,0.0,0.0,0.0,0.0,0.0,0.0,0.0,0.0,0.0,0.0,-2.0147,-1.9798,0.0,0.0,0.0,0.0,0.0,0.0,0.0,0.0,0.0,0.0,0.0,0.0,0.0,0.0,0.0,0.0,0.0,0.0,0.0,0.0,0.0,0.0,0.0,0.0,0.0,0.0,0.0,0.0,0.0,0.0,0.0,0.0,0.0,0.0,0.0,0.0,0.0,0.0,0.0,0.0,-2.9013,-3.0813,-3.1778,-3.0637,-3.2314,-3.3297,-3.263,-3.3118,-3.3312,-3.303,-3.2318,0.0,0.0,0.0,0.0,0.0,0.0,0.0,0.0,0.0,0.0,0.0,0.0,0.0,0.0,0.0,0.0,0.0,0.0,0.0,0.0,0.0,0.0,0.0,0.0,0.0,0.0,0.0,0.0,0.0,0.0,0.0,0.0,0.0,0.0,0.0,0.0,0.0,0.0,0.0,0.0,0.0,0.0,0.0,0.0,0.0,0.0,0.0,0.0,0.0,0.0,0.0,0.0,0.0,0.0,0.0,0.0,0.0,0.0,0.0,-2.0169,-2.0064,0.0,0.0,0.0,0.0,0.0,0.0,0.0,0.0,0.0,0.0,0.0,0.0,0.0,0.0,0.0,0.0,0.0,0.0,0.0,0.0,0.0,0.0,0.0,0.0,0.0,0.0,0.0,0.0,0.0,0.0,0.0,0.0,0.0,0.0,0.0,0.0,0.0,0.0,0.0,0.0,-3.0262,-3.2111,-3.2992,-3.1641,-3.3425,-3.4427,-3.3862,-3.3609,-3.3499,-3.3499,-3.2856,0.0,0.0,0.0,0.0,0.0,0.0,0.0,0.0,0.0,0.0,0.0,0.0,0.0,0.0,0.0,0.0,0.0,0.0,0.0,0.0,0.0,0.0,0.0,0.0,0.0,0.0,0.0,0.0,0.0,0.0,0.0,0.0,0.0,0.0,0.0,0.0,0.0,0.0,0.0,0.0,0.0,0.0,0.0,0.0,0.0,0.0,0.0,0.0,0.0,0.0,0.0,0.0,0.0,-2.0018,-1.9581,-1.9044,-1.9732,-2.0252,-2.0641,-2.0641,-2.0722,-2.0803,-2.0756,0.0,0.0,0.0,0.0,0.0,0.0,0.0,0.0,0.0,0.0,0.0,0.0,0.0,0.0,0.0,0.0,0.0,0.0,0.0,0.0,0.0,0.0,-2.797,-2.9265,-3.0402,-3.0926,-2.9953,0.0,0.0,0.0,0.0,0.0,0.0,0.0,0.0,0.0,0.0,0.0,-3.1355,-3.3158,-3.3951,-3.2547,-3.4283,-3.528,-3.4696,-3.4038,-3.3619,-3.3499,-3.338,-3.338,0.0,0.0,0.0,0.0,0.0,0.0,0.0,0.0,0.0,0.0,0.0,0.0,0.0,0.0,0.0,0.0,0.0,0.0,0.0,0.0,0.0,0.0,0.0,0.0,0.0,0.0,0.0,0.0,0.0,0.0,0.0,0.0,-2.3119,-2.2545,0.0,0.0,0.0,0.0,0.0,0.0,0.0,0.0,0.0,0.0,0.0,0.0,0.0,-2.0637,-2.1481,-1.9995,-1.9574,-2.018,-1.9181,-1.9005,-1.9616,-1.949,-2.0495,-2.2341,-2.2341,0.0,-2.1343,-2.092,0.0,0.0,0.0,0.0,0.0,0.0,0.0,0.0,0.0,0.0,0.0,0.0,0.0,0.0,0.0,0.0,0.0,0.0,0.0,0.0,0.0,0.0,-2.797,-2.9265,-2.9714,-2.9939,-3.0298,-2.9894,-2.9654,-3.0372,-2.9998,-2.9774,0.0,0.0,0.0,0.0,0.0,0.0,-3.1618,-3.3244,-3.4218,-3.3421,-3.4633,-3.5474,-3.5385,-3.4741,-3.4098,-3.3529,-3.2961,-3.2901,-3.3469,-3.3691,0.0,0.0,0.0,0.0,0.0,0.0,0.0,0.0,0.0,0.0,0.0,0.0,0.0,0.0,0.0,0.0,0.0,0.0,0.0,0.0,0.0,0.0,0.0,0.0,0.0,0.0,0.0,0.0,0.0,-2.2451,-2.207,-2.113,-2.1056,-2.0887,0.0,0.0,0.0,0.0,0.0,0.0,0.0,0.0,0.0,-2.0414,-2.0567,-2.0618,-2.0559,-2.054,-2.0312,-1.9691,-1.9222,-1.9,-1.9116,-2.0049,-2.113,-2.2338,-2.3429,-2.3703,-2.3301,-2.2422,-2.187,-2.1531,0.0,0.0,0.0,0.0,-2.0752,-2.0752,-2.0752,-2.0955,-2.1274,-2.1564,0.0,0.0,0.0,0.0,0.0,0.0,0.0,-2.5959,-2.6901,-2.7919,-2.8936,-2.9879,-3.0387,-3.0746,-3.1031,-3.0567,-3.0298,-3.0956,-3.0552,-3.0432,-3.145,-3.1495,0.0,0.0,0.0,-3.2317,-3.2108,-3.3155,-3.3814,-3.3529,-3.4696,-3.5504,-3.5504,-3.4876,-3.4188,-3.3529,-3.3215,-3.3246,-3.3597,-3.3917,-3.4538,0.0,0.0,0.0,0.0,0.0,0.0,0.0,0.0,0.0,0.0,0.0,0.0,0.0,0.0,0.0,0.0,0.0,0.0,0.0,0.0,0.0,0.0,0.0,0.0,0.0,0.0,0.0,0.0,-2.1819,-2.1326,-2.0152,-2.0526,-2.0652,0.0,0.0,0.0,0.0,0.0,0.0,-2.0878,-2.0556,-2.0428,-2.0428,-2.0505,-2.0403,-1.9979,-2.0726,-2.0521,-1.9477,-1.9448,-1.9469,-1.9554,-2.1152,-2.2355,-2.327,-2.4749,-2.5536,-2.5548,-2.4142,-2.3326,-2.2912,-2.2498,-2.2334,-2.2322,-2.2184,-2.2133,-2.2108,-2.1958,-2.1907,-2.1964,-2.2433,-2.2863,-2.3393,-2.4637,0.0,0.0,0.0,0.0,-2.726,-2.7919,-2.8951,-2.9983,-3.0612,-3.1165,-3.1482,-3.1482,-3.1135,-3.0911,-3.1377,-3.0971,-3.0881,-3.2063,-3.1569,0.0,-3.2796,-3.2302,-3.1898,-3.2213,-3.2976,-3.3499,-3.3499,-3.4696,-3.5504,-3.5504,-3.504,-3.4457,-3.3784,-3.3908,-3.4074,-3.4177,-3.4783,-3.5432,-3.6239,0.0,0.0,0.0,0.0,0.0,0.0,0.0,0.0,0.0,0.0,0.0,0.0,0.0,0.0,0.0,0.0,0.0,0.0,0.0,0.0,0.0,0.0,0.0,0.0,0.0,0.0,0.0,0.0,0.0,-2.0806,-2.1104,0.0,0.0,0.0,0.0,-2.1368,-2.143,-2.1443,-2.1443,-2.1112,-2.0961,-2.0961,-1.9971,-1.9781,-2.0557,-1.938,-1.9143,-1.9881,-1.9853,-2.0534,-2.1887,-2.2905,-2.4447,-2.6333,-2.6929,-2.7457,-2.7783,-2.5624,-2.472,-2.4695,-2.4657,-2.4657,-2.4594,-2.4067,-2.3866,-2.3791,-2.3238,-2.299,-2.305,-2.305,-2.4071,-2.5411,-2.6261,-2.6968,0.0,0.0,-2.7949,-2.8652,-2.931,-2.9968,-3.0627,-3.1315,-3.1452,-3.1482,-3.1482,-3.1452,-3.1437,-3.1467,-3.0971,-3.0731,-3.1465,0.0,-3.2243,-3.1704,-3.2108,-3.2258,-3.1601,-3.2706,-3.3499,-3.3499,-3.4696,-3.5504,-3.5504,-3.5474,-3.516,-3.4472,-3.5095,-3.553,-3.5484,-3.6254,-3.6995,-3.7686,-3.7786,0.0,0.0,0.0,0.0,0.0,0.0,0.0,0.0,0.0,0.0,0.0,0.0,0.0,0.0,0.0,0.0,0.0,0.0,0.0,0.0,0.0,0.0,0.0,0.0,0.0,0.0,0.0,0.0,-2.1732,-2.1895,0.0,-2.1255,-2.1192,-2.128,-2.1481,-2.182,-2.1766,-2.1219,-2.116,-2.1168,-2.1243,-2.0539,-2.0318,-2.073,-2.0139,-1.9738,-1.9544,-1.9777,-2.07,-2.2153,-2.3461,-2.4911,-2.6591,-2.7418,-2.7921,-2.8072,-2.7645,-2.7042,-2.6364,-2.6013,-2.5875,-2.585,-2.5649,-2.5347,-2.4996,-2.4795,-2.4494,-2.428,-2.4864,-2.6063,-2.7327,-2.7216,-2.7959,-2.8771,-2.8353,-2.9011,-2.9879,-3.0118,-3.0672,-3.1225,-3.1422,-3.1482,-3.1482,-3.1482,-3.1482,-3.1482,-3.1482,-3.1345,-3.139,-3.2048,-3.2003,-3.1943,-3.2138,-3.2003,-3.1958,-3.2138,-3.2946,-3.3664,-3.4083,-3.4951,-3.5669,-3.6103,-3.6596,-3.658,-3.5891,-3.6604,-3.71,-3.7171,-3.6921,-3.7368,-3.8522,-3.857,-3.8836,0.0,0.0,0.0,0.0,0.0,0.0,0.0,0.0,0.0,0.0,0.0,0.0,0.0,0.0,0.0,0.0,0.0,0.0,0.0,0.0,0.0,0.0,0.0,0.0,0.0,0.0,-2.2108,-2.2284,-2.2064,-2.1857,-2.1807,-2.1289,-2.1247,-2.1976,-2.2138,-2.1909,-2.1342,-2.1247,-2.1108,-2.0918,-2.0432,-2.0186,-2.0267,-2.0339,-2.0058,-1.9512,-2.0234,-2.1399,-2.2972,-2.4393,-2.587,-2.7429,-2.8276,-2.8674,-2.8699,-2.9063,-2.8787,-2.8097,-2.772,-2.7582,-2.7557,-2.7369,-2.7055,-2.6666,-2.6289,-2.6127,-2.6154,-2.6831,-2.7982,-2.903,-2.8881,-2.9478,-3.0148,-2.9714,-3.0208,-3.0851,-3.0851,-3.1195,-3.1482,-3.1482,-3.1482,-3.1482,-3.1482,-3.1482,-3.1482,-3.1482,-3.1482,-3.1616,-3.2108,-3.1765,-3.1764,-3.2422,-3.1958,-3.1795,-3.2736,-3.323,-3.3664,-3.4098,-3.5175,-3.5985,-3.6198,-3.739,-3.7761,-3.7071,-3.8014,-3.8535,-3.8319,-3.8548,-3.8891,-3.936,-3.936,-3.9478,-3.9715,0.0,0.0,0.0,0.0,0.0,0.0,0.0,0.0,0.0,0.0,0.0,0.0,0.0,0.0,0.0,0.0,0.0,0.0,0.0,0.0,0.0,0.0,0.0,-2.2454,-2.2853,-2.2877,-2.2422,-2.1593,-2.1403,-2.2218,-2.0803,-2.0757,-2.2834,-2.2322,-2.1877,-2.1877,-2.1441,-2.0784,-1.9991,-1.9554,-1.9316,-1.9399,-1.9727,-1.9932,-1.9951,-2.125,-2.2734,-2.4397,-2.5788,-2.7334,-2.8988,-2.9553,-2.9792,-2.9792,-2.9792,-2.9792,-2.9792,-2.9792,-2.9792,-2.9729,-2.9164,-2.895,-2.8775,-2.767,-2.7862,-2.8597,-2.8862,-2.9566,-3.045,-3.1278,-3.1482,-3.1482,-3.1482,-3.1482,-3.1482,-3.1482,-3.1482,-3.1482,-3.1482,-3.1482,-3.1482,-3.1482,-3.1482,-3.1482,-3.1482,-3.1482,-3.1482,-3.1482,-3.1482,-3.1691,-3.2392,-3.1943,0.0,-3.3381,-3.3561,-3.3561,-3.3606,-3.5447,-3.6428,-3.5776,-3.771,-3.8632,-3.7886,-3.9299,-3.9754,-3.8995,-4.1037,-4.1542,-4.0104,-4.0104,-3.9816,-3.9105,0.0,0.0,0.0,0.0,0.0,0.0,0.0,0.0,0.0,0.0,0.0,0.0,0.0,0.0,0.0,0.0,0.0,0.0,0.0,0.0,0.0,0.0,-2.3986,-2.3593,-2.3321,-2.3238,-2.3502,-2.2909,-2.2407,-2.2031,-2.1602,-2.1339,-2.1279,-2.1101,-2.0974,-2.0974,-2.0511,-2.0597,-2.1424,-2.0359,-2.0247,-2.1223,-2.0685,-2.0391,-2.0391,-2.1084,-2.267,-2.4991,-2.5666,-2.7273,-2.9566,-2.9729,-2.9792,-2.9792,-2.9792,-2.9792,-2.9792,-2.9792,-2.9792,-2.9779,-2.9616,-2.9289,-2.8775,-2.767,-2.7862,-2.8597,-2.8862,-2.9566,-3.045,-3.1278,-3.1482,-3.1482,-3.1482,-3.1482,-3.1482,-3.1482,-3.1482,-3.1482,-3.1482,-3.1482,-3.1482,-3.1482,-3.1482,-3.1482,-3.1482,-3.1482,-3.1482,-3.1482,-3.1482,-3.1541,-3.1779,-3.1644,-3.2178,-3.4127,-3.4355,-3.4945,-3.644,-3.7603,-3.8166,-3.7931,-3.9573,-4.0206,-3.9397,-4.0313,-4.0572,-3.9816,-4.0357,-4.0493,-4.0087,-4.0612,-4.1018,0.0,0.0,0.0,0.0,0.0,0.0,0.0,0.0,0.0,0.0,0.0,0.0,0.0,0.0,0.0,0.0,0.0,0.0,0.0,0.0,0.0,0.0,-2.4077,-2.4707,-2.4393,-2.4054,-2.3742,-2.3515,-2.265,-2.1865,-2.1428,-2.0719,-2.0333,-2.059,-2.0268,-2.0074,-2.0074,-1.9931,-2.0191,-2.0864,-2.0259,-2.0411,-2.1364,-2.0857,-2.0566,-2.0566,-2.1025,-2.2288,-2.426,-2.5127,-2.6535,-2.8507,-2.8912,-2.9214,-2.9428,-2.9428,-2.9578,-2.9792,0.0,0.0,0.0,0.0,-2.9578,-2.9164,-2.8285,-2.8497,-2.9257,-2.9613,-3.0341,-3.1185,-3.2094,-3.2153,-3.2003,-3.2273,-3.1958,-3.1541,-3.1884,-3.1676,-3.1482,-3.1482,-3.1482,-3.1482,-3.1482,-3.1691,-3.1943,-3.1943,-3.2168,0.0,-3.2362,-3.1898,-3.1672,-3.2258,-3.2418,-3.3176,-3.5269,-3.554,-3.6068,-3.7262,-3.831,-3.8805,-3.8472,-4.015,0.0,0.0,0.0,-4.1153,-4.1018,-4.0713,0.0,0.0,0.0,-4.1589,-4.1631,-4.1847,0.0,0.0,-4.1615,-4.2273,0.0,0.0,0.0,0.0,0.0,0.0,0.0,0.0,0.0,0.0,0.0,0.0,0.0,0.0,0.0,0.0,-2.4591,-2.4958,-2.4845,-2.4691,-2.4184,-2.2767,-2.1504,-2.0655,-2.0462,-1.9044,-1.8721,-2.0204,-1.9562,-1.9177,-1.9299,-1.9552,0.0,0.0,0.0,-2.0049,-2.0488,-2.0537,-2.0566,-2.0566,-2.0967,-2.1709,-2.2907,-2.4171,-2.5478,-2.6677,-2.7545,-2.8299,-2.8837,-2.8837,-2.9139,-2.9616,-2.9741,-2.9792,-2.9792,-2.9792,-2.9792,-2.9704,-2.9126,0.0,0.0,-3.0665,-3.1331,-3.2141,-3.3161,-3.308,-3.2751,-3.3335,-3.2647,-3.1884,-3.2482,-3.2198,-3.1764,-3.1764,-3.1764,-3.1764,-3.1764,-3.2213,-3.2617,-3.2617,-3.3095,-3.3499,-3.3499,-3.2586,-3.2261,-3.3481,-3.3783,-3.4643,-3.659,-3.6901,-3.6989,-3.718,-3.8379,0.0,-3.8295,-4.0066,-4.0882,-4.0121,-4.0696,-4.1373,-4.2016,-4.1424,-4.1425,-4.2121,-4.2016,-4.1712,-4.1255,-4.1805,-4.2097,-4.2287,-4.3302,-4.3808,0.0,0.0,0.0,0.0,0.0,0.0,0.0,0.0,0.0,0.0,0.0,0.0,0.0,0.0,0.0,-2.4006,-2.5243,-2.5837,-2.4946,-2.4198,-2.3364,-2.2202,-2.1812,-2.1112,-1.9694,-1.9243,-1.8921,-1.8529,-1.8337,-1.8596,-1.9243,-1.8735,-1.8783,-1.9761,-1.9521,-1.9619,-2.0039,-2.0391,-2.0566,-2.0566,-2.0654,0.0,-2.2907,-2.3136,-2.4535,-2.659,-2.6827,-2.7446,-2.826,-2.826,-2.8335,-2.8524,-2.944,-2.9792,-2.9792,-2.9792,-2.9792,-2.9704,-2.9126,-2.9001,-2.9321,-3.0459,-3.0932,-3.1345,-3.3022,-3.341,0.0,-3.3455,-3.3305,-3.314,-3.3275,-3.3215,-3.311,-3.311,-3.311,-3.311,-3.311,-3.3215,-3.3305,-3.3305,-3.341,-3.3499,-3.3499,-3.3786,-3.4176,-3.4415,-3.5007,-3.5953,-3.756,-3.7781,-3.8206,-3.9343,-4.0236,-4.0456,-3.9767,-4.0628,-4.0882,-4.0121,-4.0206,-4.0358,-4.0493,-4.0375,-4.0559,-4.1181,-4.1168,-4.1858,-4.3315,-4.3454,-4.4035,-4.5074,-4.3786,-4.3447,0.0,0.0,0.0,0.0,0.0,0.0,0.0,0.0,0.0,0.0,0.0,-2.2637,0.0,0.0,-2.445,-2.4445,-2.5203,-2.5355,-2.4279,-2.3356,-2.257,-2.1945,-2.1101,-2.0268,-1.9365,-1.8911,-1.8462,-1.8008,-1.8008,-1.8202,-1.8664,-1.8269,-1.8498,-1.9556,-1.9377,-1.959,-2.0234,-2.0459,-2.0566,-2.0566,-2.0566,-2.0976,-2.1798,-2.2241,-2.3112,-2.4371,-2.5374,-2.6214,-2.7005,-2.7752,-2.8109,-2.816,-2.8725,-2.9114,-2.9402,-2.9691,-2.9792,-2.9819,-3.001,-3.0044,-3.0277,-3.1875,-3.2393,-3.2663,-3.4076,-3.4262,-3.4053,-3.4412,-3.4023,-3.3574,-3.3903,-3.3739,-3.3499,-3.3499,-3.3499,-3.3499,-3.3499,-3.3754,-3.3978,-3.3978,-3.459,-3.5034,-3.5034,-3.6005,-3.6454,-3.5379,-3.6178,-3.7301,-3.8337,-3.8823,-3.9328,-4.0037,-4.0409,-4.0493,-4.0104,-4.0426,-4.0476,-4.0104,-4.007,-4.0441,-4.1128,-4.1146,-4.1574,-4.2542,-4.3244,-4.4089,-4.5098,-4.5794,-4.6446,-4.7095,-4.6575,-4.6019,0.0,0.0,0.0,0.0,0.0,0.0,0.0,0.0,-2.5415,-2.5726,-2.5584,-2.5185,-2.4664,-2.5298,-2.566,-2.4936,-2.4951,-2.4737,-2.3645,-2.258,-2.1844,-2.167,-2.0268,-1.9243,-1.9044,-1.8395,-1.8008,-1.8008,-1.8008,-1.8008,-1.8008,-1.8008,-1.8359,-1.9131,-1.9248,-1.9658,-2.043,-2.0518,-2.0566,-2.0566,-2.0566,-2.0566,-2.0644,-2.1375,-2.1962,-2.2403,-2.4409,-2.5528,-2.5997,-2.7294,-2.7783,-2.7795,-2.7896,-2.8222,-2.8674,-2.9252,-2.9465,-2.9618,-3.0475,-3.0725,-3.1095,-3.3059,-3.3739,-3.3959,-3.5133,-3.5115,-3.4801,-3.5355,-3.4726,-3.4008,-3.4532,-3.4277,-3.3888,-3.3888,-3.3888,-3.3888,-3.3888,-3.4307,-3.4666,-3.4666,-3.5736,-3.6615,-3.6615,-3.7873,-3.8297,-3.6599,-3.7494,-3.8603,-3.9141,-3.9715,-4.007,-4.007,-4.007,-4.007,-4.007,-4.007,-4.0138,-4.029,-4.0442,-4.1096,-4.2354,-4.2532,-4.3149,-4.4333,-4.563,-4.6445,-4.669,-4.7929,-4.8636,-4.8802,-4.9499,-4.9022,-2.5335,0.0,0.0,-2.6723,-2.7161,-2.766,0.0,0.0,-2.6213,-2.6462,-2.6006,-2.5483,-2.53,-2.5697,-2.5772,-2.4936,-2.5244,-2.5061,-2.3718,-2.2359,-2.1273,-2.0786,-1.9879,-1.8977,-1.8202,-1.8076,-1.8008,-1.8008,-1.8008,-1.8008,-1.8008,-1.8008,-1.8223,-1.8691,-1.9082,-1.9512,-1.998,-2.0371,-2.0566,-2.0566,-2.0566,-2.0566,-2.0566,-2.0712,-2.168,-2.3441,-2.5429,-2.6352,-2.6471,-2.6615,-2.671,-2.676,-2.718,-2.7419,-2.7532,-2.8097,-2.8298,-2.836,-2.9,-2.9151,-2.9589,-3.2,-3.2749,-3.3101,-3.492,-3.5444,-3.54,-3.5489,-3.54,-3.5295,-3.537,-3.5325,-3.528,-3.528,-3.528,-3.528,-3.528,-3.534,-3.5385,-3.5385,-3.6056,-3.6615,-3.6615,-3.7873,-3.8804,-3.8586,-3.9323,-3.9902,-3.9952,-4.002,-4.007,-4.007,-4.007,-4.007,-4.007,-4.007,-4.0358,-4.1035,-4.1641,-4.2341,-4.3135,-4.3687,-4.4306,-4.498,-4.5874,-4.6898,-4.8082,-4.9022,-4.9811,-5.0527,-5.0618,-5.0178,-2.9257,0.0,0.0,0.0,-3.0225,-3.0381,-2.9833,-2.9155,-2.8752,-2.9342,-2.8869,-2.8183,-2.7621,-2.7234,-2.6765,0.0,-2.5191,-2.4302,-2.2956,-2.1486,-2.014,-1.9229,-1.8787,-1.8586,-1.8721,-1.8269,-1.8008,-1.8008,-1.8008,-1.8008,-1.8008,-1.8242,-1.8574,-1.9004,-1.9434,-1.9853,-2.0283,-2.0478,-2.0566,-2.0566,-2.0566,-2.0566,-2.0566,-2.0566,-2.168,-2.3526,-2.4397,-2.5429,-2.6533,-2.6533,-2.6533,-2.6546,-2.6716,-2.6804,-2.6917,-2.7783,-2.8109,-2.8208,-2.898,-2.9274,-2.9575,-3.168,-3.2628,-3.3197,-3.4555,-3.519,-3.5504,-3.5504,-3.5504,-3.5504,-3.5504,-3.5504,-3.5504,-3.5504,-3.5504,-3.5504,-3.5504,-3.5504,-3.5504,-3.5504,-3.6117,-3.6722,-3.7219,-3.8173,-3.9086,-3.9542,-3.9901,-4.007,-4.007,-4.007,-4.007,-4.007,-4.046,-4.073,-4.073,-4.1119,-4.1491,-4.1813,-4.2446,-4.3345,-4.4443,-4.5072,-4.59,-4.6934,-4.7813,-4.8715,-4.9756,-5.0582,-5.1408,-5.2215,-5.2215,-5.2032,-3.1369,0.0,0.0,-3.2171,-3.2519,-3.2577,-3.1881,-3.1275,-3.1034,-3.1417,-3.1161,-3.0531,-2.9219,-2.8492,-2.7736,-2.6658,-2.5091,-2.3591,-2.2389,-2.0766,-1.927,-1.8105,-1.8008,-1.8269,-1.8844,-1.8395,-1.8008,-1.8008,-1.8008,-1.8008,-1.8008,-1.8408,-1.8838,-1.9277,-1.9697,-2.0127,-2.0634,-2.0566,-2.0566,-2.0566,-2.0566,-2.0566,-2.0644,-2.0857,-2.1745,-2.3147,-2.3661,-2.4767,-2.6094,-2.6383,-2.6533,-2.6533,-2.6533,-2.6533,-2.6553,-2.7356,-2.7657,-2.7814,-2.8627,-2.9005,-2.9491,-3.1274,-3.2313,-3.3028,-3.3921,-3.4681,-3.522,-3.522,-3.5355,-3.5504,-3.5504,-3.5504,-3.5504,-3.5504,-3.5504,-3.5504,-3.5504,-3.5504,-3.5614,-3.6023,-3.6739,-3.755,-3.8583,-3.9352,-4.0037,-4.0628,-4.0696,-4.0612,-4.0409,-4.0561,-4.0696,-4.0696,-4.117,-4.1508,-4.1508,-4.1982,-4.2388,-4.2591,-4.3219,-4.4191,-4.5545,-4.6262,-4.7134,-4.8288,-4.915,-4.9884,-5.0472,-5.1499,-5.2289,-5.2876,-5.3115,-5.3206,-2.9751,0.0,-3.2264,-3.239,-3.3015,-3.338,-3.2741,-3.2505,-3.2258,-3.1601,-3.1974,-3.1705,-2.9429,-2.9002,-2.8427,-2.6782,-2.4841,-2.3179,-2.2332,-2.0563,-1.8998,-1.8144,-1.8008,-1.8008,0.0,-1.8008,-1.8008,-1.8008,-1.8008,-1.8008,-1.8008,-1.8408,-1.8838,-1.9277,-1.9697,-2.0127,-2.0634,-2.0566,-2.0566,-2.0566,-2.0566,-2.0566,-2.0644,-2.1517,-2.1952,-2.2178,-2.4108,-2.5016,-2.5158,-2.6094,-2.6533,-2.6533,-2.6533,-2.6533,-2.6533,-2.6571,-2.6584,-2.6659,-2.7188,-2.7875,-2.8809,-3.0336,-3.1425,-3.2312,-3.3253,-3.3978,-3.4502,-3.4502,-3.4996,-3.5504,-3.5504,-3.5504,-3.5504,-3.5504,-3.5504,-3.5504,-3.5504,-3.5504,-3.5914,-3.7372,-3.8273,-3.9317,-4.082,-4.1698,-4.2219,-4.2219,-4.2219,-4.1965,-4.1271,-4.1779,-4.2219,-4.2219,-4.2236,-4.2252,-4.2252,-4.2286,-4.2608,-4.3335,-4.3993,-4.4995,-4.6312,-4.7008,-4.7638,-4.8306,-4.915,-4.9591,-4.9627,-5.1224,-5.1995,-5.205,-5.2839,-5.3206,-3.1364,0.0,-3.3999,-3.4438,-3.4055,-3.3658,-3.3874,-3.3213,-3.2452,-3.2228,-3.1644,-3.0483,-2.8246,-2.7773,-2.6961,-2.4755,-2.3874,-2.2954,-2.1516,-2.0158,-1.8977,-1.8076,-1.8008,0.0,0.0,0.0,0.0,-1.8008,-1.8008,-1.8008,-1.8008,-1.8682,-1.9131,-1.9287,-1.9971,-2.042,-2.0566,-2.0566,-2.0566,-2.0566,-2.0566,-2.0566,-2.0644,-2.0934,-2.1745,-2.2999,-2.3745,-2.4767,-2.6025,-2.6383,-2.6533,-2.6533,-2.6533,-2.6533,-2.6533,-2.6533,-2.6533,-2.6559,-2.6747,-2.731,-2.8173,-2.9282,-3.0453,-3.1695,-3.257,-3.3305,-3.3829,-3.3829,-3.3993,-3.4277,-3.4711,-3.4816,-3.4936,-3.5385,-3.5833,-3.633,-3.6838,-3.7318,-3.7928,-3.9043,-3.9441,-3.9957,-4.1025,-4.1415,-4.1877,-4.2909,-4.2608,-4.2202,-4.1965,-4.2151,-4.2286,-4.2286,-4.2743,-4.3031,-4.3031,-4.3521,-4.391,-4.4181,-4.5164,-4.5927,-4.6365,-4.7409,-4.8075,-4.8306,-4.86,-4.9022,-4.9591,-5.0123,-5.0949,-5.1995,-5.227,-5.2692,-3.2909,-3.39,-3.4789,-3.5165,-3.4592,-3.4014,-3.4143,-3.3692,-3.3125,-3.2916,-3.1809,-3.0174,-2.8071,-2.7003,-2.574,-2.356,-2.2645,-2.187,-2.0845,-1.954,-1.8481,-1.8056,-1.8008,-1.8008,0.0,0.0,0.0,-1.8008,-1.8008,-1.8008,-1.8008,-1.8828,-1.9287,-1.9287,-2.0117,-2.0566,-2.0566,-2.0566,-2.0566,-2.0566,-2.0566,-2.0566,-2.0566,-2.0566,-2.1451,-2.2999,-2.3368,-2.4469,-2.6025,-2.6383,-2.6533,-2.6533,-2.6533,-2.6533,-2.6533,-2.6533,-2.6533,-2.6533,-2.6533,-2.704,-2.7868,-2.8748,-2.982,-3.1029,-3.1901,-3.2617,-3.314,-3.314,-3.332,-3.3589,-3.4008,-3.4128,-3.4352,-3.528,-3.5833,-3.6436,-3.7353,-3.8157,-3.9029,-4.0144,-4.0603,-4.1135,-4.2219,-4.2399,-4.2735,-4.3703,-4.342,-4.3098,-4.3098,-4.3098,-4.3098,-4.3098,-4.3538,-4.3826,-4.3826,-4.4282,-4.4665,-4.4906,-4.5648,-4.6288,-4.6756,-4.7554,-4.8075,-4.8306,-4.8306,-4.8581,-4.9132,-4.9426,-5.0123,-5.1132,-5.1426,-5.1995,-3.4189,-3.4729,-3.4763,-3.4664,-3.4624,-3.4415,-3.3756,-3.4105,-3.4263,-3.3562,-3.2347,-3.0689,0.0,0.0,-2.4824,-2.3233,-2.1313,-2.0154,-2.0473,-1.8733,-1.7588,0.0,0.0,0.0,0.0,0.0,0.0,-1.8008,0.0,-1.8018,-1.8037,-1.8838,-1.9297,-1.9316,-2.0127,-2.0566,-2.0566,-2.0566,-2.0566,-2.0566,-2.0566,-2.0566,-2.0566,-2.0566,-2.1078,-2.2027,-2.2999,-2.4036,-2.5087,-2.6025,-2.6452,-2.6533,-2.6533,-2.6533,-2.6533,-2.6533,-2.6533,-2.6533,-2.6533,-2.704,-2.792,-2.8748,-2.9628,-3.0524,-3.1278,-3.1973,-3.2467,-3.2467,-3.2946,-3.344,-3.344,-3.3499,-3.3858,-3.516,-3.5504,-3.5878,-3.7158,-3.8152,-3.9264,-4.0751,-4.1787,-4.2907,-4.4322,-4.4587,-4.4587,-4.4587,-4.4587,-4.4587,-4.4587,-4.4587,-4.4587,-4.4587,-4.4587,-4.4626,-4.4626,-4.4626,-4.4906,-4.5511,-4.5597,-4.6112,-4.7342,-4.7428,-4.7715,-4.8306,-4.8306,-4.8306,-4.8306,-4.9132,-4.9536,-4.9609,-5.0417,-5.1224,-3.4709,-3.5335,-3.5873,-3.5425,-3.4988,-3.466,-3.4988,-3.4789,-3.4002,-3.233,-3.0986,-2.9005,0.0,0.0,0.0,-2.1358,-2.1597,0.0,-1.9878,-1.8854,0.0,-1.8037,0.0,-1.8008,-1.8008,-1.8008,0.0,0.0,-1.8008,-1.8144,-1.8457,-1.8994,-1.9434,-1.9746,-2.0283,-2.0566,-2.0566,-2.0566,-2.0566,-2.0566,-2.0566,-2.0566,-2.0566,-2.0566,-2.1078,-2.2027,-2.2253,-2.3368,-2.5016,-2.53,-2.5804,-2.6533,-2.6533,-2.6533,-2.6533,-2.6533,-2.6533,-2.6533,-2.6533,-2.7484,-2.8684,-2.8939,-3.0011,-3.1219,-3.1409,-3.1601,-3.1779,-3.1779,-3.2258,-3.2766,-3.2766,-3.3499,-3.4307,-3.4651,-3.5504,-3.6496,-3.7407,-3.9061,-4.0718,-4.1782,-4.3074,-4.4148,-4.4536,-4.4587,-4.4587,-4.4587,-4.4587,-4.4587,-4.4587,-4.4587,-4.4587,-4.4587,-4.4587,-4.4759,-4.5232,-4.5267,-4.5511,-4.6143,-4.6635,-4.7062,-4.7385,-4.7838,-4.8132,-4.8306,-4.8306,-4.8306,-4.8306,-4.8526,-4.8967,-4.9609,-5.0417,-5.1224,-3.5794,-3.6274,-3.6563,-3.5766,-3.5316,-3.4932,-3.443,-3.3931,-3.3092,-3.1091,-2.94,0.0,0.0,0.0,0.0,0.0,0.0,0.0,-1.9493,-1.8715,-1.8123,0.0,-1.7455,0.0,-1.7637,-1.7807,-1.8062,0.0,-1.8398,-1.8389,-1.8623,-1.9228,-1.9668,-1.9902,-2.0342,-2.0566,-2.0566,-2.0566,-2.0566,-2.0566,-2.0566,-2.0566,-2.0566,-2.0566,-2.1078,-2.2027,-2.2027,-2.2925,-2.442,-2.4791,-2.53,-2.5873,-2.6314,-2.6533,-2.6533,-2.6533,-2.6533,-2.6533,-2.6533,-2.7351,-2.8492,-2.8876,-2.9889,-3.1073,-3.1752,-3.1958,-3.2018,-3.2317,-3.2662,-3.2946,-3.2946,-3.3499,-3.4203,-3.4786,-3.5504,-3.6441,-3.7802,-3.9377,-4.0942,-4.2501,-4.3463,-4.4181,-4.4519,-4.4587,-4.4587,-4.4587,-4.4587,-4.4587,-4.4587,-4.4587,-4.4587,-4.4587,-4.4587,-4.4869,-4.5459,-4.5511,-4.5865,-4.6756,-4.7194,-4.753,-4.7797,-4.8114,-4.8489,-4.8857,-4.8489,-4.8673,-4.9407,-4.904,-4.9297,-5.0123,-5.0582,-5.1224,-3.6877,-3.702,-3.6746,-3.581,-3.5515,-3.4961,-3.3048,-3.2462,-3.1729,-2.9524,0.0,-2.5904,-2.4418,-2.3671,-2.2578,-2.0357,0.0,-2.0314,-1.9266,-1.8514,-1.7724,-1.6788,-1.6893,-1.6982,-1.7026,-1.7273,-1.7924,-1.8985,-1.8615,-1.8433,-1.8737,-1.9354,-1.9781,-2.0,-2.0371,-2.0566,-2.0566,-2.0566,-2.0566,-2.0566,-2.0566,-2.0566,-2.0566,-2.0566,-2.1001,-2.1811,-2.1811,-2.2403,-2.3368,-2.4409,-2.4862,-2.5087,-2.6094,-2.6533,-2.6533,-2.6533,-2.6533,-2.6533,-2.6609,-2.7211,-2.8092,-2.8776,-2.9623,-3.0681,-3.208,-3.2572,-3.2766,-3.3335,-3.3559,-3.3604,-3.3514,-3.3619,-3.4038,-3.5115,-3.5444,-3.5984,-3.7793,-3.9015,-4.0432,-4.2807,-4.3267,-4.3521,-4.4282,-4.4418,-4.4468,-4.4553,-4.4587,-4.4587,-4.4587,-4.4587,-4.4587,-4.4587,-4.4682,-4.4944,-4.5545,-4.5786,-4.6416,-4.7608,-4.7784,-4.8084,-4.8598,-4.8636,-4.8985,-4.9719,-4.9022,-4.9352,-5.0802,-5.0086,-5.0105,-5.0802,-5.0912,-5.1334,-3.6596,-3.6224,-3.581,-3.5667,-3.5191,-3.4394,-3.295,-3.1747,0.0,0.0,0.0,-2.4248,-2.189,-2.2062,-2.2035,-2.0449,0.0,0.0,0.0,0.0,-1.8094,0.0,0.0,0.0,0.0,-1.6271,0.0,0.0,-1.7386,-1.7823,-1.9613,-1.8985,-1.9142,-2.0439,-2.0527,-2.0566,-2.0566,-2.0566,-2.0566,-2.0566,-2.0566,-2.0566,-2.0566,-2.0566,-2.0722,-2.0867,-2.0867,-2.1375,-2.2328,-2.3368,-2.4264,-2.5087,-2.6094,-2.6533,-2.6533,-2.6533,-2.6533,-2.6596,-2.6979,-2.8258,-2.9536,-2.9154,-2.9953,-3.1217,-3.2213,-3.2901,-3.335,-3.3469,-3.3888,-3.4188,-3.3634,-3.4322,-3.507,-3.4741,-3.51,-3.5629,-3.5969,-3.7623,-3.9761,-4.2051,-4.2489,-4.2726,-4.3487,-4.3623,-4.3842,-4.4485,-4.4587,-4.4587,-4.4587,-4.4587,-4.4587,-4.4587,-4.5052,-4.5597,-4.6192,-4.7362,-4.8377,-4.9175,-4.9856,-5.0281,-5.0362,-5.038,-5.0435,-5.0582,-5.0435,-5.0508,-5.0802,-5.0655,-5.0655,-5.082,-5.1481,-5.1867,-3.6036,-3.5691,-3.5369,-3.4736,-3.4592,-3.3891,-3.1166,0.0,0.0,0.0,0.0,-2.2207,-2.0601,0.0,0.0,-1.94,0.0,0.0,0.0,0.0,0.0,0.0,0.0,0.0,0.0,-1.5747,-1.6332,-1.7371,-1.7209,-1.7612,-1.8993,-1.8793,-1.9238,-2.0557,-2.0566,-2.0566,-2.0566,-2.0566,-2.0566,-2.0566,-2.0566,-2.0566,-2.0566,-2.0566,-2.0566,-2.0566,-2.0566,-2.1155,-2.2103,-2.3073,-2.4108,-2.5087,-2.6094,-2.6533,-2.6533,-2.6533,-2.6533,-2.6609,-2.7092,-2.8209,-2.9387,-2.9797,-3.1041,-3.2532,-3.3302,-3.3754,-3.4083,-3.4442,-3.4771,-3.4936,-3.4622,-3.5026,-3.5429,-3.51,-3.5904,-3.6829,-3.7219,-3.8448,-3.9956,-4.1454,-4.1728,-4.1965,-4.2709,-4.2828,-4.2963,-4.3335,-4.3724,-4.3978,-4.3978,-4.4613,-4.4961,-4.4626,-4.5522,-4.6375,-4.7002,-4.8406,-4.9506,-5.0175,-5.0582,-5.0802,-5.0802,-5.0802,-5.1004,-5.1426,-5.1004,-5.1206,-5.205,-5.1628,-5.1646,-5.2068,-5.2435,-5.2747,-3.5138,-3.5023,-3.4808,-3.3871,-3.3887,-3.3145,-2.9297,-2.8194,0.0,0.0,-2.1252,-2.0269,-1.9651,0.0,-2.0103,0.0,-1.9596,-2.0229,0.0,0.0,0.0,0.0,0.0,0.0,0.0,-1.5233,0.0,-1.6846,-1.6927,-1.7291,-1.803,-1.8707,-1.9362,-2.0235,-2.0479,-2.0566,-2.0566,-2.0566,-2.0566,-2.0566,-2.0566,-2.0566,-2.0566,-2.0566,-2.0566,-2.0566,-2.0566,-2.1155,-2.2103,-2.3073,-2.4108,-2.5087,-2.6094,-2.6533,-2.6546,-2.6659,-2.6697,-2.6728,-2.7406,-2.8433,-2.9591,-3.0788,-3.2182,-3.3597,-3.4244,-3.4577,-3.4801,-3.5355,-3.5504,-3.5504,-3.5504,-3.5504,-3.5569,-3.5733,-3.6768,-3.7978,-3.8745,-3.9385,-4.007,-4.0797,-4.0967,-4.1204,-4.1931,-4.2049,-4.2117,-4.2269,-4.2794,-4.3166,-4.3166,-4.4267,-4.4906,-4.4596,-4.6083,-4.7322,-4.7826,-4.937,-5.0489,-5.1,-5.1224,-5.1316,-5.1316,-5.1316,-5.161,-5.2234,-5.1646,-5.194,-5.3206,-5.2564,-5.2606,-5.3336,-5.3336,-5.3545,-3.373,-3.377,-3.3719,-3.3633,-3.3198,-3.1914,-2.8467,0.0,0.0,-2.0939,-1.9565,-1.8928,-1.8441,-1.7958,0.0,0.0,-1.7507,-1.7337,0.0,0.0,0.0,0.0,0.0,0.0,0.0,-1.423,-1.4657,-1.5786,-1.5869,-1.6257,-1.7365,-1.8372,-1.9045,-1.9116,-2.0079,-2.0566,-2.0566,-2.0566,-2.0566,-2.0566,-2.0566,-2.0566,-2.0566,-2.0566,-2.0566,-2.0566,-2.0566,-2.1155,-2.2103,-2.3073,-2.4108,-2.5087,-2.6094,-2.6533,-2.6584,-2.7017,-2.7205,-2.7356,-2.8411,-2.9948,-3.164,-3.2234,-3.276,-3.3362,-3.4252,-3.4921,-3.5429,-3.5489,-3.5504,-3.5504,-3.5504,-3.5504,-3.5668,-3.6337,-3.716,-3.7978,-3.8745,-3.8962,-3.9226,-4.0054,-4.0172,-4.0426,-4.117,-4.1305,-4.1525,-4.2202,-4.2354,-4.2388,-4.2388,-4.298,-4.366,-4.4352,-4.6826,-4.8443,-4.8487,-5.052,-5.1825,-5.1885,-5.2582,-5.2986,-5.2986,-5.2986,-5.3023,-5.3096,-5.3023,-5.3059,-5.3206,-5.3133,-5.3326,-5.374,-5.374,-5.3977,-3.2839,-3.2986,-3.2879,-3.2461,-3.1535,-3.0052,-2.7188,0.0,0.0,-2.0028,-1.8615,-1.7868,-1.7712,-1.7125,-1.6753,-1.6796,-1.6856,-1.704,-1.7399,0.0,0.0,0.0,0.0,0.0,0.0,0.0,-1.4573,-1.5621,-1.5696,-1.5861,-1.6273,-1.6764,-1.7326,-1.7989,-1.9036,-1.9599,-1.9599,-2.0245,-2.0566,-2.0566,-2.0566,-2.0566,-2.0566,-2.0566,-2.0566,-2.0566,-2.0566,-2.1451,-2.2925,-2.3294,-2.4469,-2.5955,-2.6314,-2.6533,-2.6596,-2.708,-2.7281,-2.7444,-2.8549,-3.0178,-3.1875,-3.24,-3.3514,-3.4667,-3.5021,-3.5295,-3.5504,-3.5504,-3.5504,-3.5504,-3.5504,-3.5504,-3.5797,-3.704,-3.7573,-3.8149,-3.9385,-3.961,-3.9731,-4.002,-4.007,-4.0172,-4.0476,-4.0527,-4.0629,-4.0916,-4.1339,-4.1783,-4.2157,-4.3075,-4.4008,-4.4689,-4.7052,-4.8792,-4.9288,-5.1426,-5.2729,-5.2729,-5.3023,-5.3206,-5.3206,-5.3206,-5.3206,-5.3206,-5.3206,-5.3206,-5.3206,-5.3444,-5.3624,-5.3814,-5.4083,-5.4452,-3.1519,-3.198,-3.2114,-3.1384,-3.0243,-2.861,0.0,0.0,0.0,-1.9127,-1.7867,-1.7175,-1.6883,-1.632,-1.5844,-1.5763,-1.6037,-1.6364,-1.6674,-1.6572,0.0,0.0,0.0,-1.4314,0.0,-1.3988,-1.4412,-1.5137,-1.522,-1.5379,-1.5696,-1.5696,-1.6026,-1.6764,-1.823,-1.9036,-1.9036,-2.0079,-2.0566,-2.0566,-2.0566,-2.0566,-2.0566,-2.0566,-2.0566,-2.0566,-2.0566,-2.1527,-2.3073,-2.3368,-2.448,-2.6094,-2.6383,-2.6533,-2.6596,-2.708,-2.7394,-2.7729,-2.8883,-3.05,-3.218,-3.2807,-3.4124,-3.5504,-3.5504,-3.5504,-3.5504,-3.5504,-3.5504,-3.5504,-3.5504,-3.5861,-3.643,-3.7531,-3.8149,-3.8778,-3.985,-4.007,-4.007,-4.007,-4.007,-4.007,-4.007,-4.007,-4.0171,-4.0336,-4.0779,-4.1302,-4.1957,-4.2988,-4.4025,-4.4926,-4.6703,-4.8218,-4.9252,-5.1292,-5.2601,-5.2839,-5.3078,-5.3206,-5.3206,-5.3206,-5.3206,-5.3206,-5.3206,-5.3206,-5.3206,-5.3465,-5.3758,-5.4013,-5.4373,-5.476,-2.9433,-3.0552,-3.136,-3.0687,-2.9549,-2.7786,0.0,0.0,0.0,-1.7961,-1.7312,-1.6967,-1.584,-1.5107,-1.4799,-1.509,-1.4566,-1.4756,-1.6494,-1.6,0.0,0.0,0.0,-1.3726,-1.3239,-1.3748,-1.4088,-1.4088,-1.4088,-1.4573,-1.5621,-1.5696,-1.5703,-1.5696,-1.7819,-1.9036,-1.9036,-2.0079,-2.0566,-2.0566,-2.0566,-2.0566,-2.0566,-2.0566,-2.0566,-2.0566,-2.0566,-2.1155,-2.2103,-2.3073,-2.4108,-2.5087,-2.6094,-2.6533,-2.6596,-2.708,-2.7632,-2.8318,-2.9876,-3.1343,-3.2735,-3.3656,-3.4691,-3.5504,-3.5504,-3.5504,-3.5504,-3.5504,-3.5504,-3.5504,-3.5504,-3.66,-3.7764,-3.7822,-3.8941,-4.007,-4.0087,-4.007,-4.007,-4.007,-4.007,-4.007,-4.007,-4.007,-4.0286,-4.0827,-4.092,-4.1133,-4.1725,-4.232,-4.3325,-4.4917,-4.5623,-4.6581,-4.8196,-4.9866,-5.1151,-5.1958,-5.2766,-5.3206,-5.3206,-5.3206,-5.3206,-5.3206,-5.3206,-5.3206,-5.3206,-5.3206,-5.3662,-5.4503,-5.4503,-5.4924,-2.71,-2.7232,-2.699,-2.721,-2.5378,-2.3108,-2.1741,0.0,-1.7748,-1.6417,-1.5796,-1.5398,-1.505,-1.4503,-1.4323,-1.4987,-1.4556,-1.4476,0.0,0.0,0.0,-1.4869,-1.4392,-1.3994,0.0,0.0,-1.4088,-1.4088,-1.4817,-1.5061,-1.4657,-1.6041,-1.6764,-1.6764,-1.823,-1.9036,-1.9036,-2.0079,-2.0566,-2.0566,-2.0566,-2.0566,-2.0566,-2.0566,-2.0566,-2.0644,-2.1298,-2.2113,-2.3073,-2.4108,-2.5146,-2.6025,-2.6383,-2.6691,-2.708,-2.7645,-2.8197,-2.875,-2.9681,-3.1122,-3.2664,-3.2961,-3.4192,-3.5504,-3.5504,-3.5504,-3.5504,-3.5504,-3.5504,-3.5504,-3.5504,-3.6243,-3.71,-3.769,-3.8541,-3.9437,-3.9952,-4.007,-4.007,-4.007,-4.007,-4.007,-4.007,-4.007,-4.0171,-4.0336,-4.0655,-4.1133,-4.1707,-4.2342,-4.3045,-4.3908,-4.4161,-4.559,-4.8893,-4.9664,-5.0306,-5.1132,-5.1426,-5.1573,-5.1573,-5.2087,-5.238,-5.238,-5.3188,-5.3604,-5.3586,-5.4202,-5.4771,-5.5306,-5.5306,-5.5466,-2.4268,-2.4718,-2.456,-2.4718,-2.2928,0.0,0.0,0.0,-1.6262,-1.5708,-1.5096,-1.4606,-1.4376,-1.405,-1.3987,-1.4614,-1.4121,-1.4034,0.0,0.0,0.0,-1.3807,0.0,0.0,0.0,-1.3955,-1.4088,-1.4088,-1.4734,-1.4977,-1.4734,-1.6363,-1.7504,-1.7908,-1.863,-1.9036,-1.9036,-2.0079,-2.0566,-2.0566,-2.0566,-2.0566,-2.0566,-2.0566,-2.0566,-2.0644,-2.1231,-2.2038,0.0,-2.4242,-2.5183,-2.5992,-2.6776,-2.7168,-2.7344,-2.7896,-2.867,-2.9548,-3.0342,-3.164,-3.3171,-3.3547,-3.4491,-3.5504,-3.5504,-3.5504,-3.5504,-3.5504,-3.5504,-3.5554,-3.5831,-3.6461,-3.7263,-3.8019,-3.8816,-3.9489,-4.0003,-4.007,-4.007,-4.007,-4.007,-4.007,-4.007,-4.0286,-4.0466,-4.0737,-4.1241,-4.1793,-4.2346,-4.2752,-4.3251,-4.3866,-4.3681,-4.4764,-4.7921,-4.8471,-4.9132,-5.027,-5.0637,-5.0802,-5.0802,-5.1424,-5.1724,-5.1724,-5.2622,-5.3094,-5.3094,-5.4116,-5.4906,-5.5489,-5.564,-5.5703,0.0,-2.2594,-2.3385,-2.2818,-2.1704,-2.0464,-1.9279,-1.763,0.0,-1.5576,-1.5005,-1.4387,-1.3826,-1.3752,-1.3834,-1.3994,-1.344,-1.3446,0.0,-1.3782,0.0,0.0,-1.2939,0.0,-1.33,-1.3781,-1.4088,-1.4088,-1.4088,-1.4489,-1.5538,-1.6601,-1.7747,-1.8877,-1.8957,-1.9036,-1.9116,-2.0079,-2.0566,-2.0566,-2.0566,-2.0566,-2.0566,-2.0566,-2.0566,-2.0566,-2.0634,-2.1252,-2.2262,-2.3751,-2.4761,-2.5433,-2.7333,-2.7821,-2.7457,-2.7971,-2.9074,-3.0487,-3.143,-3.2693,-3.4095,-3.5133,-3.5504,-3.5504,-3.5504,-3.5504,-3.5504,-3.5504,-3.5504,-3.5668,-3.6384,-3.7203,-3.7978,-3.8745,-3.9489,-4.007,-4.007,-4.007,-4.007,-4.007,-4.007,-4.0121,-4.0171,-4.0577,-4.1087,-4.1707,-4.2302,-4.2902,-4.3375,-4.3497,-4.3791,-4.4544,-4.3956,-4.4121,-4.5681,-4.6562,-4.77,-4.9315,-5.0199,-5.064,-5.064,-5.1065,-5.1244,-5.1244,-5.17,-5.1956,-5.1986,-5.3183,-5.4161,-5.4969,-5.5339,-5.5511,-1.7783,0.0,-1.8957,-1.931,-1.8504,-1.7388,0.0,-1.5754,-1.4903,-1.4318,-1.3742,-1.3296,-1.3152,-1.3372,-1.3506,-1.3221,-1.334,-1.3582,-1.4112,0.0,0.0,-1.3985,-1.3928,-1.3968,-1.4188,-1.4135,-1.4088,-1.4088,-1.4088,-1.425,-1.4496,-1.5462,-1.6601,-1.7666,-1.855,-1.9362,-2.0245,-2.0479,-2.0566,-2.0566,-2.0566,-2.0566,-2.0566,-2.0566,-2.0566,-2.0644,-2.1375,-2.2465,-2.386,-2.502,-2.6226,-2.7443,-2.7923,-2.8285,-2.8561,-2.8687,-2.924,-3.01,-3.0982,-3.2055,-3.3241,-3.492,-3.5504,-3.5504,-3.5504,-3.5504,-3.5504,-3.5504,-3.5504,-3.5668,-3.6384,-3.7203,-3.7978,-3.8745,-3.9489,-4.007,-4.007,-4.007,-4.007,-4.007,-4.007,-4.0254,-4.0655,-4.0827,-4.1087,-4.1707,-4.2302,-4.275,-4.2864,-4.325,-4.3552,-4.3754,-4.3608,-4.3901,-4.4911,-4.5718,-4.6617,-4.7627,-4.8752,-4.9338,-4.9338,-5.0319,-5.083,-5.083,-5.1879,-5.2584,-5.2889,-5.3187,-5.3443,-5.3654,-5.3738,-5.3799,-1.6595,-1.671,-1.7028,-1.7368,-1.6982,-1.6337,-1.5732,-1.5141,-1.4514,-1.3909,-1.3324,-1.2939,-1.3135,-1.3036,-1.3013,-1.3212,-1.3016,0.0,0.0,0.0,-1.3521,-1.3828,-1.3781,-1.3854,0.0,-1.4182,-1.4088,-1.4088,-1.4088,-1.4088,-1.4088,-1.5137,-1.5944,-1.6519,-1.8141,-1.952,-2.0566,-2.0566,-2.0566,-2.0566,-2.0566,-2.0566,-2.0566,-2.0566,-2.0566,-2.0644,-2.1155,-2.2234,-2.3656,-2.4956,-2.6214,-2.7471,-2.8438,-2.89,-2.8963,-2.9227,-3.0074,-3.1132,-3.1683,-3.2749,-3.4124,-3.5148,-3.5504,-3.5504,-3.5504,-3.5504,-3.5554,-3.5894,-3.6006,-3.629,-3.7365,-3.8003,-3.8469,-3.9262,-3.9782,-4.007,-4.007,-4.007,-4.007,-4.007,-4.007,-4.0286,-4.0827,-4.1133,-4.1534,-4.2121,-4.2714,-4.3069,-4.3069,-4.3339,-4.3497,-4.3497,-4.3497,-4.3663,-4.4103,-4.5047,-4.6006,-4.704,-4.8071,-4.8728,-4.8897,-4.9709,-5.0308,-5.071,-5.1376,-5.2015,-5.2606,-5.2606,-5.2818,-5.3203,-5.3203,-5.3203,-1.638,-1.6461,-1.6548,-1.6417,-1.638,-1.6194,-1.5499,-1.4915,-1.4398,-1.3873,-1.3339,-1.3105,-1.3362,-1.2915,-1.2635,-1.3112,0.0,0.0,-1.2392,-1.2518,-1.2779,-1.3347,-1.3373,0.0,-1.4102,-1.4115,-1.4088,-1.4088,-1.4088,-1.4088,-1.4088,-1.4977,-1.5538,-1.5696,-1.7658,-1.9274,-2.0323,-2.0489,-2.0566,-2.0566,-2.0566,-2.0566,-2.0566,-2.0566,-2.0566,-2.0566,-2.0566,-2.1524,-2.3179,-2.4604,-2.5893,-2.7224,-2.9096,-2.949,-2.9114,-2.9616,-3.0784,-3.2177,-3.2536,-3.3905,-3.5504,-3.5504,-3.5504,-3.5504,-3.5504,-3.5554,-3.5831,-3.6554,-3.6661,-3.6948,-3.8342,-3.8799,-3.9086,-3.9901,-4.007,-4.007,-4.007,-4.0171,-4.0204,-4.0204,-4.0303,-4.0546,-4.1087,-4.1578,-4.2162,-4.2732,-4.3214,-4.3497,-4.3497,-4.3497,-4.3497,-4.3497,-4.3548,-4.3563,-4.3563,-4.4623,-4.5746,-4.6836,-4.7812,-4.8614,-4.9152,-4.9504,-4.9999,-5.0683,-5.0702,-5.1029,-5.1722,-5.1722,-5.2106,-5.2818,-5.2818,-5.2818,-1.5864,-1.63,-1.667,-1.5903,-1.5732,-1.5454,-1.4318,-1.4003,-1.3847,-1.3621,-1.3459,-1.333,-1.3031,-1.3221,-1.2963,0.0,0.0,-1.2472,0.0,0.0,-1.3941,-1.4282,0.0,-1.4088,-1.4422,-1.4229,-1.4088,-1.4088,-1.4088,-1.4088,-1.4088,-1.425,-1.4734,-1.5696,-1.6927,-1.8069,-1.9195,-2.0167,-2.0566,-2.0566,-2.0566,-2.0566,-2.0566,-2.0566,-2.0566,-2.0566,-2.0566,-2.2242,-2.4826,-2.506,-2.6853,-2.9309,-2.9651,-2.9741,-2.9666,-2.9767,-3.0011,-3.0432,-3.2046,-3.3905,-3.5504,-3.5504,-3.5504,-3.5504,-3.5504,-3.5958,-3.6631,-3.7397,-3.716,-3.6783,-3.7732,-3.8414,-3.9086,-3.9901,-4.007,-4.007,-4.007,-4.0483,-4.0832,-4.0797,-4.1178,-4.1725,-4.2302,-4.248,-4.2732,-4.3286,-4.3444,-4.3497,-4.3497,-4.3497,-4.3497,-4.3497,-4.374,-4.3924,-4.3924,-4.503,-4.5801,-4.6008,-4.7727,-4.9213,-5.0383,-5.0483,-5.0565,-5.0702,-5.0702,-5.076,-5.0875,-5.0875,-5.0952,-5.1068,-5.1068,-5.1068,-1.5676,-1.5671,-1.57,-1.5648,-1.6076,-1.6333,-1.569,-1.5539,-1.5314,-1.4651,-1.4531,-1.4246,-1.3412,-1.3327,-1.3113,-1.2331,0.0,-1.2518,-1.3126,-1.316,-1.3293,0.0,0.0,-1.3788,-1.4242,-1.4168,-1.4088,-1.4088,-1.4088,-1.4088,-1.4088,-1.4657,-1.5213,-1.5696,-1.7334,-1.847,-1.8957,-2.0079,-2.0566,-2.0566,-2.0566,-2.0566,-2.0566,-2.0566,-2.0703,-2.0928,-2.1605,-2.2872,-2.476,-2.5959,-2.743,-2.8937,-2.9546,-2.9792,-2.9856,-3.0343,-3.0921,-3.1476,-3.289,-3.4327,-3.5504,-3.5504,-3.5504,-3.5504,-3.5504,-3.5718,-3.618,-3.6919,-3.7483,-3.8044,-3.8816,-3.9262,-3.9662,-4.002,-4.007,-4.007,-4.007,-4.0303,-4.0611,-4.0874,-4.1133,-4.1621,-4.2519,-4.2711,-4.2902,-4.341,-4.3497,-4.3497,-4.3497,-4.3646,-4.3772,-4.3772,-4.4106,-4.4318,-4.4318,-4.4997,-4.5912,-4.7023,-4.8182,-4.9262,-5.032,-5.0565,-5.0702,-5.0702,-5.0702,-5.0702,-5.0702,-5.0702,-5.0702,-5.0702,-5.076,-5.0818,-1.541,-1.5097,-1.4925,-1.5349,-1.605,-1.6654,-1.6904,-1.6757,-1.6485,-1.5999,-1.5679,-1.5175,-1.4232,-1.3546,0.0,-1.3015,-1.2726,-1.2726,-1.3333,-1.3013,-1.2893,-1.336,-1.3414,-1.3594,-1.4041,-1.4088,-1.4088,-1.4088,-1.4088,-1.4088,-1.4088,-1.5137,-1.5696,-1.5696,-1.7819,-1.9036,-1.9036,-2.0079,-2.0566,-2.0566,-2.0566,-2.0566,-2.0566,-2.0674,-2.0908,-2.124,-2.2257,-2.321,-2.4363,-2.6291,-2.7475,-2.8176,-2.9365,-2.9792,-2.9934,-3.0833,-3.1815,-3.2749,-3.3671,-3.4691,-3.5504,-3.5504,-3.5504,-3.5504,-3.5504,-3.5733,-3.6133,-3.6737,-3.7987,-3.9262,-3.9731,-3.9952,-4.007,-4.007,-4.007,-4.0121,-4.0237,-4.0385,-4.0689,-4.1223,-4.1429,-4.1817,-4.2732,-4.2902,-4.3014,-4.3444,-4.3582,-4.3631,-4.3631,-4.3912,-4.4146,-4.4146,-4.4501,-4.4732,-4.4849,-4.5074,-4.5993,-4.7782,-4.8538,-4.9232,-4.9924,-5.0429,-5.0702,-5.0702,-5.0702,-5.0702,-5.0702,-5.0702,-5.0702,-5.0702,-5.0818,-5.0875,-1.4926,-1.4898,-1.506,-1.4879,-1.4755,-1.4966,-1.6394,-1.6105,-1.586,-1.6992,-1.6402,-1.5587,-1.5396,-1.3942,-1.264,-1.2405,-1.2806,-1.3353,-1.3941,0.0,-1.3975,-1.4015,-1.4028,-1.4041,-1.4082,-1.4088,-1.4088,-1.4088,-1.4088,-1.4088,-1.4088,-1.5137,-1.5696,-1.5696,-1.7819,-1.9036,-1.9036,-2.0079,-2.0566,-2.0566,-2.0566,-2.0566,-2.0576,-2.0996,-2.1201,-2.126,-2.1742,-2.2806,-2.428,-2.5491,-2.6737,-2.8176,-2.9365,-2.9792,-2.9934,-3.0833,-3.1815,-3.2749,-3.3671,-3.4691,-3.5504,-3.5504,-3.5504,-3.5504,-3.5504,-3.6492,-3.7648,-3.7706,-3.8832,-3.985,-3.9139,-3.9542,-4.007,-4.007,-4.007,-4.0254,-4.0733,-4.1268,-4.1853,-4.244,-4.2958,-4.3356,-4.341,-4.3444,-4.3463,-4.3479,-4.3772,-4.3955,-4.3955,-4.429,-4.4553,-4.4553,-4.4872,-4.5201,-4.5495,-4.555,-4.5973,-4.6935,-4.8491,-4.9394,-4.9452,-5.026,-5.0702,-5.0702,-5.0702,-5.0702,-5.0702,-5.0702,-5.0702,-5.0702,-5.0702,-5.0779,-1.419,-1.452,-1.4969,-1.5125,-1.5298,-1.586,-1.748,-1.7656,-1.7715,-1.874,-1.7856,-1.6394,-1.4579,0.0,-1.2982,-1.2909,-1.3367,-1.3834,-1.4055,-1.4088,-1.4088,-1.4088,-1.4088,-1.4088,-1.4088,-1.4088,-1.4088,-1.4088,-1.4088,-1.4088,-1.4088,-1.5711,-1.6683,-1.6683,-1.8868,-2.0001,-2.0001,-2.0401,-2.0566,-2.0566,-2.0566,-2.0566,-2.0576,-2.1025,-2.1387,-2.1742,-2.3512,-2.4854,-2.5782,-2.7584,-2.8609,-2.9197,-2.9624,-2.9792,-2.9934,-3.0833,-3.1815,-3.2749,-3.3671,-3.4691,-3.5504,-3.5504,-3.5846,-3.6165,-3.6165,-3.6935,-3.7921,-3.8358,-3.8924,-3.9368,-3.961,-3.9885,-4.0154,-4.0546,-4.0625,-4.075,-4.1313,-4.1621,-4.1979,-4.2559,-4.2864,-4.3105,-4.3444,-4.3497,-4.3497,-4.3497,-4.3597,-4.3772,-4.3986,-4.4346,-4.4682,-4.4896,-4.5222,-4.5457,-4.5586,-4.5586,-4.574,-4.6067,-4.7182,-4.8317,-4.9356,-4.9721,-5.0144,-5.0683,-5.0702,-5.0702,-5.0702,-5.0702,-5.0702,-5.0702,-5.0875,-5.0991,-1.3947,-1.4195,-1.458,-1.541,-1.584,-1.6553,-1.8418,-1.8633,-1.8608,-1.9421,-1.8702,-1.7,-1.394,-1.3908,0.0,0.0,-1.3707,-1.4088,-1.4088,-1.4088,-1.4088,-1.4088,-1.4088,-1.4088,-1.4088,-1.4088,-1.4088,-1.4088,-1.4088,-1.425,-1.4573,-1.6281,-1.7496,-1.7827,-1.9599,-2.0566,-2.0566,-2.0566,-2.0635,-2.0781,-2.0781,-2.0781,-2.0791,-2.124,-2.168,-2.2193,-2.4456,-2.5656,-2.613,-2.8359,-2.9456,-2.9792,-2.9792,-3.0011,-3.0355,-3.1328,-3.2249,-3.3171,-3.4109,-3.4905,-3.5504,-3.5504,-3.6006,-3.6615,-3.6615,-3.7306,-3.8246,-3.8745,-3.9086,-3.9437,-3.9952,-4.007,-4.0204,-4.0577,-4.078,-4.1087,-4.1664,-4.1937,-4.2244,-4.2846,-4.2939,-4.305,-4.3444,-4.3497,-4.3548,-4.3646,-4.3758,-4.3974,-4.4299,-4.4688,-4.5011,-4.5222,-4.5457,-4.5586,-4.5586,-4.5586,-4.5586,-4.5586,-4.6163,-4.724,-4.8913,-4.924,-4.9798,-5.0664,-5.0702,-5.0721,-5.076,-5.076,-5.0779,-5.0837,-5.101,-5.1106,-1.4275,-1.3993,-1.3945,-1.5694,-1.6145,-1.6723,-1.8799,-1.8633,-1.8225,-1.8875,-1.8563,-1.7235,-1.3801,-1.5072,0.0,-1.3564,-1.3707,-1.4088,-1.4088,-1.4088,-1.4088,-1.4088,-1.4088,-1.4088,-1.4088,-1.4088,-1.4088,-1.4088,-1.4088,-1.4573,-1.5621,-1.6683,-1.7819,-1.8957,-2.0001,-2.0566,-2.0566,-2.0566,-2.0791,-2.123,-2.123,-2.123,-2.126,-2.1689,-2.2119,-2.2614,-2.4186,-2.4787,-2.5041,-2.7186,-2.8767,-2.9792,-2.9792,-3.0343,-3.1315,-3.2249,-3.3171,-3.4163,-3.5133,-3.5504,-3.5504,-3.5504,-3.6006,-3.66,-3.66,-3.77,-3.8908,-3.8908,-3.9489,-4.007,-4.0138,-4.0121,-4.0121,-4.0121,-4.0528,-4.1087,-4.1664,-4.2302,-4.2864,-4.341,-4.3497,-4.3497,-4.3479,-4.3479,-4.3631,-4.3955,-4.4346,-4.4707,-4.5052,-4.54,-4.5586,-4.5586,-4.5586,-4.5586,-4.5586,-4.5586,-4.5586,-4.5586,-4.5586,-4.6355,-4.8029,-4.8933,-4.9798,-5.0664,-5.0702,-5.076,-5.0914,-5.0895,-5.0972,-5.1087,-5.1106,-5.1145,-1.3671,-1.472,-1.582,-1.6016,-1.7207,-1.8496,-1.9141,-1.8637,-1.789,-1.7097,-1.6953,-1.6144,-1.3646,-1.4089,0.0,-1.3366,-1.3707,-1.4088,-1.4088,-1.4088,-1.4088,-1.4088,-1.4088,-1.4088,-1.4088,-1.4088,-1.4088,-1.4088,-1.4088,-1.4573,-1.5621,-1.6683,-1.7819,-1.8957,-2.0001,-2.0566,-2.0566,-2.0566,-2.0791,-2.123,-2.0918,-2.1084,-2.1709,-2.2139,-2.2794,-2.3742,-2.5352,-2.6461,-2.7267,-2.8688,-2.9456,-2.9792,-2.9792,-3.0343,-3.1315,-3.2249,-3.3171,-3.4163,-3.5133,-3.5504,-3.5504,-3.5504,-3.6368,-3.744,-3.744,-3.8525,-3.9714,-3.9714,-3.9901,-4.0204,-4.0577,-4.0655,-4.0797,-4.1196,-4.1402,-4.1793,-4.2772,-4.3124,-4.3286,-4.3479,-4.3497,-4.3563,-4.3804,-4.3849,-4.3986,-4.4346,-4.4527,-4.4707,-4.5052,-4.54,-4.5586,-4.5586,-4.5586,-4.5586,-4.5586,-4.5586,-4.5586,-4.5586,-4.5699,-4.6451,-4.8029,-4.8355,-4.9221,-5.0818,-5.0856,-5.0914,-5.1049,-5.1029,-5.1056,-5.1095,-5.1138,-5.1183,-1.4053,-1.5342,-1.6602,-1.7197,-1.832,-1.9341,-1.9307,-1.8533,-1.7527,-1.6739,-1.6423,-1.5881,-1.4462,-1.458,0.0,-1.3709,-1.3854,-1.4088,-1.4088,-1.4088,-1.4088,-1.4088,-1.4088,-1.4088,-1.4088,-1.4088,-1.4088,-1.4088,-1.4088,-1.4734,-1.6273,-1.6927,-1.7989,-1.9599,-2.0245,-2.0566,-2.0566,-2.0566,-2.0879,-2.1494,-2.1221,-2.1777,-2.3016,-2.2925,-2.3483,-2.4566,-2.6326,-2.7775,-2.8858,-2.9534,-2.9792,-2.9792,-2.9792,-3.0343,-3.1315,-3.2249,-3.3171,-3.4163,-3.5133,-3.5504,-3.5459,-3.519,-3.6137,-3.7342,-3.707,-3.8031,-3.9276,-3.9563,-3.9812,-4.012,-4.074,-4.1087,-4.1358,-4.1707,-4.1979,-4.2342,-4.305,-4.3339,-4.3497,-4.3497,-4.3597,-4.3772,-4.3955,-4.4117,-4.4373,-4.4732,-4.4919,-4.5055,-4.5263,-4.5476,-4.5586,-4.5586,-4.5586,-4.5605,-4.568,-4.568,-4.5699,-4.5719,-4.5796,-4.6403,-4.7695,-4.8077,-4.9106,-5.0952,-5.0979,-5.1037,-5.1145,-5.1154,-5.1178,-5.1213,-5.1269,-5.128,-1.5088,-1.584,-1.6777,-1.8789,-1.9346,-1.9399,-1.9407,-1.831,-1.7261,-1.7221,0.0,-1.5963,-1.559,-1.5859,-1.5624,-1.4291,-1.4088,-1.4088,-1.4088,-1.4088,-1.4088,-1.4088,-1.4088,-1.4088,-1.4088,-1.4088,-1.4088,-1.4088,-1.4166,-1.5144,-1.7172,-1.7415,-1.839,-2.0557,-2.0605,-2.0605,-2.0566,-2.0644,-2.1094,-2.1885,-2.1885,-2.2882,-2.4596,-2.3927,-2.4082,-2.5041,-2.7186,-2.8688,-2.9624,-2.9792,-2.9792,-2.9792,-2.9792,-3.0419,-3.1462,-3.2321,-3.3241,-3.4245,-3.5124,-3.5415,-3.5295,-3.4718,-3.5471,-3.6542,-3.5957,-3.6799,-3.8041,-3.8732,-3.9328,-3.9891,-4.0659,-4.1271,-4.1771,-4.1813,-4.2289,-4.2711,-4.275,-4.316,-4.3548,-4.3548,-4.3836,-4.4058,-4.4087,-4.4401,-4.4757,-4.5096,-4.54,-4.5586,-4.5586,-4.5586,-4.5586,-4.5586,-4.5605,-4.568,-4.5796,-4.5811,-4.5828,-4.5885,-4.5909,-4.6302,-4.7174,-4.7966,-4.9219,-5.0972,-5.1004,-5.1063,-5.1217,-5.1217,-5.1292,-5.1406,-5.1406,-5.1406,-1.5244,-1.6719,-1.8281,-1.9082,-1.9795,-2.012,-1.9268,-1.8129,-1.709,-1.653,-1.5445,-1.4572,-1.4426,-1.4544,-1.4487,-1.4179,-1.4088,-1.4088,-1.4088,-1.4088,-1.4088,-1.4088,-1.4088,-1.4088,-1.4088,-1.4088,-1.4088,-1.4088,-1.4894,-1.5951,-1.7253,-1.8149,-1.9274,-2.0566,-2.0908,-2.0918,-2.0566,-2.125,-2.1699,-2.1885,-2.1885,-2.2483,-2.3464,-2.4176,-2.5101,-2.6224,-2.7522,-2.8255,-2.8518,-2.9443,-2.9792,-2.9792,-2.9792,-3.0846,-3.2321,-3.2522,-3.3685,-3.5124,-3.4812,-3.4696,-3.4703,-3.4575,-3.5133,-3.6011,-3.6385,-3.717,-3.8018,-3.8534,-3.8777,-3.9086,-4.0099,-4.093,-4.1607,-4.2086,-4.243,-4.2826,-4.325,-4.3627,-4.3912,-4.3912,-4.4223,-4.4535,-4.483,-4.4943,-4.5096,-4.5438,-4.5568,-4.5586,-4.5586,-4.5586,-4.5586,-4.5586,-4.5699,-4.5776,-4.5796,-4.5854,-4.588,-4.5899,-4.5993,-4.6444,-4.731,-4.7449,-4.8347,-5.0202,-5.0238,-5.0604,-5.1351,-5.1351,-5.1372,-5.1406,-5.1406,-5.1406,-1.5703,-1.7021,-1.834,-1.959,-2.0234,-2.0479,-1.9923,-1.8877,-1.7959,-1.7565,-1.5664,-1.425,-1.4734,-1.4412,-1.4088,-1.4088,-1.4088,-1.4088,-1.4088,-1.4088,-1.4088,-1.4088,-1.4088,-1.4088,-1.4088,-1.4088,-1.4088,-1.4088,-1.4657,-1.5628,-1.7261,-1.7819,-1.8957,-2.0566,-2.0996,-2.1123,-2.0889,-2.1553,-2.1992,-2.2187,-2.2742,-2.3888,-2.5452,-2.5031,-2.5703,-2.7279,-2.7844,-2.8426,-2.8937,-2.9546,-2.9792,-2.9856,-3.0279,-3.1044,-3.1992,-3.264,-3.3475,-3.4309,-3.4107,-3.4008,-3.395,-3.3666,-3.426,-3.5187,-3.5202,-3.5959,-3.692,-3.7547,-3.8131,-3.8731,-3.9622,-4.0545,-4.1338,-4.165,-4.241,-4.3178,-4.3444,-4.3772,-4.4016,-4.4016,-4.4455,-4.4896,-4.5074,-4.5222,-4.54,-4.5568,-4.5586,-4.5586,-4.5586,-4.5643,-4.5699,-4.5699,-4.5796,-4.5873,-4.595,-4.5969,-4.6016,-4.6099,-4.6164,-4.641,-4.6833,-4.6804,-4.7821,-5.0043,-5.0101,-5.053,-5.1406,-5.1406,-5.1406,-5.1406,-5.1406,-5.1406,-1.5908,-1.6982,-1.8076,-2.0068,-2.0566,-2.0566,-2.0566,-1.9756,-1.9036,-1.9036,-1.6527,-1.4657,-1.5538,-1.4817,-1.4088,-1.4088,-1.4088,-1.4088,-1.4088,-1.4088,-1.4088,-1.4088,-1.4088,-1.4088,-1.4088,-1.4088,-1.4088,-1.4088,-1.4412,-1.5394,-1.7172,-1.7725,-1.8807,-2.0684,-2.1182,-2.1426,-2.1348,-2.1846,-2.2236,-2.251,-2.371,-2.5322,-2.7186,-2.5535,-2.6025,-2.8096,-2.8096,-2.8597,-2.9534,-2.9702,-2.9792,-2.9844,-3.0729,-3.1095,-3.1382,-3.2492,-3.3027,-3.3151,-3.3297,-3.332,-3.3276,-3.2823,-3.3448,-3.435,-3.4014,-3.4704,-3.5757,-3.652,-3.7453,-3.8344,-3.9043,-4.0058,-4.0891,-4.0891,-4.2077,-4.3195,-4.3293,-4.3712,-4.4087,-4.4087,-4.4688,-4.5201,-4.5201,-4.5419,-4.5586,-4.5586,-4.5605,-4.5624,-4.5624,-4.5738,-4.5813,-4.5819,-4.5905,-4.5988,-4.6084,-4.6121,-4.6182,-4.6288,-4.6298,-4.6308,-4.6308,-4.6309,-4.7383,-4.9707,-4.9902,-5.0449,-5.1406,-5.1406,-5.1406,-5.1406,-5.1377,-5.1363,-1.4971,-1.6719,-1.8809,-2.0215,-2.0566,-2.0566,-2.0566,0.0,-1.9036,0.0,-1.7172,-1.5538,-1.5696,-1.4817,-1.4088,-1.4088,-1.4088,-1.4088,-1.4088,-1.4088,-1.4088,-1.4088,-1.4088,-1.4088,-1.4088,-1.4088,-1.4088,-1.4088,-1.5794,-1.7017,-1.7261,-1.9452,-2.0813,-2.1143,-2.1924,-2.2168,-2.1807,-2.2578,-2.2812,-2.2519,-2.4019,-2.4405,-2.38,-2.4457,-2.6025,-2.8096,-2.8096,-2.8176,-2.8426,-2.9365,-2.9792,-2.9819,-3.0212,-3.0847,-3.1612,-3.2028,-3.2747,-3.3406,-3.2811,-3.2647,-3.2749,-3.3278,-3.3571,-3.3915,-3.4991,-3.547,-3.5728,-3.6302,-3.6881,-3.7481,-3.7972,-3.9085,-4.0065,-4.0065,-4.0991,-4.1964,-4.2353,-4.355,-4.4527,-4.4527,-4.5055,-4.5531,-4.5531,-4.5568,-4.5586,-4.5586,-4.5699,-4.5776,-4.5776,-4.5834,-4.5905,-4.588,-4.5998,-4.6084,-4.6103,-4.6216,-4.6282,-4.6308,-4.6303,-4.6295,-4.6295,-4.6307,-4.6816,-4.793,-4.8691,-4.9844,-5.1406,-5.1406,-5.1406,-5.1406,-5.1292,-5.1247,-1.542,-1.7402,-1.9316,-2.0615,-2.0937,-2.0937,-2.0937,-2.0418,-1.9923,-1.9923,-1.8621,-1.7163,-1.5944,-1.5296,-1.4977,-1.4977,-1.4489,-1.4334,-1.4894,-1.4489,-1.4088,-1.4088,-1.465,-1.4977,-1.4977,-1.5545,-1.5876,-1.5876,-1.6772,-1.7585,-1.823,-1.9578,-2.0557,-2.115,-2.207,-2.2422,-2.2236,-2.2832,-2.3624,-2.4766,-2.4788,-2.5311,-2.6358,-2.6278,-2.6358,-2.668,-2.668,-2.7408,-2.8537,-2.8724,-2.9301,-3.0103,-3.0401,-3.1062,-3.1933,-3.2184,-3.2613,-3.2856,-3.2198,-3.1958,-3.2073,-3.2773,-3.3287,-3.3786,-3.4752,-3.5316,-3.5694,-3.6266,-3.6803,-3.7323,-3.779,-3.8554,-3.9239,-3.9239,-4.0078,-4.0942,-4.1137,-4.275,-4.4349,-4.5023,-4.54,-4.5586,-4.5586,-4.5586,-4.5624,-4.5699,-4.5757,-4.5803,-4.5848,-4.5943,-4.5998,-4.6007,-4.6134,-4.6212,-4.6212,-4.627,-4.6308,-4.6308,-4.6308,-4.6308,-4.6308,-4.6308,-4.6719,-4.7578,-4.8457,-4.9492,-5.0723,-5.1172,-5.1359,-5.1295,-5.1228,-5.1183,-1.5284,-1.7002,-1.8418,-2.0273,-2.0742,-2.0859,-2.1299,0.0,-2.0732,0.0,-1.9998,-1.8789,-1.6919,-1.6108,-1.5779,-1.6026,-1.522,-1.4901,-1.5951,-1.5387,-1.4901,-1.4901,-1.5628,-1.6108,-1.6108,-1.6846,-1.7342,-1.7342,-1.7577,-1.8069,-1.8957,-1.9659,-2.0433,-2.1316,-2.2129,-2.2568,-2.2676,-2.2988,-2.3973,-2.5641,-2.5041,-2.5782,-2.7657,-2.7077,-2.6366,-2.5588,-2.6027,-2.7198,-2.8687,-2.8273,-2.8689,-2.9699,-3.0337,-3.0974,-3.1554,-3.2047,-3.2273,-3.2198,-3.1862,-3.1796,-3.1951,-3.2841,-3.3443,-3.3987,-3.464,-3.5283,-3.5898,-3.6308,-3.6865,-3.747,-3.779,-3.83,-3.8719,-3.8792,-3.9482,-4.0315,-4.1038,-4.255,-4.4149,-4.5377,-4.5586,-4.5605,-4.5624,-4.5643,-4.5699,-4.5815,-4.5853,-4.5893,-4.5953,-4.6072,-4.6158,-4.6158,-4.6245,-4.6308,-4.6308,-4.6308,-4.6308,-4.6308,-4.6308,-4.6308,-4.6308,-4.6308,-4.6601,-4.7266,-4.834,-4.9336,-5.0195,-5.0972,-5.1298,-5.1203,-5.1145,-5.1106,-1.3779,-1.4282,-1.5205,-1.8555,-1.9394,-1.9824,0.0,0.0,-2.1201,-2.1201,-2.0859,-2.0157,-1.9036,-1.7082,-1.6026,-1.7009,-1.6355,-1.6026,-1.709,-1.718,-1.7098,-1.7098,-1.7172,-1.7261,-1.7261,-1.7253,-1.7342,-1.7342,-1.831,-1.8957,-1.9036,-2.0339,-2.1345,-2.1836,-2.2285,-2.2705,-2.3105,-2.3125,-2.3135,-2.3309,-2.4296,-2.464,-2.4302,-2.5238,-2.5686,-2.5725,-2.7299,-2.8074,-2.8147,-2.8109,-2.8122,-2.8303,-2.9389,-2.9876,-3.0067,-3.113,-3.1526,-3.1627,-3.2287,-3.2532,-3.2734,-3.4087,-3.4528,-3.4688,-3.5362,-3.5941,-3.6374,-3.6374,-3.7135,-3.7859,-3.7893,-3.83,-3.8762,-3.9027,-3.9352,-4.0386,-4.3045,-4.37,-4.4149,-4.5377,-4.5586,-4.5624,-4.5776,-4.5796,-4.5815,-4.5873,-4.6007,-4.6102,-4.608,-4.622,-4.6287,-4.6287,-4.6308,-4.6308,-4.6308,-4.6308,-4.6308,-4.6308,-4.6308,-4.6308,-4.6308,-4.6308,-4.6328,-4.6367,-4.8047,-4.9336,-5.0195,-5.0875,-5.1221,-5.1203,-5.101,-5.0914,-1.3262,-1.4131,-1.5049,-1.7129,-1.8682,-1.9853,-2.0478,-2.1162,-2.165,-2.165,-2.1299,-2.0837,-2.0499,-1.8968,-1.798,-1.831,-1.7415,-1.709,-1.823,-1.7738,-1.7342,-1.7342,-1.7989,-1.839,-1.839,-1.9036,-1.9432,-1.9432,-1.9766,-2.0001,-2.0001,-2.0748,-2.1309,-2.1465,-2.2148,-2.2715,-2.3135,-2.3135,-2.366,-2.4679,-2.4451,-2.4934,-2.6099,-2.5786,-2.5784,-2.6239,-2.6814,-2.7256,-2.7544,-2.7193,-2.7919,-2.9173,-2.9231,-2.9953,-3.0964,-3.1367,-3.1482,-3.1582,-3.2327,-3.2586,-3.2841,-3.4186,-3.4576,-3.4767,-3.582,-3.6266,-3.6522,-3.7193,-3.7596,-3.798,-3.8332,-3.8688,-3.9082,-3.9599,-3.9819,-4.0403,-4.2125,-4.2524,-4.2963,-4.4472,-4.4853,-4.5084,-4.5699,-4.5844,-4.5893,-4.602,-4.6065,-4.6124,-4.6227,-4.6273,-4.6308,-4.6308,-4.6308,-4.6308,-4.6308,-4.6308,-4.6308,-4.6308,-4.6308,-4.6308,-4.6308,-4.6308,-4.6308,-4.6308,-4.7461,-4.8459,-4.9239,-5.0559,-5.1126,-5.101,-5.0933,-5.0856,-1.2285,-1.3047,-1.3906,-1.5644,-1.7139,-1.8535,-1.9834,0.0,-2.1387,-2.1973,-2.1758,-2.1455,-2.1455,-2.0628,-1.9845,-1.9566,-1.863,-1.823,-1.9362,-1.8877,-1.8381,-1.8381,-1.9116,-1.952,-1.952,-2.0167,-2.0566,-2.0566,-2.0566,0.0,-2.0566,-2.085,-2.1074,-2.123,-2.207,-2.2808,-2.3503,-2.3418,-2.4179,-2.563,-2.4681,-2.5138,-2.6672,-2.5924,-2.5937,-2.6533,-2.6533,-2.6666,-2.6979,-2.6684,-2.7517,-2.9114,-2.9027,-2.9889,-3.1146,-3.1409,-3.164,-3.1951,-3.268,-3.3093,-3.3443,-3.4592,-3.5065,-3.5352,-3.6147,-3.6643,-3.7041,-3.772,-3.8013,-3.8267,-3.8627,-3.898,-3.9414,-3.9982,-4.0158,-4.044,-4.1207,-4.1585,-4.222,-4.3624,-4.4218,-4.4691,-4.5317,-4.5732,-4.6019,-4.6154,-4.6174,-4.6191,-4.6286,-4.6308,-4.6308,-4.6308,-4.6308,-4.6308,-4.6308,-4.6308,-4.6308,-4.6308,-4.6308,-4.6308,-4.6308,-4.6308,-4.6282,-4.6234,-4.7092,-4.7718,-4.8126,-4.9894,-5.0779,-5.0914,-5.0856,-5.0779,0.0,0.0,0.0,-1.4043,0.0,0.0,-1.9541,0.0,-2.0361,-2.21,-2.2129,-2.1855,-2.1894,-2.1894,-2.1602,-2.0742,-1.9794,-1.9469,-2.0498,-2.0596,-2.0596,-2.0586,-2.0586,-2.0586,-2.0605,-2.0586,-2.0566,-2.0586,-2.0576,-2.0566,-2.0566,-2.0566,-2.0771,-2.1221,-2.2041,-2.3042,-2.4177,-2.4033,-2.4587,-2.5585,-2.5105,-2.5085,-2.5595,-2.5595,-2.5912,-2.6533,-2.6533,-2.6533,-2.6521,-2.6521,-2.704,-2.7802,-2.8684,-2.9566,-3.045,-3.1219,-3.2007,-3.2695,-3.3391,-3.4037,-3.4688,-3.5362,-3.5985,-3.6416,-3.6416,-3.7117,-3.7893,-3.7911,-3.83,-3.8738,-3.8719,-3.9181,-3.969,-4.0022,-4.0321,-4.0489,-4.0489,-4.1162,-4.2027,-4.2893,-4.3833,-4.4519,-4.4676,-4.5479,-4.6158,-4.6282,-4.6308,-4.6308,-4.6308,-4.6308,-4.6308,-4.6308,-4.6308,-4.6308,-4.6308,-4.6308,-4.6308,-4.6308,-4.6308,-4.6308,-4.6308,-4.6308,-4.624,-4.6102,-4.6928,-4.7237,-4.7009,-4.8837,-5.0144,-5.0856,-5.0741,-5.0702,-1.043,0.0,0.0,0.0,0.0,0.0,0.0,0.0,0.0,-2.081,-2.1016,-2.1221,-2.2168,-2.209,-2.1807,-2.1562,-2.1269,-2.1072,-2.1014,-2.1328,-2.1406,-2.1084,-2.1045,-2.1172,-2.1494,-2.0937,-2.0703,0.0,-2.0752,-2.0566,-2.0566,-2.0566,-2.0771,-2.1221,-2.215,-2.2967,-2.351,-2.4244,-2.4937,-2.5582,-2.5443,-2.5706,-2.6235,-2.6235,-2.6313,-2.6533,-2.6533,-2.685,-2.7351,-2.7351,-2.7855,-2.8748,-2.9566,-3.045,-3.1278,-3.1992,-3.2437,-3.2803,-3.3937,-3.4431,-3.4688,-3.5362,-3.5985,-3.6457,-3.6882,-3.7433,-3.798,-3.8382,-3.8718,-3.909,-3.959,-3.9838,-4.0023,-4.0319,-4.0457,-4.0489,-4.0489,-4.0758,-4.1258,-4.2143,-4.3153,-4.4048,-4.4673,-4.5599,-4.6257,-4.6289,-4.6308,-4.6308,-4.6308,-4.6308,-4.6308,-4.6308,-4.6308,-4.6308,-4.6308,-4.6308,-4.6308,-4.6308,-4.6308,-4.6308,-4.6308,-4.6308,-4.624,-4.6102,-4.6352,-4.6642,-4.7009,-4.8162,-4.9086,-4.9817,-5.0414,-5.0702,-1.0283,-1.0459,-1.0684,-1.0869,0.0,0.0,-1.5225,-1.6758,0.0,0.0,-2.125,-2.1611,-2.2373,-2.2461,-2.2412,-2.2412,-2.2412,-2.2197,-2.1592,-2.1728,-2.1787,-2.1533,-2.1879,-2.2059,-2.1948,-2.187,-2.1749,-2.1484,-2.1094,-2.0987,-2.1165,-2.1603,-2.1956,-2.2149,-2.2945,-2.3623,-2.4338,-2.4898,-2.5529,-2.6299,-2.6069,-2.6168,-2.6533,-2.6533,-2.6533,-2.6521,-2.685,-2.7297,-2.7736,-2.8492,-2.9066,-2.9566,-3.0072,-3.0777,-3.1582,-3.2327,-3.2788,-3.3198,-3.4235,-3.4783,-3.5144,-3.5749,-3.6291,-3.6843,-3.7323,-3.7843,-3.83,-3.8627,-3.8894,-3.9238,-3.9922,-4.0101,-4.0158,-4.0441,-4.0489,-4.0508,-4.0581,-4.0677,-4.0889,-4.1354,-4.2614,-4.3744,-4.4215,-4.5402,-4.6308,-4.6308,-4.6308,-4.6308,-4.6308,-4.6308,-4.6308,-4.6308,-4.6308,-4.6308,-4.6308,-4.6308,-4.6308,-4.6308,-4.6308,-4.6278,-4.6215,-4.6227,-4.6133,-4.5986,-4.5969,-4.6123,-4.6413,-4.7316,-4.8143,-4.8894,-5.0106,-5.051,-1.0332,-1.0283,-1.0371,-1.0742,-1.0879,0.0,-1.5293,-1.6101,-1.7158,0.0,-2.1435,-2.1777,-2.2046,-2.2389,-2.2644,-2.2729,-2.2932,-2.2834,-2.2271,-2.2075,-2.2085,-2.2274,-2.3042,-2.3286,-2.2499,-2.3184,-2.3293,-2.2429,-2.1808,-2.1736,-2.2208,-2.3021,-2.3514,-2.3514,-2.4026,-2.4774,-2.5731,-2.567,-2.6214,-2.718,-2.676,-2.6533,-2.6533,-2.6533,-2.6521,-2.6658,-2.7417,-2.7802,-2.8117,-2.9628,-3.0329,-3.0329,-3.0389,-3.0896,-3.1682,-3.2422,-3.3145,-3.3786,-3.4479,-3.5098,-3.5694,-3.6224,-3.6764,-3.7285,-3.7755,-3.8267,-3.8689,-3.8792,-3.899,-3.9364,-3.9983,-4.0139,-4.0195,-4.0438,-4.0508,-4.0562,-4.0677,-4.0754,-4.0793,-4.0735,-4.2208,-4.351,-4.3587,-4.5033,-4.6191,-4.6289,-4.6308,-4.6308,-4.6308,-4.6308,-4.6308,-4.6308,-4.6308,-4.6308,-4.6308,-4.6308,-4.6308,-4.6308,-4.6285,-4.6229,-4.61,-4.6084,-4.5988,-4.5796,-4.5796,-4.5719,-4.5586,-4.6528,-4.7375,-4.8144,-4.9779,-5.0183,-1.0664,-1.0283,-1.0303,-1.0381,0.0,0.0,-1.1875,-1.255,-1.3691,0.0,0.0,-1.7347,-1.9272,-1.9676,-1.9878,-2.0348,-2.1594,-2.2796,-2.3648,-2.3253,0.0,0.0,0.0,0.0,-2.5502,-2.5156,-2.4937,-2.5004,-2.4215,-2.3754,-2.3882,-2.3653,-2.3514,-2.3514,-2.4357,-2.4932,-2.5147,-2.5951,-2.6464,-2.6615,-2.6584,-2.6533,-2.6533,-2.6533,-2.685,-2.7484,-2.7604,-2.8492,-2.9827,-3.0147,-3.0329,-3.0329,-3.1029,-3.1709,-3.2477,-3.313,-3.3836,-3.4479,-3.5161,-3.547,-3.5694,-3.6224,-3.6764,-3.7285,-3.7755,-3.8267,-3.8792,-3.9294,-3.9664,-3.9983,-4.0319,-4.0406,-4.0441,-4.0489,-4.0581,-4.0677,-4.0696,-4.0831,-4.0947,-4.0927,-4.1857,-4.2868,-4.3551,-4.4566,-4.5488,-4.6191,-4.6308,-4.6308,-4.6308,-4.6308,-4.6308,-4.6308,-4.6308,-4.6308,-4.6308,-4.6308,-4.6308,-4.6308,-4.621,-4.6128,-4.6102,-4.6007,-4.5911,-4.5796,-4.5699,-4.5624,-4.5586,-4.649,-4.7336,-4.8125,-4.9163,-4.9933,0.0,0.0,0.0,-1.0283,0.0,0.0,0.0,0.0,0.0,0.0,0.0,0.0,-1.8323,-1.8838,-1.9135,-1.9695,-2.1207,0.0,0.0,0.0,0.0,0.0,0.0,0.0,-2.6449,-2.6588,-2.637,-2.5813,-2.5821,-2.5611,-2.5101,-2.5286,-2.5254,-2.4992,-2.5511,-2.5734,-2.5734,-2.6233,-2.6533,-2.6533,-2.6533,-2.6533,-2.6533,-2.6905,-2.7284,-2.7736,-2.862,-2.9504,-3.0329,-3.0718,-3.1116,-3.1492,-3.1879,-3.2272,-3.2749,-3.3735,-3.4333,-3.4688,-3.5362,-3.5622,-3.5739,-3.6522,-3.6999,-3.734,-3.8083,-3.8496,-3.8822,-3.9427,-3.9731,-3.9963,-4.0389,-4.0489,-4.0489,-4.0489,-4.06,-4.0703,-4.0745,-4.0886,-4.1004,-4.1097,-4.1473,-4.2207,-4.3476,-4.4414,-4.5293,-4.6172,-4.6308,-4.6308,-4.6308,-4.6308,-4.6308,-4.6308,-4.6308,-4.6308,-4.6308,-4.6245,-4.6199,-4.6199,-4.6069,-4.5998,-4.5967,-4.5892,-4.5796,-4.5699,-4.5624,-4.5586,-4.5586,-4.6028,-4.6451,-4.6874,-4.8163,-4.8779,0.0,0.0,0.0,0.0,0.0,-1.0654,0.0,0.0,0.0,0.0,0.0,0.0,0.0,0.0,0.0,0.0,0.0,0.0,0.0,0.0,0.0,0.0,0.0,0.0,-2.6427,-2.7352,-2.7555,-2.6599,-2.7008,-2.7025,-2.6311,-2.6949,-2.703,-2.6546,-2.6533,-2.6533,-2.6533,-2.6533,-2.6533,-2.6533,-2.6533,-2.6589,-2.6782,-2.7417,-2.7855,-2.8298,-2.969,-3.0389,-3.0584,-3.1379,-3.2064,-3.2586,-3.2586,-3.2734,-3.3093,-3.4186,-3.4688,-3.4894,-3.5407,-3.5622,-3.5783,-3.6865,-3.734,-3.7632,-3.8433,-3.8792,-3.897,-3.9457,-3.969,-3.9884,-4.037,-4.0489,-4.0508,-4.0543,-4.0639,-4.0747,-4.0829,-4.0942,-4.1061,-4.119,-4.1206,-4.1738,-4.3418,-4.4277,-4.5098,-4.6133,-4.6308,-4.6308,-4.6308,-4.6308,-4.6308,-4.6308,-4.6308,-4.6308,-4.6308,-4.6199,-4.6123,-4.6103,-4.5964,-4.5873,-4.5813,-4.5776,-4.5719,-4.5586,-4.5586,-4.5586,-4.5586,-4.5586,-4.5682,-4.5874,-4.724,-4.7605,0.0,0.0,0.0,0.0,-1.0283,0.0,0.0,0.0,0.0,-1.1975,0.0,0.0,0.0,0.0,0.0,0.0,0.0,0.0,0.0,0.0,0.0,0.0,0.0,0.0,0.0,-2.6752,-2.7997,-2.922,-2.8168,-2.7544,-2.7801,-2.7473,-2.703,-2.6546,-2.6533,-2.6533,-2.6533,-2.6533,-2.6533,-2.6533,-2.6533,-2.6837,-2.7537,-2.767,-2.8556,-3.0011,-3.0208,-3.0703,-3.1394,-3.216,-3.2532,-3.2586,-3.2586,-3.3339,-3.4382,-3.4528,-3.4988,-3.5515,-3.5577,-3.5622,-3.5783,-3.6865,-3.7791,-3.8546,-3.8676,-3.9064,-3.9505,-3.9576,-3.9984,-4.0422,-4.0489,-4.0489,-4.0543,-4.0658,-4.0735,-4.0827,-4.0949,-4.1073,-4.1183,-4.1203,-4.1209,-4.1738,-4.3418,-4.3789,-4.4414,-4.6055,-4.6308,-4.6308,-4.6308,-4.6308,-4.6308,-4.6308,-4.6308,-4.6308,-4.6308,-4.6288,-4.6219,-4.6103,-4.5982,-4.5866,-4.5796,-4.5699,-4.5605,-4.5586,-4.5586,-4.5586,-4.5586,-4.5586,-4.599,-4.6759,-4.6951,-4.7375,0.0,0.0,0.0,0.0,0.0,0.0,-1.0459,0.0,-1.0565,0.0,0.0,0.0,0.0,0.0,0.0,0.0,-1.6434,0.0,0.0,0.0,0.0,0.0,0.0,0.0,0.0,0.0,0.0,0.0,-2.8132,-2.7584,-2.8047,-2.7582,-2.703,-2.6546,-2.6533,-2.6533,-2.6533,-2.6533,-2.6533,-2.6533,-2.6973,-2.7351,-2.7736,-2.8748,-2.9628,-3.0329,-3.0777,-3.1422,-3.2176,-3.2477,-3.3039,-3.3735,-3.3735,-3.4087,-3.464,-3.5052,-3.5362,-3.5622,-3.5622,-3.5622,-3.5783,-3.6865,-3.7861,-3.8707,-3.8707,-3.8892,-3.9154,-3.9505,-3.9778,-4.0063,-4.0406,-4.0489,-4.0543,-4.0677,-4.0739,-4.0827,-4.0969,-4.1116,-4.1191,-4.1191,-4.1191,-4.1562,-4.2734,-4.3379,-4.4297,-4.6035,-4.6308,-4.6308,-4.6308,-4.6308,-4.6308,-4.6308,-4.6308,-4.6305,-4.6294,-4.6163,-4.6041,-4.6002,-4.5812,-4.5719,-4.5699,-4.5624,-4.5586,-4.5586,-4.5586,-4.5586,-4.5586,-4.5586,-4.5778,-4.6144,-4.6144,-4.6336,-1.291,0.0,0.0,0.0,0.0,0.0,0.0,0.0,0.0,0.0,0.0,0.0,0.0,0.0,0.0,0.0,0.0,0.0,0.0,0.0,0.0,0.0,0.0,0.0,0.0,0.0,0.0,0.0,0.0,-2.7314,-2.875,-2.8042,-2.7411,-2.6863,-2.685,-2.685,-2.685,-2.685,-2.6973,-2.7162,-2.7802,-2.8182,-2.8427,-2.969,-3.0389,-3.0644,-3.1437,-3.212,-3.2641,-3.3002,-3.3735,-3.4624,-3.4783,-3.4894,-3.4941,-3.5407,-3.5622,-3.5622,-3.5622,-3.5766,-3.6207,-3.7097,-3.7982,-3.8707,-3.8707,-3.8822,-3.9036,-3.9481,-3.9712,-3.9964,-4.0389,-4.0543,-4.0581,-4.0696,-4.0778,-4.0888,-4.1039,-4.1139,-4.1191,-4.1191,-4.1191,-4.1465,-4.2266,-4.293,-4.3945,-4.5683,-4.5937,-4.6035,-4.6269,-4.6308,-4.6308,-4.6308,-4.6308,-4.6306,-4.6298,-4.6091,-4.5925,-4.5886,-4.5708,-4.5586,-4.5586,-4.5586,-4.5586,-4.5586,-4.5586,-4.5586,-4.5586,-4.5586,-4.5586,-4.5586,-4.5586,-4.5586,0.0,0.0,0.0,-1.2008,0.0,0.0,0.0,0.0,-1.0582,0.0,0.0,0.0,0.0,0.0,0.0,0.0,0.0,0.0,0.0,0.0,0.0,0.0,0.0,0.0,0.0,0.0,0.0,0.0,0.0,0.0,-3.0538,-2.9267,-2.8236,-2.7696,-2.767,-2.767,-2.767,-2.767,-2.8051,-2.8939,-2.8939,-2.938,-3.0208,-3.0269,-3.0718,-3.1524,-3.2216,-3.2602,-3.2695,-3.3987,-3.4576,-3.4671,-3.5299,-3.5577,-3.5577,-3.5577,-3.5622,-3.5622,-3.5622,-3.6291,-3.721,-3.772,-3.8267,-3.8707,-3.8707,-3.91,-3.9576,-3.9599,-4.0024,-4.0473,-4.0489,-4.06,-4.0716,-4.0773,-4.0904,-4.1023,-4.1155,-4.1191,-4.1191,-4.1191,-4.1191,-4.1465,-4.2266,-4.2422,-4.3027,-4.4785,-4.5039,-4.5351,-4.6191,-4.6308,-4.6308,-4.6308,-4.6308,-4.6299,-4.6301,-4.6177,-4.6005,-4.5813,-4.568,-4.5586,-4.5586,-4.5586,-4.5586,-4.5586,-4.5586,-4.5586,-4.5586,-4.5586,-4.5586,-4.5586,-4.5586,-4.5586,-1.5956,-1.6269,-1.6152,-1.3838,0.0,0.0,0.0,0.0,0.0,0.0,0.0,0.0,0.0,0.0,0.0,0.0,0.0,0.0,0.0,0.0,0.0,0.0,0.0,0.0,0.0,0.0,0.0,0.0,0.0,0.0,0.0,-2.9299,-2.876,-2.857,-2.8556,-2.8556,-2.8556,-2.8556,-2.8684,-2.9002,-2.9566,-3.0011,-3.0329,-3.0837,-3.148,-3.2216,-3.2492,-3.3093,-3.3987,-3.4431,-3.483,-3.5299,-3.5515,-3.5622,-3.5622,-3.5622,-3.5622,-3.5667,-3.6028,-3.6603,-3.7285,-3.7755,-3.8267,-3.8707,-3.8707,-3.898,-3.9333,-3.9552,-3.9903,-4.0286,-4.0457,-4.06,-4.0718,-4.0784,-4.09,-4.1042,-4.1179,-4.1191,-4.1191,-4.1191,-4.1191,-4.1289,-4.1562,-4.1601,-4.2383,-4.4668,-4.5,-4.5312,-4.6191,-4.6308,-4.6308,-4.6308,-4.6308,-4.6306,-4.6305,-4.6094,-4.5873,-4.568,-4.5624,-4.5586,-4.5586,-4.5586,-4.5586,-4.5586,-4.5586,-4.5586,-4.5586,-4.5586,-4.5586,-4.5586,-4.5586,-4.5586,-1.6842,-1.7533,-1.7725,-1.5527,-1.5352,0.0,-1.2959,0.0,-1.1832,0.0,0.0,0.0,0.0,0.0,0.0,0.0,0.0,0.0,0.0,0.0,0.0,0.0,0.0,0.0,0.0,0.0,0.0,0.0,0.0,0.0,0.0,0.0,-2.9218,-2.9428,-2.9442,-2.9442,-2.9442,-2.9442,-2.9628,-2.9889,-3.045,-3.0718,-3.0718,-3.1278,-3.1894,-3.2586,-3.2841,-3.3582,-3.4624,-3.4847,-3.5207,-3.5622,-3.5622,-3.5622,-3.5622,-3.5622,-3.5739,-3.5985,-3.6498,-3.702,-3.7542,-3.8032,-3.8415,-3.8707,-3.8707,-3.898,-3.9314,-3.9552,-3.9903,-4.0286,-4.0515,-4.0658,-4.0757,-4.0843,-4.0965,-4.1077,-4.1187,-4.1191,-4.1191,-4.1191,-4.1191,-4.1191,-4.1191,-4.1191,-4.1953,-4.4199,-4.4531,-4.4961,-4.6152,-4.6308,-4.6308,-4.6308,-4.6308,-4.6256,-4.6177,-4.5993,-4.5815,-4.5605,-4.5586,-4.5586,-4.5586,-4.5586,-4.5586,-4.5586,-4.5586,-4.5586,-4.5586,-4.5586,-4.5586,-4.5586,-4.5586,-4.5586]}]]